     2              OBSERVATION DATA    GPS                 RINEX VERSION / TYPE
ASRINEXO V2.8.2 VM                                          PGM / RUN BY / DATE
                                                            COMMENT
BIT 2 OF LLI (+4) FLAGS DATA COLLECTED UNDER "AS" CONDITION COMMENT
Original Marker Name: 0612                                  COMMENT
Campaign Name: HPGN 1991                                    COMMENT
4-Character Station Name: 0612                              COMMENT
6-Character Antenna Code: ASHL12                            COMMENT
Vertical Measurement Point: BAS                             COMMENT
Vertical Offset to Rinex Ref. Point: 0.0000                 COMMENT
Radial Measurement Point: RRP                               COMMENT
Radial Offset to Rinex Ref. Point: 0.0000                   COMMENT
Antenna Height from Field Measurement: 2.2200 m             COMMENT
Original XYZ: 6378137.0000 0.0000 0.0000                    COMMENT
New XYZ position is based on association with SCEC monument COMMENT
E1F1O6I8+0011. Position of that monument is believed to be  COMMENT
valid to within 1 m horizontally; vertical accuracy         COMMENT
should be no worse than 3-times this value.                 COMMENT
                                                            COMMENT
Revised Rinex header created by UCSD GPS archive for        COMMENT
GSAC on 19-Apr-1999 (1999:109) 06:30:06 GMT                 COMMENT
For assistance contact dagnew@ucsd.edu or hjohnson@ucsd.edu COMMENT
                                                            COMMENT
KETTLE 1942                                                 MARKER NAME
WGV CALIF DEPT TRANSPORTATION                               OBSERVER / AGENCY
577 ASHTECH L-XII3 6A                                       REC # / TYPE / VERS
631 ASHTECH GEODETIC L                                      ANT # / TYPE
 -2592391.0000 -4472434.0000  3723767.0000                  APPROX POSITION XYZ
        2.2200        0.0000        0.0000                  ANTENNA: DELTA H/E/N
     1     2     0                                          WAVELENGTH FACT L1/2
     3    C1    L1    L2                                    # / TYPES OF OBSERV
     0                                                      INTERVAL
  1991     5    13    18    20   45.000000                  TIME OF FIRST OBS
  1991     5    14     0    24    0.000000                  TIME OF LAST OBS
     0                                                      # OF SATELLITES
                                                            END OF HEADER
 91  5 13 18 20 45.0000000  0  1 11
  25130126.771           0.688 2         0.279 1
 91  5 13 18 21  0.0000000  0  1 11
  25123527.448      -34628.427 2    -26983.402 1
 91  5 13 18 21 15.0000000  0  2 02 11
  32887155.600           0.716 2         0.273 1
  32911512.536        -982.017 2      -765.657 1
 91  5 13 18 21 30.0000000  0  2 02 11
  32878030.515      -47869.760 2    -37301.208 1
  32904852.642      -35992.305 2    -28046.468 1
 91  5 13 18 21 45.0000000  0  4 18 02 19 11
  28930620.049           0.933 3         0.424 3
  32569111.474      -95880.543 2    -74712.037 1
  29172610.124           0.711 3         0.289 2
  32598373.613      -71106.113 2    -55407.746 1
 91  5 13 18 22  0.0000000  0  4 18 02 19 11
  28933767.266       16527.165 4     12877.983 3
  32559958.512     -143977.239 2   -112189.798 1
  29172227.283       -2036.806 3     -1587.388 3
  32591684.648     -106270.482 2    -82808.496 1
 91  5 13 18 22 15.0000000  0  4 18 02 19 11
  20542737.361      -33220.636 4    -25886.755 3
  24156598.135        -589.705 2      -459.135 1
  20777643.040        3429.895 3      2672.300 3
  24190790.965       -1387.987 2     -1081.653 1
 91  5 13 18 22 30.0000000  0  4 18 02 19 11
  20545900.466      -16593.439 4    -12930.519 3
  24147425.681      -48733.133 2    -37973.309 1
  20777255.706        1373.238 3      1069.716 3
  24184109.189      -36526.098 2    -28461.910 1
 91  5 13 18 22 45.0000000  0  4 18 02 19 11
  20549076.467         106.545 4        82.433 3
  24138267.624      -96876.818 2    -75487.748 1
  20776865.371        -670.383 3      -522.720 2
  24177427.719      -71627.866 2    -55813.887 1
 91  5 13 18 23  0.0000000  0  4 18 02 19 11
  20552271.960       16896.535 4     13165.518 3
  24129104.166     -145003.387 2   -112988.788 1
  20776488.237       -2683.619 3     -2091.475 3
  24170751.335     -106675.525 2    -83123.714 1
 91  5 13 18 23 15.0000000  0  4 18 02 19 11
  20555487.232       33790.175 3     26329.369 3
  24119957.198     -193099.177 2   -150465.867 1
  20776107.203       -4653.240 3     -3626.246 3
  24164099.242     -141655.424 2   -110380.767 1
 91  5 13 18 23 30.0000000  0  4 18 02 19 11
  20558722.895       50796.536 4     39581.061 3
  24110809.035     -241154.811 2   -187911.652 1
  20775745.948       -6570.287 3     -5120.054 3
  24157463.937     -176557.941 2   -137577.456 1
 91  5 13 18 23 45.0000000  0  4 18 02 19 11
  20561986.130       67939.056 4     52938.847 3
  24101682.754     -289147.150 2   -225308.104 1
  20775393.096       -8411.664 3     -6554.904 2
  24150835.524     -211359.436 2   -164695.525 1
 91  5 13 18 24  0.0000000  0  4 18 02 19 11
  20565277.555       85231.255 4     66413.271 3
  24092564.265     -337062.319 2   -262644.418 1
  20775061.228      -10163.738 3     -7920.155 3
  24144234.996     -246045.834 2   -191723.900 1
 91  5 13 18 24 15.0000000  0  4 18 02 19 11
  20568596.857      102680.242 4     80009.854 3
  24083459.570     -384892.712 2   -299914.704 1
  20774744.646      -11819.090 3     -9210.035 3
  24137656.046     -280609.587 2   -218656.658 1
 91  5 13 18 24 30.0000000  0  4 18 02 19 11
  20571950.038      120298.526 4     93738.367 3
  24074377.953     -432625.758 2   -337109.097 1
  20774450.846      -13365.231 3    -10414.816 3
  24131106.482     -315037.763 2   -245483.749 1
 91  5 13 18 24 45.0000000  0  5 16 18 02 19 11
  24591783.165           0.896 2         0.395 1
  20575336.794      138095.029 4    107605.751 3
  24065321.229     -480252.138 2   -374220.472 1
  20774179.835      -14793.271 3    -11527.570 3
  24124581.802     -349320.928 2   -272197.901 1
 91  5 13 18 25  0.0000000  0  5 16 18 02 19 11
  24585133.768      -34919.525 2    -27210.221 1
  20578757.420      156080.833 4    121620.647 3
  24056276.188     -527760.893 2   -411240.093 1
  20773931.606      -16092.498 3    -12539.965 2
  24118089.798     -383448.035 2   -298790.424 1
 91  5 13 18 25 15.0000000  0  5 16 18 02 19 11
  24578522.439      -69671.748 2    -54289.806 1
  20582216.429      174246.207 3    135775.460 3
  24047250.935     -575161.446 2   -448175.424 1
  20773706.760      -17272.493 3    -13459.437 3
  24111619.972     -417428.081 2   -325268.344 1
 91  5 13 18 25 30.0000000  0  5 16 18 02 19 11
  24571941.997     -104257.053 2    -81239.335 1
  20585706.010      192589.775 3    150069.127 3
  24038256.561     -622455.050 2   -485027.444 1
  20773507.696      -18334.767 3    -14287.178 3
  24105182.229     -451262.211 2   -351632.583 1
 91  5 13 18 25 45.0000000  0  5 16 18 02 19 11
  24565393.628     -138662.767 2   -108048.910 1
  20589232.472      211123.590 3    164511.036 3
  24029277.176     -669629.371 2   -521786.535 1
  20773326.929      -19267.128 3    -15013.685 3
  24098775.068     -484937.846 2   -377873.288 1
 91  5 13 18 26  0.0000000  0  5 16 18 02 19 11
  24558880.038     -172872.770 2   -134706.004 1
  20592798.503      229863.784 3    179113.761 3
  24020324.176     -716668.072 2   -558439.946 1
  20773180.627      -20053.535 3    -15626.472 3
  24092403.574     -518438.433 2   -403977.579 1
 91  5 13 18 26 15.0000000  0  5 16 18 02 19 11
  24552415.317     -206882.183 2   -161206.748 1
  20596404.703      248814.751 3    193880.726 3
  24011404.750     -763566.603 2   -594984.098 1
  20773054.409      -20689.764 3    -16122.226 3
  24086058.466     -551759.234 2   -429941.845 1
 91  5 13 18 26 30.0000000  0  5 16 18 02 19 11
  24545979.668     -240695.399 2   -187554.617 1
  20600052.279      267972.105 4    208808.509 3
  24002503.909     -810328.801 2   -631422.051 1
  20772967.778      -21179.877 3    -16504.134 3
  24079753.833     -584904.016 2   -455768.907 1
 91  5 13 18 26 45.0000000  0  5 16 18 02 19 11
  24539586.301     -274288.479 2   -213730.993 1
  20603740.025      287359.391 4    223915.468 3
  23993639.949     -856931.257 2   -667735.518 1
  20772901.223      -21500.639 3    -16754.080 3
  24073477.976     -617849.202 2   -481440.435 1
 91  5 13 18 27  0.0000000  0  5 16 18 02 19 11
  24533235.198     -307662.539 2   -239736.695 1
  20607472.443      306974.913 4    239200.262 3
  23984799.965     -903375.630 2   -703925.832 1
  20772879.933      -21653.874 3    -16873.476 2
  24067255.184     -650595.893 2   -506957.262 1
 91  5 13 18 27 15.0000000  0  5 16 18 02 19 11
  24526926.360     -340808.332 2   -265564.534 1
  20611248.932      326828.166 4    254670.314 3
  23975990.868     -949652.198 2   -739985.385 1
  20772873.643      -21630.290 3    -16855.095 2
  24061057.277     -683134.405 2   -532311.931 1
 91  5 13 18 27 30.0000000  0  5 16 18 02 19 11
  24520663.398     -373731.058 2   -291218.515 1
  20615073.383      346913.709 4    270321.364 3
  23967215.041     -995765.957 2   -775918.043 1
  20772913.508      -21435.061 3    -16702.964 2
  24054907.035     -715469.644 2   -557508.152 1
 91  5 13 18 27 45.0000000  0  5 16 18 02 19 11
  24514440.005     -406426.715 2   -316695.541 1
  20618941.302      367234.757 4    286155.930 3
  23958468.599    -1041713.556 2   -811721.224 1
  20772982.767      -21064.866 3    -16414.503 3
  24048791.571     -747597.828 2   -582543.068 1
 91  5 13 18 28  0.0000000  0  5 16 18 02 19 11
  24508257.384     -438895.013 2   -341995.518 1
  20622850.901      387791.324 3    302174.019 3
  23949758.131    -1087494.821 2   -847394.807 1
  20773086.492      -20519.673 3    -15989.677 3
  24042714.472     -779518.553 2   -607416.323 1
 91  5 13 18 28 15.0000000  0  5 16 18 02 19 11
  24502132.628     -471131.268 2   -367114.613 1
  20626810.556      408588.315 4    318379.445 3
  23941082.432    -1133104.620 2   -882934.822 1
  20773224.697      -19794.733 3    -15424.790 3
  24036683.851     -811226.714 2   -632123.940 1
 91  5 13 18 28 30.0000000  0  5 16 18 02 19 11
  24496039.945     -503139.319 2   -392055.854 1
  20630811.882      429621.304 4    334768.758 3
  23932431.321    -1178547.048 2   -918344.366 1
  20773398.275      -18894.468 3    -14723.289 2
  24030689.797     -842726.262 2   -656668.996 1
 91  5 13 18 28 45.0000000  0  5 16 18 02 19 11
  24489985.636     -534912.526 2   -416814.125 1
  20634859.687      450896.442 4    351346.769 3
  23923820.083    -1223815.574 2   -953618.425 1
  20773602.137      -17812.583 3    -13880.248 3
  24024740.722     -874010.374 2   -681046.210 1
 91  5 13 18 29  0.0000000  0  5 16 18 02 19 11
  24483988.886     -566459.071 2   -441395.752 1
  20638953.648      472405.432 4    368106.999 3
  23915235.824    -1268918.648 2   -988763.596 1
  20773842.269      -16557.606 3    -12902.339 2
  24018825.813     -905087.113 2   -705261.794 1
 91  5 13 18 29 15.0000000  0  5 16 18 02 19 11
  24478028.415     -597767.076 2   -465791.600 1
  20643090.789      494159.800 3    385058.441 3
  23906689.344    -1313844.624 2  -1023770.744 1
  20774115.383      -15118.247 3    -11780.769 3
  24012948.981     -935944.641 2   -729306.635 1
 91  5 13 18 29 30.0000000  0  5 16 18 02 19 11
  24472115.610     -628846.105 2   -490008.902 1
  20647277.690      516149.914 3    402193.580 3
  23898167.443    -1358602.928 2  -1058647.207 2
  20774425.063      -13504.131 3    -10523.008 2
  24007118.916     -966592.248 2   -753187.856 1
 91  5 13 18 29 45.0000000  0  5 16 18 02 19 11
  24466245.967     -659690.731 2   -514043.697 1
  20651507.457      538380.783 4    419516.320 3
  23889690.215    -1403188.169 2  -1093388.839 1
  20774763.833      -11710.033 3     -9125.011 3
  24001327.223     -997024.276 2   -776901.097 1
 91  5 13 18 30  0.0000000  0  5 16 18 02 19 11
  24460420.701     -690291.666 2   -537888.434 1
  20655786.093      560861.439 4    437033.683 3
  23881236.963    -1447590.972 2  -1127988.297 1
  20775141.865       -9726.963 3     -7579.766 3
  23995581.408    -1027231.430 2   -800439.109 1
 91  5 13 18 30 15.0000000  0  5 16 18 02 19 11
  24454642.201     -720655.450 2   -561548.521 1
  20660111.505      583585.278 4    454740.549 3
  23872813.996    -1491818.031 2  -1162450.812 1
  20775554.083       -7561.488 3     -5892.378 3
  23989870.658    -1057219.828 2   -823806.618 1
 91  5 13 18 30 30.0000000  0  5 16 18 02 19 11
  24448909.568     -750778.088 2   -585020.594 1
  20664481.275      606555.803 4    472639.664 3
  23864437.795    -1535865.465 2  -1196773.362 1
  20775999.579       -5210.123 3     -4060.134 3
  23984211.474    -1086985.442 2   -847000.586 1
 91  5 13 18 30 45.0000000  0  5 16 18 02 19 11
  24443223.406     -780662.206 2   -608306.833 1
  20668897.820      629769.935 4    490728.566 3
  23856087.674    -1579735.957 2  -1230958.073 1
  20776481.937       -2675.805 3     -2085.339 2
  23978586.772    -1116530.900 2   -870022.925 1
 91  5 13 18 31  0.0000000  0  5 16 18 02 19 11
  24437582.510     -810308.546 2   -631407.790 1
  20673361.429      653226.721 4    509006.569 3
  23847772.331    -1623430.345 2  -1265005.519 1
  20776999.083          40.216 3        31.043 3
  23973003.731    -1145857.000 2   -892874.407
 91  5 13 18 31 15.0000000  0  5 16 18 02 19 11
  24431987.490     -839713.528 2   -654320.696 1
  20677870.609      676929.552 4    527476.292 3
  23839499.558    -1666945.168 2  -1298913.041 1
  20777551.304        2941.449 3      2291.743 3
  23967467.170    -1174959.896 2   -915551.934 1
 91  5 13 18 31 30.0000000  0  5 16 18 02 19 11
  24426440.729     -868880.017 2   -677047.715 1
  20682429.548      700875.531 4    546135.475 3
  23831244.174    -1710283.232 2  -1332682.831 1
  20778137.998        6024.850 3      4694.390 2
  23961975.866    -1203842.089 2   -938057.521 1
 91  5 13 18 31 45.0000000  0  5 16 18 02 19 11
  24420935.639     -897803.736 2   -699585.621 1
  20687031.066      725068.710 4    564987.296 3
  23823039.152    -1753440.243 2  -1366311.587 1
  20778762.759        9294.541 3      7242.214 3
  23956518.746    -1232499.185 2   -960387.617 1
 91  5 13 18 32  0.0000000  0  5 16 18 02 19 11
  24415477.612     -926483.816 2   -721933.641 1
  20691682.945      749509.101 3    584031.743 3
  23814856.614    -1796415.741 2  -1399798.875 1
  20779419.908       12750.734 3      9935.348 3
  23951105.095    -1260930.535 2   -982541.907 1
 91  5 13 18 32 15.0000000  0  5 16 18 02 19 11
  24410067.862     -954924.461 2   -744095.106 1
  20696380.997      774192.489 4    603265.538 3
  23806711.855    -1839213.717 2  -1433147.825 1
  20780109.131       16389.343 3     12770.624 3
  23945740.009    -1289139.952 2  -1004523.199 1
 91  5 13 18 32 30.0000000  0  5 16 18 02 19 11
  24404691.685     -983125.532 2   -766069.873 1
  20701125.807      799118.650 4    622688.502 3
  23798598.874    -1881834.470 2  -1466358.695 1
  20780837.329       20209.787 3     15747.594 3
  23940412.998    -1317127.523 2  -1026331.627 1
 91  5 13 18 32 45.0000000  0  5 16 18 02 19 11
  24399373.365    -1011081.788 2   -787853.925 1
  20705914.391      824292.953 4    642304.829 3
  23790517.364    -1924272.615 2  -1499427.272 1
  20781600.898       24217.213 3     18870.266 2
  23935137.850    -1344887.532 2  -1047962.741 1
 91  5 13 18 33  0.0000000  0  5 16 18 02 19 11
  24394098.513    -1038835.365 2   -809479.961 1
  20710744.952      849672.775 3    662081.301 3
  23782475.737    -1966570.155 2  -1532386.298 1
  20782394.150       28369.296 3     22105.652 3
  23929886.381    -1372461.838 2  -1069449.207 1
 91  5 13 18 33 15.0000000  0  5 16 18 02 19 11
  24388862.645    -1066352.739 2   -830922.016 1
  20715621.075      875290.970 3    682043.521 3
  23774458.984    -2008693.833 2  -1565209.830 1
  20783213.778       32699.001 3     25479.461 3
  23924678.992    -1399816.973 2  -1090764.824 1
 91  5 13 18 33 30.0000000  0  5 16 18 02 19 11
  24383669.338    -1093629.192 2   -852176.295 1
  20720541.268      901152.387 4    702195.256 3
  23766478.206    -2050638.822 2  -1597894.136 1
  20784072.686       37210.857 3     28995.181 2
  23919515.368    -1426948.078 2  -1111905.852 1
 91  5 13 18 33 45.0000000  0  5 16 18 02 19 11
  24378521.602    -1120667.164 2   -873244.756 1
  20725505.829      927254.503 4    722534.549 3
  23758531.612    -2092407.560 2  -1630441.078 1
  20784964.567       41902.486 3     32651.009 2
  23914393.109    -1453857.322 2  -1132874.069 1
 91  5 13 18 34  0.0000000  0  5 16 18 02 19 11
  24373425.127    -1147462.944 2   -894124.521 1
  20730522.854      953600.350 4    743063.774 3
  23750611.997    -2133996.650 2  -1662848.050 1
  20785891.828       46777.019 3     36449.351 3
  23909318.525    -1480541.168 2  -1153666.646 1
 91  5 13 18 34 15.0000000  0  5 16 18 02 19 11
  24368371.832    -1174021.878 2   -914819.662 1
  20735577.955      980184.260 4    763778.499 3
  23742740.640    -2175411.391 2  -1695119.186 1
  20786852.061       51828.845 3     40385.830 2
  23904284.704    -1507004.704 2  -1174287.504 1
 91  5 13 18 34 30.0000000  0  5 16 18 02 19 11
  24363356.595    -1200339.058 2   -935326.512 1
  20740685.521     1007011.170 3    784682.573 3
  23734888.478    -2216646.808 2  -1727250.567 1
  20787852.168       57062.864 3     44464.288 2
  23899283.873    -1533242.645 2  -1194732.607 1
 91  5 13 18 34 45.0000000  0  5 16 18 02 19 11
  24358397.130    -1226421.838 2   -955650.678 1
  20745834.757     1034073.324 3    805769.946 3
  23727071.688    -2257710.604 2  -1759248.218 1
  20788878.363       62471.037 3     48678.456 2
  23894339.092    -1559262.538 2  -1215007.820 1
 91  5 13 18 35  0.0000000  0  5 16 18 02 19 11
  24353477.242    -1252266.558 2   -975789.353 1
  20751031.057     1061374.134 4    827043.294 3
  23719285.776    -2298598.933 2  -1791109.147 1
  20789942.625       68057.200 3     53031.314 3
  23889429.395    -1585060.259 2  -1235109.862 1
 91  5 13 18 35 15.0000000  0  5 16 18 02 19 11
  24348609.207    -1277880.536 2   -995748.192 1
  20756269.629     1088905.708 4    848496.452 3
  23711543.341    -2339319.354 2  -1822839.227 1
  20791037.766       73813.486 3     57516.718 3
  23884561.665    -1610643.280 2  -1255044.682 1
 91  5 13 18 35 30.0000000  0  5 16 18 02 19 11
  24343772.958    -1303264.285 2  -1015527.676 1
  20761551.679     1116667.137 3    870128.722 3
  23703824.883    -2379872.572 2  -1854439.009 1
  20792171.882       79738.900 3     62133.933 3
  23879731.105    -1636012.109 2  -1274812.569 1
 91  5 13 18 35 45.0000000  0  5 16 18 02 19 11
  24338990.071    -1328422.230 2  -1035131.143 1
  20766877.791     1144654.407 3    891936.972 3
  23696141.805    -2420262.681 2  -1885911.741 1
  20793326.380       85829.198 3     66879.614 2
  23874944.022    -1661170.720 2  -1294416.593 1
 91  5 13 18 36  0.0000000  0  5 16 18 02 19 11
  24334243.751    -1353353.016 2  -1054557.675 1
  20772247.075     1172868.259 3    913921.764 3
  23688487.197    -2460488.701 2  -1917256.573 1
  20794518.055       92085.301 3     71754.505 2
  23870197.702    -1686117.775 2  -1313855.852 1
 91  5 13 18 36 15.0000000  0  5 16 18 02 19 11
  24329540.307    -1378037.876 2  -1073792.592 1
  20777662.227     1201326.960 3    936097.365 3
  23680867.673    -2500531.984 2  -1948459.024 1
  20795739.108       98525.669 3     76772.964 3
  23865494.563    -1710834.368 2  -1333115.465 1
 91  5 13 18 36 30.0000000  0  5 16 18 02 19 11
  24324900.120    -1402472.184 2  -1092832.198 1
  20783124.738     1230034.859 3    958467.151 3
  23673279.926    -2540387.808 2  -1979515.408 1
  20797007.835      105154.483 3     81938.275 3
  23860841.183    -1735315.732 2  -1352191.845 1
 91  5 13 18 36 45.0000000  0  5 16 18 02 19 11
  24320291.412    -1426683.082 2  -1111697.767 1
  20788630.133     1258964.726 3    981009.897 3
  23665726.355    -2580083.336 2  -2010446.833 1
  20798294.544      111944.407 3     87229.128 3
  23856214.188    -1759588.918 2  -1371105.940 1
 91  5 13 18 37  0.0000000  0  5 16 18 02 19 11
  24315727.971    -1450668.135 2  -1130387.419 1
  20794177.793     1288118.637 4   1003727.216 3
  23658204.866    -2619616.126 2  -2041251.532 1
  20799620.525      118897.714 3     92647.289 2
  23851638.156    -1783651.224 2  -1389855.785 1
 91  5 13 18 37 15.0000000  0  5 16 18 02 19 11
  24311205.599    -1474429.715 2  -1148902.810 1
  20799768.023     1317494.026 3   1026617.113 3
  23650707.956    -2658988.824 2  -2071931.443 1
  20800972.288      126011.707 3     98190.667 3
  23847094.800    -1807505.044 2  -1408443.140 1
 91  5 13 18 37 30.0000000  0  5 16 18 02 19 11
  24306725.508    -1497963.499 2  -1167240.760 1
  20805401.424     1347094.747 3   1049682.597 3
  23643251.216    -2698197.028 2  -2102483.181 1
  20802354.328      133290.488 3    103862.437 2
  23842601.814    -1831145.792 2  -1426864.441 1
 91  5 13 18 37 45.0000000  0  5 16 18 02 19 11
  24302290.073    -1521275.739 2  -1185406.069 1
  20811075.895     1376914.654 3   1072918.876 3
  23635819.666    -2737246.772 2  -2132911.440 1
  20803770.850      140727.783 3    109657.718 3
  23838141.198    -1854579.322 2  -1445124.293 1
 91  5 13 18 38  0.0000000  0  5 16 18 02 19 11
  24297891.519    -1544370.837 2  -1203402.171 1
  20816789.035     1406948.946 3   1096322.204 3
  23628419.290    -2776142.623 2  -2163219.779 1
  20805222.446      148318.915 3    115572.898 2
  23833724.356    -1877810.174 2  -1463226.207 1
 91  5 13 18 38 15.0000000  0  5 16 18 02 19 11
  24293538.231    -1567242.688 2  -1221224.344 1
  20822549.553     1437203.285 3   1119897.000 3
  23621048.292    -2814878.922 2  -2193403.809 2
  20806687.531      156069.558 3    121612.366 3
  23829340.792    -1900832.378 2  -1481165.565 1
 91  5 13 18 38 30.0000000  0  5 16 18 02 19 11
  24289237.712    -1589893.738 2  -1238874.406 1
  20828343.636     1467674.856 3   1143641.066 3
  23613708.172    -2853457.912 2  -2223465.225 1
  20808196.687      163977.149 3    127774.122 2
  23824995.600    -1923648.015 2  -1498943.957 1
 91  5 13 18 38 45.0000000  0  5 16 18 02 19 11
  24284967.163    -1612323.170 2  -1256351.799 1
  20834186.893     1498364.285 3   1167554.895 3
  23606394.733    -2891878.982 2  -2253403.606 1
  20809729.523      172042.072 3    134058.485 3
  23820694.479    -1946256.159 2  -1516560.641 1
 91  5 13 18 39  0.0000000  0  5 16 18 02 19 11
  24280737.693    -1634528.957 2  -1273654.945 1
  20840069.423     1529273.332 3   1191639.852 3
  23599116.675    -2930140.294 2  -2283217.496 1
  20811302.538      180265.923 3    140466.686 2
  23816431.426    -1968654.725 2  -1534014.035 1
 91  5 13 18 39 15.0000000  0  5 16 18 02 19 11
  24276557.685    -1656510.982 2  -1290783.706 1
  20845992.716     1560401.962 3   1215895.904 3
  23591858.693    -2968241.368 2  -2312906.552 1
  20812890.534      188648.865 3    146998.852 2
  23812210.951    -1990843.220 2  -1551303.732 1
 91  5 13 18 39 30.0000000  0  5 16 18 02 19 11
  24272414.855    -1678266.886 2  -1307736.289 1
  20851958.588     1591751.998 3   1240324.490 3
  23584641.789    -3006180.054 2  -2342469.046 1
  20814521.711      197192.775 3    153656.442 3
  23808028.544    -2012819.313 2  -1568427.947 1
 91  5 13 18 39 45.0000000  0  5 16 18 02 19 11
  24268319.089    -1699800.130 2  -1324515.334 1
  20857964.935     1623320.038 3   1264922.940 3
  23577451.270    -3043959.813 2  -2371907.720 1
  20816171.768      205894.379 3    160436.916 2
  23803885.714    -2034586.053 2  -1585389.018 1
 91  5 13 18 40  0.0000000  0  5 16 18 02 19 11
  24264264.400    -1721112.256 2  -1341122.146 1
  20864012.945     1655104.078 3   1289689.714 3
  23570296.122    -3081582.340 2  -2401223.861 1
  20817861.098      214751.678 3    167338.716 3
  23799785.454    -2056145.036 2  -1602188.180 1
 91  5 13 18 40 15.0000000  0  5 16 18 02 19 11
  24260244.480    -1742201.578 2  -1357555.272 1
  20870103.830     1687105.501 3   1314625.868 3
  23563165.562    -3119045.903 2  -2430416.134 1
  20819572.013      223766.166 3    174362.990 3
  23795719.667    -2077494.243 2  -1618823.948 1
 91  5 13 18 40 30.0000000  0  5 16 18 02 19 11
  24256277.025    -1763069.832 2  -1373816.211 1
  20876234.886     1719322.156 3   1339729.741 3
  23556065.574    -3156352.556 2  -2459486.142 1
  20821320.996      232935.663 3    181508.052 2
  23791698.246    -2098635.569 2  -1635297.644 1
 91  5 13 18 40 45.0000000  0  5 16 18 02 19 11
  24252352.741    -1783710.636 2  -1389899.869 1
  20882409.113     1751760.081 3   1365006.029 3
  23548998.271    -3193495.906 2  -2488428.887 1
  20823092.472      242266.094 3    188778.514 3
  23787712.809    -2119562.553 2  -1651604.326 1
 91  5 13 18 41  0.0000000  0  5 16 18 02 19 11
  24248463.838    -1804129.414 2  -1405810.548 1
  20888619.907     1784413.532 3   1390450.261 3
  23541959.141    -3230481.344 2  -2517248.586 1
  20824901.118      251751.983 3    196170.124 2
  23783775.036    -2140280.566 2  -1667748.234 1
 91  5 13 18 41 15.0000000  0  5 16 18 02 19 11
  24244619.599    -1824329.025 2  -1421550.377 1
  20894872.983     1817279.867 3   1416060.382 3
  23534949.092    -3267311.653 2  -2545947.427 1
  20826732.256      261390.406 3    203680.583 3
  23779867.540    -2160792.150 2  -1683731.227 1
 91  5 13 18 41 30.0000000  0  5 16 18 02 19 11
  24240814.335    -1844310.986 2  -1437120.727 1
  20901167.425     1850356.841 3   1441834.621 3
  23527971.422    -3303988.640 2  -2574526.794 1
  20828596.367      271179.438 3    211308.407 3
  23776002.020    -2181098.762 2  -1699554.606 1
 91  5 13 18 41 45.0000000  0  5 16 18 02 19 11
  24237056.439    -1864072.437 2  -1452519.160 1
  20907501.741     1883647.269 3   1467775.193 3
  23521019.840    -3340509.340 2  -2602984.418 1
  20830489.253      281121.801 3    219055.701 3
  23772175.763    -2201197.183 2  -1715215.643 1
 91  5 13 18 42  0.0000000  0  5 16 18 02 19 11
  24233339.307    -1883615.604 2  -1467747.523 1
  20913879.525     1917148.631 3   1493880.149 2
  23514105.426    -3376876.089 2  -2631322.012 1
  20832410.924      291215.099 3    226920.609 2
  23768398.384    -2221089.772 2  -1730716.301 1
 91  5 13 18 42 15.0000000  0  5 16 18 02 19 11
  24229662.354    -1902943.131 2  -1482807.882 1
  20920295.080     1950858.250 3   1520147.357 3
  23507211.692    -3413091.316 2  -2659541.557 1
  20834355.079      301456.506 3    234900.932 3
  23764652.477    -2240778.731 2  -1746058.347 1
 91  5 13 18 42 30.0000000  0  5 16 18 02 19 11
  24226021.375    -1922052.553 2  -1497698.256 1
  20926748.712     1984777.940 3   1546578.266 3
  23500345.851    -3449152.680 2  -2687641.236 1
  20836337.903      311848.160 3    242998.329 3
  23760939.542    -2260261.544 2  -1761239.740 1
 91  5 13 18 42 45.0000000  0  5 16 18 02 19 11
  24222432.860    -1940945.738 2  -1512420.127 1
  20933243.421     2018905.496 3   1573171.148 3
  23493512.084    -3485062.263 2  -2715622.606 1
  20838338.719      322387.972 3    251211.163 2
  23757273.984    -2279539.888 2  -1776261.817 1
 91  5 13 18 43  0.0000000  0  5 16 18 02 19 11
  24218874.324    -1959628.908 2  -1526978.369 1
  20939776.791     2053234.428 3   1599920.940 3
  23486707.991    -3520826.280 2  -2743490.563 1
  20840375.508      333069.560 3    259534.484 2
  23753642.000    -2298620.008 2  -1791129.373 1
 91  5 13 18 43 15.0000000  0  5 16 18 02 19 11
  24215350.863    -1978101.685 2  -1541372.658 1
  20946347.644     2087764.895 3   1626827.787 3
  23479931.784    -3556444.411 2  -2771244.820 1
  20842433.884      343892.876 3    267968.240 2
  23750051.382    -2317501.348 2  -1805842.098 1
 91  5 13 18 43 30.0000000  0  5 16 18 02 19 11
  24211879.561    -1996362.257 2  -1555601.581 1
  20952956.871     2122498.748 3   1653893.106 3
  23473177.755    -3591914.789 2  -2798883.980 1
  20844520.441      354859.789 3    276513.888 3
  23746496.441    -2336181.803 2  -1820398.295 1
 91  5 13 18 43 45.0000000  0  5 16 18 02 19 11
  24208446.345    -2014409.572 2  -1569664.359 1
  20959604.470     2157436.305 3   1681117.161 3
  23466460.905    -3627236.673 2  -2826407.424 1
  20846635.172      365970.678 3    285171.728 3
  23742979.577    -2354660.514 2  -1834797.276 1
 91  5 13 18 44  0.0000000  0  5 16 18 02 19 11
  24205051.789    -2032247.352 2  -1583563.861 1
  20966292.240     2192573.718 3   1708496.941 3
  23459761.444    -3662413.637 2  -2853817.932 1
  20848776.296      377221.749 3    293938.804 3
  23739497.787    -2372941.002 2  -1849041.766 1
 91  5 13 18 44 15.0000000  0  5 16 18 02 19 11
  24201701.608    -2049875.551 2  -1597300.100 1
  20973015.687     2227910.729 3   1736032.257 3
  23453097.956    -3697445.688 2  -2881115.535 1
  20850943.491      388612.804 3    302814.954 3
  23736055.575    -2391023.002 2  -1863131.604 1
 91  5 13 18 44 30.0000000  0  5 16 18 02 19 11
  24198388.301    -2067293.452 2  -1610872.399 1
  20979779.600     2263447.484 3   1763723.225 3
  23446456.953    -3732332.332 2  -2908299.823 1
  20853137.071      400144.191 3    311800.451 3
  23732653.829    -2408905.899 2  -1877066.294 1
 91  5 13 18 44 45.0000000  0  5 16 18 02 19 11
  24195114.570    -2084506.113 2  -1624284.826 1
  20986578.895     2299178.867 3   1791565.838 2
  23439849.532    -3767078.258 2  -2935374.483 2
  20855358.536      411810.956 3    320891.434 3
  23729293.755    -2426594.169 2  -1890849.289 1
 91  5 13 18 45  0.0000000  0  5 16 18 02 19 11
  24191869.615    -2101514.514 2  -1637538.016 1
  20993413.560     2335104.087 3   1819559.500 3
  23433265.190    -3801684.405 2  -2962340.198 1
  20857602.485      423612.179 3    330087.203 2
  23725964.855    -2444088.565 2  -1904481.319 1
 91  5 13 18 45 15.0000000  0  5 16 18 02 19 11
  24188677.726    -2118320.755 2  -1650633.753 1
  21000285.404     2371220.570 3   1847702.190 3
  23426703.027    -3836153.167 2  -2989198.859 1
  20859870.115      435545.426 3    339385.838 3
  23722665.639    -2461391.327 2  -1917963.932 1
 91  5 13 18 45 30.0000000  0  5 16 18 02 19 11
  24185516.113    -2134923.948 2  -1663571.252 1
  21007196.222     2407528.802 3   1875994.302 3
  23420170.250    -3870483.576 2  -3015949.713 1
  20862174.914      447611.404 3    348787.899 3
  23719408.399    -2478501.178 2  -1931296.239 1
 91  5 13 18 45 45.0000000  0  5 16 18 02 19 11
  24182391.974    -2151322.067 2  -1676348.902 1
  21014141.513     2444030.315 3   1904437.020 3
  23413659.661    -3904674.036 2  -3042591.535 1
  20864492.913      459811.472 3    358294.446 3
  23716194.618    -2495416.309 2  -1944476.834 1
 91  5 13 18 46  0.0000000  0  5 16 18 02 19 11
  24179309.812    -2167520.493 2  -1688971.004 1
  21021122.482     2480719.389 3   1933025.885 3
  23407181.747    -3938729.831 2  -3069128.403 2
  20866838.484      472140.126 3    367901.200 3
  23713006.926    -2512141.942 2  -1957509.759 1
 91  5 13 18 46 15.0000000  0  5 16 18 02 19 11
  24176267.218    -2183518.480 2  -1701436.901 1
  21028141.221     2517596.953 3   1961761.626 3
  23400726.013    -3972650.068 2  -3095559.649 1
  20869206.549      484598.124 3    377608.734 3
  23709861.803    -2528676.824 2  -1970394.053 1
 91  5 13 18 46 30.0000000  0  5 16 18 02 19 11
  24173256.105    -2199318.838 2  -1713748.780 1
  21035193.238     2554659.603 3   1990641.589 3
  23394296.664    -4006437.576 2  -3121887.486 1
  20871603.685      497182.299 3    387414.586 2
  23706752.654    -2545023.835 2  -1983131.948 1
 91  5 13 18 46 45.0000000  0  5 16 18 02 19 11
  24170291.758    -2214922.736 2  -1725907.589 1
  21042280.932     2591905.796 3   2019664.585 3
  23387891.596    -4040093.649 2  -3148112.893 1
  20874019.720      509891.123 3    397317.568 3
  23703678.886    -2561184.188 2  -1995724.422 1
 91  5 13 18 47  0.0000000  0  5 16 18 02 19 11
  24167357.390    -2230330.426 2  -1737913.526 1
  21049403.997     2629335.185 3   2048830.322 3
  23381514.117    -4073618.643 2  -3174236.166 2
  20876465.726      522724.320 3    407317.467 2
  23700639.590    -2577157.966 2  -2008171.497 1
 91  5 13 18 47 15.0000000  0  5 16 18 02 19 11
  24164461.090    -2245543.461 2  -1749767.760 1
  21056560.044     2666945.831 3   2078137.299 3
  23375166.906    -4107014.248 2  -3200258.608 1
  20878926.721      535680.003 3    417412.807 3
  23697635.971    -2592946.616 2  -2020474.305 1
 91  5 13 18 47 30.0000000  0  5 16 18 02 19 11
  24161610.963    -2260559.710 2  -1761468.687 1
  21063752.369     2704739.924 3   2107587.223 3
  23368827.198    -4140278.104 2  -3226178.394 1
  20881420.689      548760.299 3    427605.246 3
  23694663.824    -2608547.485 2  -2032630.808 1
 91  5 13 18 47 45.0000000  0  5 16 18 02 19 11
  24158781.524    -2275387.215 2  -1773022.504 1
  21070978.565     2742708.981 3   2137173.485 3
  23362522.566    -4173418.348 2  -3252001.855 1
  20883930.257      561956.908 3    437888.323 3
  23691734.857    -2623968.669 2  -2044647.272 1
 91  5 13 18 48  0.0000000  0  5 16 18 02 19 11
  24156007.542    -2290023.909 2  -1784427.690 1
  21078236.844     2780854.570 3   2166897.303 3
  23356237.416    -4206432.977 2  -3277727.415 1
  20886470.101      575271.495 3    448263.332 3
  23688831.665    -2639208.146 2  -2056522.152 1
 91  5 13 18 48 15.0000000  0  5 16 18 02 19 11
  24153253.347    -2304468.828 2  -1795683.343 1
  21085529.595     2819177.322 3   2196759.172 3
  23349981.042    -4239321.276 2  -3303354.571 1
  20889018.331      588704.751 3    458730.807 3
  23685964.149    -2654264.872 2  -2068254.645 1
 91  5 13 18 48 30.0000000  0  5 16 18 02 19 11
  24150541.427    -2318724.885 2  -1806791.915 1
  21092855.319     2857674.326 3   2226756.816 3
  23343746.262    -4272085.953 2  -3328885.406 1
  20891600.448      602253.946 3    469288.617 2
  23683131.708    -2669141.359 2  -2079846.698 1
 91  5 13 18 48 45.0000000  0  5 16 18 02 19 11
  24147866.683    -2332787.833 2  -1817749.983 1
  21100214.922     2896349.550 3   2256893.329 3
  23337539.359    -4304722.736 2  -3354316.555 1
  20894197.546      615923.073 3    479939.893 2
  23680334.648    -2683833.253 2  -2091294.865 1
 91  5 13 18 49  0.0000000  0  5 16 18 02 19 11
  24145223.412    -2346661.868 2  -1828560.861 1
  21107609.303     2935198.411 3   2287165.154 2
  23331349.244    -4337235.738 2  -3379651.266 2
  20896823.132      629707.756 3    490681.206 2
  23677575.358    -2698344.546 2  -2102602.315 1
 91  5 13 18 49 15.0000000  0  5 16 18 02 19 11
  24142613.417    -2360349.342 2  -1839226.338 1
  21115030.671     2974218.257 3   2317570.216 3
  23325184.012    -4369627.526 2  -3404891.504 1
  20899465.200      643605.238 3    501510.415 3
  23674847.243    -2712677.537 2  -2113770.838 1
 91  5 13 18 49 30.0000000  0  5 16 18 02 19 11
  24140046.290    -2373847.030 2  -1849743.991 1
  21122489.505     3013412.052 3   2348110.816 2
  23319041.265    -4401895.035 2  -3430034.910 1
  20902139.053      657618.586 3    512429.915 2
  23672157.807    -2726828.957 2  -2124797.904 1
 91  5 13 18 49 45.0000000  0  5 16 18 02 19 11
  24137519.943    -2387153.157 2  -1860112.343 1
  21129985.211     3052781.097 3   2378787.966 2
  23312928.794    -4434036.607 2  -3455080.196 1
  20904821.291      671749.226 3    523440.808 3
  23669495.052    -2740796.951 2  -2135681.998 1
 91  5 13 18 50  0.0000000  0  5 16 18 02 19 11
  24135022.669    -2400278.052 2  -1870339.425 1
  21137504.606     3092314.914 3   2409593.517 2
  23306831.915    -4466062.377 2  -3480035.237 2
  20907533.518      685986.822 3    534535.040 2
  23666873.663    -2754591.479 2  -2146430.951 1
 91  5 13 18 50 15.0000000  0  5 16 18 02 19 11
  24132555.077    -2413216.459 2  -1880421.263 1
  21145062.679     3132018.712 3   2440531.522 2
  23300764.413    -4497966.881 2  -3504895.796 2
  20910261.624      700336.798 3    545716.833 3
  23664281.660    -2768206.979 2  -2157040.417 1
 91  5 13 18 50 30.0000000  0  5 16 18 02 19 11
  24130131.556    -2425967.503 2  -1890357.072 1
  21152649.528     3171893.351 3   2471602.651 2
  23294712.206    -4529749.258 2  -3529661.181 1
  20913020.616      714799.826 3    556986.735 2
  23661729.225    -2781642.360 2  -2167509.541 1
 91  5 13 18 50 45.0000000  0  6 16 18 02 19 06 11
  24127741.609    -2438531.160 2  -1900146.859 1
  21160272.647     3211938.284 3   2502806.467 3
  23288687.580    -4561409.605 2  -3554331.464 1
  20915785.900      729375.481 3    568344.402 2
  24662268.564           0.822 2         0.292 1
  23659204.371    -2794897.609 2  -2177838.274 1
 91  5 13 18 51  0.0000000  0  6 16 18 02 19 06 11
  24125382.244    -2450907.016 2  -1909790.289 1
  21167922.151     3252153.396 3   2534142.898 2
  23282686.930    -4592947.926 2  -3578906.671 1
  20918583.563      744063.595 3    579789.686 3
  24657997.126      -22422.153 2    -17471.946 1
  23656713.998    -2807972.546 2  -2188026.514 1
 91  5 13 18 51 15.0000000  0  6 16 18 02 19 06 11
  24123068.144    -2463096.247 2  -1919288.388 1
  21175610.027     3292537.123 3   2565610.720 2
  23276709.672    -4624365.331 2  -3603387.683 1
  20921398.614      758862.959 3    591321.681 2
  24653755.362      -44762.040 2    -34879.437 1
  23654261.693    -2820868.080 2  -2198074.989 1
 91  5 13 18 51 30.0000000  0  6 16 18 02 19 06 11
  24120782.532    -2475103.871 2  -1928644.915 1
  21183324.289     3333084.257 3   2597205.868 2
  23270751.591    -4655666.763 2  -3627778.282 1
  20924244.544      773768.425 3    602936.327 2
  24649510.597      -67023.978 2    -52226.279 1
  23651843.869    -2833589.192 2  -2207987.489 1
 91  5 13 18 51 45.0000000  0  6 16 18 02 19 06 11
  24118525.093    -2486926.611 2  -1937857.341 1
  21191070.623     3373798.041 3   2628930.881 2
  23264820.803    -4686848.878 2  -3652075.940 2
  20927093.475      788783.112 3    614636.084 3
  24645287.723      -89204.792 2    -69509.829 1
  23649455.719    -2846132.271 2  -2217761.320 1
 91  5 13 18 52  0.0000000  0  6 16 18 02 19 06 11
  24116314.727    -2498566.423 2  -1946927.282 1
  21198850.245     3414676.231 3   2660783.989 2
  23258907.090    -4717913.702 2  -3676282.174 1
  20929977.778      803905.119 3    626419.471 2
  24641078.338     -111306.557 2    -86731.810 1
  23647104.154    -2858499.007 2  -2227397.729 1
 91  5 13 18 52 15.0000000  0  6 16 18 02 19 06 11
  24114137.629    -2510032.078 2  -1955861.481 1
  21206660.735     3455709.584 3   2692758.005 2
  23253019.771    -4748870.219 2  -3700404.054 1
  20932866.278      819125.239 3    638279.309 3
  24636903.731     -133338.521 2   -103899.356 1
  23644778.058    -2870698.343 2  -2236903.686 1
 91  5 13 18 52 30.0000000  0  6 16 18 02 19 06 11
  24111985.720    -2521320.602 2  -1964657.675 1
  21214495.813     3496901.030 3   2724855.222 2
  23247145.635    -4779715.218 2  -3724438.992 1
  20935784.460      834446.486 3    650217.958 3
  24632708.131     -155297.809 2   -121010.318 1
  23642491.547    -2882727.015 2  -2246276.645 1
 91  5 13 18 52 45.0000000  0  6 16 18 02 19 06 11
  24109872.481    -2532433.595 2  -1973317.079 1
  21222364.465     3538248.387 3   2757073.928 2
  23241295.484    -4810450.388 2  -3748388.376 1
  20938719.430      849867.060 3    662233.991 2
  24628554.805     -177186.266 2   -138066.055 1
  23640237.406    -2894586.493 2  -2255517.751 1
 91  5 13 18 53  0.0000000  0  6 16 18 02 19 06 11
  24107785.627    -2543373.433 2  -1981841.594 1
  21230262.792     3579749.352 3   2789412.317 3
  23235471.422    -4841078.033 2  -3772253.962 1
  20941673.883      865384.243 3    674325.308 3
  24624412.577     -199006.374 2   -155068.576 1
  23638008.150    -2906278.926 2  -2264628.734 1
 91  5 13 18 53 15.0000000  0  6 16 18 02 19 06 11
  24105740.444    -2554138.424 2  -1990229.791 1
  21238186.613     3621405.340 3   2821871.507 2
  23229663.841    -4871596.429 2  -3796034.427 1
  20944639.730      880999.732 3    686493.224 2
  24620263.151     -220756.685 2   -172016.707 1
  23635817.266    -2917802.457 2  -2273608.091 1
 91  5 13 18 53 30.0000000  0  6 16 18 02 19 06 11
  24103728.234    -2564733.957 2  -1998486.033 1
  21246144.305     3663210.343 3   2854446.823 2
  23223872.751    -4902011.031 2  -3819734.011 1
  20947633.455      896707.945 3    698733.401 3
  24616137.701     -242442.726 2   -188914.681 1
  23633655.760    -2929162.225 2  -2282459.824 1
 91  5 13 18 53 45.0000000  0  6 16 18 02 19 06 11
  24101740.017    -2575157.697 2  -2006608.357 1
  21254128.076     3705166.612 3   2887140.002 2
  23218105.637    -4932319.621 2  -3843350.978 1
  20950637.074      912511.162 3    711047.592 3
  24612023.952     -264062.351 2   -205761.023 1
  23631520.935    -2940355.831 2  -2291182.104 1
 91  5 13 18 54  0.0000000  0  6 16 18 02 19 06 11
  24099788.367    -2585412.002 2  -2014598.660 1
  21262141.827     3747271.578 3   2919949.047 3
  23212363.119    -4962524.537 2  -3866887.184 1
  20953666.475      928406.851 3    723433.838 3
  24607920.088     -285618.167 2   -222557.514 1
  23629427.188    -2951385.322 2  -2299776.495 1
 91  5 13 18 54 15.0000000  0  6 16 18 02 19 06 11
  24097865.196    -2595497.732 2  -2022457.617 1
  21270180.758     3789524.113 3   2952873.083 2
  23206629.283    -4992626.724 2  -3890343.313 2
  20956705.474      944393.891 3    735891.269 3
  24603826.127     -307111.363 2   -239305.306 1
  23627352.628    -2962251.750 2  -2308243.820 1
 91  5 13 18 54 30.0000000  0  6 16 18 02 19 06 11
  24095984.595    -2605413.439 2  -2030184.048 1
  21278248.474     3831925.113 3   2985912.797 2
  23200924.231    -5022624.921 2  -3913718.441 1
  20959768.153      960473.225 3    748420.623 3
  24599743.850     -328540.794 2   -256003.381 1
  23625318.229    -2972953.593 2  -2316582.906 1
 91  5 13 18 54 45.0000000  0  6 16 18 02 19 06 11
  24094126.783    -2615164.335 2  -2037782.100 1
  21286346.169     3874469.380 3   3019064.156 2
  23195233.872    -5052524.085 2  -3937016.385 1
  20962839.531      976639.656 3    761017.843 2
  24595678.664     -349911.891 2   -272655.962 1
  23623310.224    -2983495.813 2  -2324797.611 1
 91  5 13 18 55  0.0010000  0  6 16 18 02 19 06 11
  24092307.340    -2624751.198 2  -2045252.328 1
  21294468.445     3917159.248 3   3052328.967 2
  23189559.998    -5082326.306 2  -3960238.807 1
  20965934.287      992894.123 3    773683.662 2
  24591628.167     -371226.134 2   -289264.319 1
  23621336.991    -2993878.955 2  -2332888.344 1
 91  5 13 18 55 15.0010000  0  6 16 18 02 19 06 11
  24090510.683    -2634170.771 2  -2052592.169 1
  21302621.606     3959990.913 3   3085704.273 2
  23183911.616    -5112025.574 2  -3983380.978 1
  20969043.130     1009236.171 3    786417.726 3
  24587572.579     -392478.993 2   -305824.801 1
  23619395.236    -3004099.473 2  -2340852.385 1
 91  5 13 18 55 30.0010000  0  6 16 18 02 19 06 11
  24088748.507    -2643419.695 2  -2059799.084 1
  21310799.642     4002970.653 3   3119194.963 3
  23178278.511    -5141619.983 2  -4006441.474 1
  20972172.068     1025670.701 3    799223.864 2
  24583551.761     -413668.210 2   -322335.680 1
  23617480.755    -3014154.112 2  -2348687.160 1
 91  5 13 18 55 45.0010000  0  6 16 18 02 19 06 11
  24087021.704    -2652502.013 2  -2066876.167 1
  21319004.062     4046094.118 3   3152797.639 2
  23172664.898    -5171113.970 2  -4029423.680 2
  20975315.690     1042193.305 3    812098.615 3
  24579524.652     -434798.209 2   -338800.405 1
  23615597.161    -3024046.903 2  -2356395.860 1
 91  5 13 18 56  0.0010000  0  6 16 18 02 19 06 11
  24085325.778    -2661417.476 2  -2073823.184 1
  21327236.962     4089361.692 3   3186512.616 3
  23167071.972    -5200506.962 2  -4052327.207 1
  20978478.498     1058804.610 3    825042.493 3
  24575514.322     -455868.506 2   -355218.672 1
  23613747.447    -3033777.141 2  -2363977.811 1
 91  5 13 18 56 15.0010000  0  6 16 18 02 19 06 11
  24083659.832    -2670170.709 2  -2080643.834 1
  21335499.544     4132768.579 3   3220336.145 2
  23161495.834    -5229803.369 2  -4075155.496 2
  20981653.905     1075499.796 3    838051.732 2
  24571514.191     -476883.998 2   -371594.132 1
  23611924.702    -3043349.220 2  -2371436.565 1
 91  5 13 18 56 30.0010000  0  6 16 18 02 19 06 11
  24082027.163    -2678758.862 2  -2087335.852 1
  21343782.508     4176316.994 3   3254269.951 2
  23155939.475    -5259000.515 2  -4097906.406 1
  20984849.695     1092281.202 3    851128.158 3
  24567534.154     -497842.177 2   -387925.047 1
  23610136.142    -3052760.425 2  -2378769.958 1
 91  5 13 18 56 45.0010000  0  6 16 18 02 19 06 11
  24080422.974    -2687182.355 2  -2093899.528 1
  21352097.851     4220006.500 3   3288313.707 2
  23150402.311    -5288098.741 2  -4120580.264 1
  20988054.776     1109148.601 3    864271.582 3
  24563561.900     -518743.401 2   -404211.493 1
  23608373.966    -3062010.788 2  -2385978.044 1
 91  5 13 18 57  0.0010000  0  6 16 18 02 19 06 11
  24078851.756    -2695437.618 2  -2100332.162 1
  21360441.376     4263839.863 3   3322469.556 2
  23144883.427    -5317095.081 2  -4143174.709 1
  20991284.436     1126104.907 3    877484.290 2
  24559580.955     -539584.896 2   -420451.503 1
  23606647.163    -3071097.192 2  -2393058.339 1
 91  5 13 18 57 15.0010000  0  6 16 18 02 19 06 11
  24077311.425    -2703528.551 2  -2106636.715 1
  21368808.284     4307813.158 3   3356734.449 2
  23139388.537    -5345992.836 2  -4165692.345 2
  20994525.491     1143146.511 3    890763.461 2
  24555626.692     -560370.309 2   -436647.703 1
  23604943.733    -3080022.877 2  -2400013.387 1
 91  5 13 18 57 30.0010000  0  6 16 18 02 19 06 11
  24075800.769    -2711455.063 2  -2112813.123 1
  21377202.170     4351926.282 3   3391108.290 2
  23133905.033    -5374792.076 2  -4188133.210 1
  20997788.132     1160273.338 3    904109.047 3
  24551693.117     -581099.853 2   -452800.409 1
  23603277.491    -3088787.772 2  -2406843.143 1
 91  5 13 18 57 45.0010000  0  6 16 18 02 19 06 11
  24074320.091    -2719216.431 2  -2118860.917 1
  21385622.738     4396179.813 3   3425591.537 2
  23128440.113    -5403491.960 2  -4210496.657 2
  21001058.870     1177485.939 3    917521.468 3
  24547758.040     -601772.925 2   -468909.079 1
  23601640.023    -3097390.935 2  -2413546.892 1
 91  5 13 18 58  0.0010000  0  6 16 18 02 19 06 11
  24072882.586    -2726814.835 2  -2124781.681 1
  21394069.097     4440571.140 3   3460182.164 2
  23123001.875    -5432094.843 2  -4232784.527 1
  21004355.086     1194781.939 3    930998.871 3
  24543827.160     -622391.839 2   -484975.612 1
  23600030.136    -3105834.346 2  -2420126.176 1
 91  5 13 18 58 15.0010000  0  6 16 18 02 19 06 11
  24071461.877    -2734248.758 2  -2130574.311 1
  21402545.130     4485101.859 3   3494881.410 3
  23117575.032    -5460598.843 2  -4254995.346 1
  21007660.000     1212162.726 3    944542.345 2
  24539922.369     -642955.242 2   -500998.843 1
  23598457.732    -3114116.287 2  -2426579.588 1
 91  5 13 18 58 30.0010000  0  6 16 18 02 19 06 11
  24070079.828    -2741517.252 2  -2136237.997 1
  21411045.140     4529772.154 3   3529689.416 3
  23112171.275    -5489003.388 2  -4277128.661 1
  21010981.998     1229628.853 3    958152.319 2
  24536010.972     -663462.711 2   -516978.586 1
  23596915.298    -3122235.931 2  -2432906.596 1
 91  5 13 18 58 45.0010000  0  6 16 18 02 19 06 11
  24068727.768    -2748623.848 2  -2141775.555 1
  21419573.340     4574578.391 3   3564603.343 2
  23106782.212    -5517312.129 2  -4299187.313 1
  21014321.385     1247176.756 3    971826.011 3
  24532119.670     -683917.758 2   -532917.405 1
  23595398.342    -3130196.534 2  -2439109.644 1
 91  5 13 18 59  0.0010000  0  6 16 18 02 19 06 11
  24067408.078    -2755569.935 2  -2147188.034 1
  21428124.017     4619519.204 3   3599622.135 2
  23101413.225    -5545526.038 2  -4321172.079 2
  21017675.465     1264805.217 3    985562.471 2
  24528235.260     -704321.680 2   -548816.421 1
  23593911.374    -3137999.008 2  -2445189.521 1
 91  5 13 18 59 15.0010000  0  6 16 18 02 19 06 11
  24066113.874    -2762350.648 2  -2152471.696 1
  21436701.977     4664598.947 3   3634749.202 2
  23096062.831    -5573640.525 3  -4343079.384 2
  21021047.833     1282518.800 3    999365.273 3
  24524361.338     -724669.964 2   -564672.027 1
  23592459.184    -3145638.620 2  -2451142.448 1
 91  5 13 18 59 30.0010000  0  6 16 18 02 19 06 11
  24064856.847    -2768969.801 2  -2157629.384 1
  21445307.822     4709813.600 3   3669981.377 2
  23090736.413    -5601659.349 2  -4364912.147 1
  21024432.791     1300313.510 3   1013231.278 2
  24520502.109     -744966.798 2   -580487.540 1
  23591036.966    -3153119.234 2  -2456971.531 1
 91  5 13 18 59 45.0010000  0  6 16 18 02 19 06 11
  24063628.596    -2775427.875 2  -2162661.592 1
  21453936.449     4755162.104 3   3705317.847 3
  23085420.493    -5629583.120 2  -4386670.824 2
  21027833.935     1318188.580 3   1027159.907 2
  24516654.571     -765212.910 2   -596263.590 1
  23589641.131    -3160441.172 2  -2462676.906 1
 91  5 13 19  0  0.0010000  0  6 16 18 02 19 06 11
  24062427.332    -2781723.789 2  -2167567.438 1
  21462590.858     4800645.640 3   3740759.543 2
  23080126.760    -5657410.485 2  -4408354.377 2
  21031254.265     1336145.192 3   1041152.072 2
  24512812.129     -785407.104 2   -611999.114 1
  23588282.772    -3167603.058 2  -2468257.595 1
 91  5 13 19  0 15.0010000  0  6 16 18 02 19 06 11
  24061265.636    -2787860.940 2  -2172349.597 1
  21471271.949     4846260.161 3   3776303.315 2
  23074845.914    -5685145.025 2  -4429965.630 1
  21034682.691     1354179.525 3   1055204.808 2
  24508976.292     -805553.184 2   -627697.233 1
  23586945.396    -3174608.243 2  -2473716.179 1
 91  5 13 19  0 30.0010000  0  6 16 18 02 19 06 11
  24060126.425    -2793835.507 2  -2177005.025 1
  21479976.423     4892009.519 3   3811952.147 2
  23069586.060    -5712783.053 2  -4451501.641 2
  21038138.096     1372295.408 3   1069321.078 3
  24505147.941     -825647.495 2   -643354.998 1
  23585644.901    -3181452.646 2  -2479049.486 1
 91  5 13 19  0 45.0010000  0  6 16 18 02 19 06 11
  24059021.390    -2799642.822 2  -2181530.164 1
  21488706.976     4937898.113 3   3847709.466 3
  23064348.386    -5740319.648 3  -4472958.639 2
  21041597.401     1390497.467 3   1083504.493 2
  24501327.984     -845685.548 2   -658968.886 1
  23584371.384    -3188131.585 2  -2484253.840 1
 91  5 13 19  1  0.0010000  0  6 16 18 02 19 06 11
  24057946.029    -2805287.085 2  -2185928.234 1
  21497468.416     4983921.677 3   3883571.965 2
  23059122.404    -5767758.880 3  -4494339.761 1
  21045076.198     1408781.370 3   1097751.700 2
  24497527.815     -865671.529 2   -674542.166 1
  23583133.535    -3194648.945 2  -2489332.267 1
 91  5 13 19  1 15.0010000  0  6 16 18 02 19 06 11
  24056903.055    -2810766.589 2  -2190197.918 1
  21506250.230     5030081.535 3   3919540.675 2
  23053926.401    -5795099.184 3  -4515643.823 2
  21048570.875     1427148.719 3   1112063.924 3
  24493744.434     -885603.966 2   -690073.806 1
  23581921.173    -3201002.877 2  -2494283.389 1
 91  5 13 19  1 30.0010000  0  6 16 18 02 19 06 11
  24055890.349    -2816077.940 2  -2194336.569 1
  21515064.134     5076380.465 3   3955617.737 3
  23048739.690    -5822337.365 3  -4536868.279 1
  21052082.949     1445602.682 3   1126443.629 3
  24489955.354     -905479.803 2   -705561.330 1
  23580743.292    -3207190.140 2  -2499104.620 1
 91  5 13 19  1 45.0010000  0  6 16 18 02 19 06 11
  24054910.633    -2821228.313 2  -2198349.770 1
  21523897.216     5122811.482 3   3991797.740 3
  23043573.064    -5849480.291 3  -4558018.521 2
  21055607.003     1464136.266 3   1140885.388 2
  24486180.968     -925306.041 2   -721010.238 1
  23579596.289    -3213217.271 2  -2503801.072 1
 91  5 13 19  2  0.0010000  0  6 16 18 02 19 06 11
  24053963.287    -2826212.794 2  -2202233.734 1
  21532759.981     5169379.240 3   4028084.272 3
  23038426.829    -5876523.049 3  -4579090.708 2
  21059152.949     1482754.234 3   1155392.904 2
  24482417.078     -945078.052 2   -736416.799 1
  23578486.752    -3219079.318 2  -2508368.875 1
 91  5 13 19  2 15.0010000  0  6 16 18 02 19 06 11
  24053050.719    -2831034.191 2  -2205990.586 1
  21541646.426     5216080.412 3   4064474.785 2
  23033299.179    -5903468.714 3  -4600087.249 2
  21062707.889     1501453.532 3   1169963.789 3
  24478665.474     -964798.909 2   -751783.516 1
  23577399.106    -3224779.090 2  -2512810.256 1
 91  5 13 19  2 30.0010000  0  6 16 18 02 19 06 11
  24052159.737    -2835691.893 2  -2209619.927 1
  21550558.060     5262915.170 3   4100969.374 2
  23028189.214    -5930316.654 3  -4621007.619 2
  21066282.916     1520234.486 3   1184598.299 3
  24474932.453     -984468.302 2   -767110.177 1
  23576345.933    -3230316.041 2  -2517124.717 1
 91  5 13 19  2 45.0010000  0  6 16 18 02 19 06 11
  24051306.230    -2840187.143 2  -2213122.652 1
  21559495.172     5309882.319 3   4137567.130 2
  23023100.835    -5957067.976 3  -4641852.721 2
  21069871.431     1539095.831 3   1199295.455 2
  24471185.952    -1004087.538 2   -782397.730 1
  23575319.746    -3235691.033 2  -2521313.016 1
 91  5 13 19  3  0.0010000  0  6 16 18 02 19 06 11
  24050476.105    -2844522.038 2  -2216500.441 1
  21568458.066     5356979.499 3   4174266.212 2
  23018028.048    -5983724.549 3  -4662623.993 2
  21073483.032     1558035.526 3   1214053.665 2
  24467464.327    -1023658.667 2   -797647.786 1
  23574333.425    -3240906.012 2  -2525376.628 1
 91  5 13 19  3 15.0010000  0  6 16 18 02 19 06 11
  24049678.054    -2848697.562 2  -2219754.040 1
  21577443.750     5404205.334 3   4211065.549 2
  23012972.048    -6010287.602 3  -4683322.385 2
  21077094.032     1577052.329 3   1228871.954 3
  24463756.191    -1043183.030 2   -812861.439 1
  23573369.292    -3245961.970 2  -2529316.336 1
 91  5 13 19  3 30.0010000  0  6 16 18 02 19 06 11
  24048923.175    -2852714.916 2  -2222884.399 1
  21586457.303     5451558.687 3   4247964.245 2
  23007933.141    -6036758.104 3  -4703948.650 2
  21080728.415     1596145.004 3   1243749.362 2
  24460045.367    -1062661.935 2   -828039.650 1
  23572434.842    -3250859.815 2  -2533132.853 1
 91  5 13 19  3 45.0010000  0  6 16 18 02 19 06 11
  24048184.787    -2856567.416 2  -2225886.269 1
  21595493.348     5499045.893 3   4284967.243 2
  23002917.015    -6063129.488 3  -4724497.678 2
  21084375.991     1615320.117 3   1258691.019 2
  24456345.624    -1082088.879 2   -843177.311 1
  23571535.763    -3255592.701 2  -2536820.822 1
 91  5 13 19  4  0.0010000  0  6 16 18 02 19 06 11
  24047476.675    -2860256.196 2  -2228760.593 1
  21604553.379     5546665.289 3   4322073.244 2
  22997917.370    -6089402.925 3  -4744970.394 2
  21088047.551     1634576.334 3   1273695.861 3
  24452660.574    -1101465.238 2   -858275.696 1
  23570664.866    -3260161.667 2  -2540381.022 1
 91  5 13 19  4 15.0010000  0  6 16 18 02 19 06 11
  24046811.437    -2863785.429 2  -2231510.593 1
  21613641.583     5594412.641 3   4359278.951 2
  22992933.623    -6115582.467 3  -4765369.947 2
  21091721.206     1653909.517 3   1288760.682 3
  24448989.319    -1120795.090 2   -873337.708 1
  23569825.153    -3264570.639 2  -2543816.577 1
 91  5 13 19  4 30.0010000  0  6 16 18 02 19 06 11
  24046174.077    -2867154.294 2  -2234135.620 1
  21622750.780     5642288.463 3   4396584.766 2
  22987972.360    -6141667.418 3  -4785695.791 2
  21095417.642     1673320.271 3   1303885.951 2
  24445310.264    -1140077.958 2   -888363.148 1
  23569019.310    -3268818.741 2  -2547126.774 1
 91  5 13 19  4 45.0010000  0  6 16 18 02 19 06 11
  24045562.499    -2870364.101 2  -2236636.732 1
  21631885.454     5690291.391 3   4433989.621 2
  22983023.383    -6167659.041 3  -4805948.921 1
  21099123.379     1692807.211 3   1319070.589 2
  24441642.306    -1159315.197 2   -903353.056 1
  23568237.148    -3272907.159 2  -2550312.534 2
 91  5 13 19  5  0.0010000  0  6 16 18 02 19 06 11
  24044984.504    -2873414.271 2  -2239013.449 1
  21641044.114     5738421.623 3   4471493.678 2
  22978096.593    -6193556.751 3  -4826128.855 1
  21102847.404     1712371.111 3   1334315.185 2
  24437997.427    -1178506.423 2   -918307.104 1
  23567496.360    -3276835.140 2  -2553373.263 1
 91  5 13 19  5 15.0010000  0  6 16 18 02 19 06 11
  24044432.885    -2876307.960 2  -2241268.214 1
  21650227.657     5786675.624 3   4509094.174 2
  22973185.098    -6219363.634 3  -4846238.031 2
  21106581.017     1732008.580 3   1349617.109 3
  24434359.449    -1197655.006 2   -933227.912 1
  23566772.359    -3280605.801 2  -2556311.428 1
 91  5 13 19  5 30.0010000  0  6 16 18 02 19 06 11
  24043907.651    -2879041.857 2  -2243398.448 1
  21659431.286     5835056.687 3   4546793.673 2
  22968292.179    -6245076.251 3  -4866273.729 2
  21110335.615     1751722.816 3   1364978.854 2
  24430717.563    -1216757.706 2   -948112.983 1
  23566088.241    -3284215.576 2  -2559124.232 1
 91  5 13 19  5 45.0010000  0  6 16 18 02 19 06 11
  24043421.986    -2881618.161 2  -2245405.940 1
  21668663.699     5883561.841 3   4584589.887 2
  22963417.854    -6270696.921 3  -4886237.814 2
  21114100.412     1771511.045 3   1380398.266 3
  24427092.472    -1235817.142 2   -962964.300 1
  23565431.092    -3287666.802 2  -2561813.460 1
 91  5 13 19  6  0.0010000  0  6 16 18 02 19 06 11
  24042955.210    -2884037.155 2  -2247290.804 1
  21677917.392     5932191.005 3   4622482.713 2
  22958560.315    -6296225.604 3  -4906130.197 2
  21117879.597     1791373.371 3   1395875.403 2
  24423474.579    -1254833.254 2   -977781.881 1
  23564803.922    -3290959.166 2  -2564378.955 1
 91  5 13 19  6 15.0010000  0  6 16 18 02 19 06 11
  24042527.409    -2886294.538 2  -2249049.752 1
  21687194.469     5980947.987 3   4660475.141 2
  22953719.572    -6321658.195 3  -4925947.726 2
  21121671.975     1811313.938 3   1411413.506 3
  24419870.176    -1273802.323 2   -992562.867 1
  23564205.537    -3294088.509 2  -2566817.397 1
 91  5 13 19  6 30.0010000  0  6 16 18 02 19 06 11
  24042133.479    -2888390.854 2  -2250683.192 1
  21696496.727     6029831.938 3   4698566.498 3
  22948899.805    -6346995.307 3  -4945690.832 2
  21125482.029     1831331.883 3   1427011.914 2
  24416268.172    -1292724.876 2  -1007307.592 1
  23563645.228    -3297055.341 2  -2569129.208 1
 91  5 13 19  6 45.0010000  0  6 16 18 02 19 06 11
  24041762.034    -2890321.322 2  -2252187.405 1
  21705826.573     6078847.729 3   4736760.604 2
  22944095.629    -6372232.254 3  -4965355.892 2
  21129305.590     1851432.094 3   1442674.421 3
  24412682.352    -1311596.289 2  -1022012.420 1
  23563114.898    -3299854.556 2  -2571310.376 1
 91  5 13 19  7  0.0010000  0  6 16 18 02 19 06 11
  24041423.569    -2892086.248 2  -2253562.631 1
  21715179.497     6127994.641 3   4775056.878 2
  22939310.343    -6397369.146 3  -4984943.008 1
  21133149.829     1871614.139 3   1458400.684 3
  24409088.742    -1330416.986 2  -1036677.750 1
  23562609.741    -3302486.383 2  -2573361.116 1
 91  5 13 19  7 15.0010000  0  6 16 18 02 19 06 11
  24041126.471    -2893682.034 2  -2254806.042 1
  21724556.406     6177275.924 3   4813457.861 3
  22934547.245    -6422402.319 3  -5004449.282 1
  21137005.751     1891881.572 3   1474193.495 2
  24405512.817    -1349183.586 2  -1051300.981 1
  23562145.670    -3304947.046 2  -2575278.530 1
 91  5 13 19  7 30.0010000  0  6 16 18 02 19 06 11
  24040851.263    -2895108.139 2  -2255917.222 1
  21733958.793     6226692.154 3   4851963.983 2
  22929803.630    -6447331.082 3  -5023874.215 2
  21140880.572     1912235.054 3   1490053.362 2
  24401954.578    -1367895.386 2  -1065881.426 1
  23561707.067    -3307235.623 2  -2577061.831 1
 91  5 13 19  7 45.0010000  0  6 16 18 02 19 06 11
  24040613.530    -2896366.977 2  -2256898.091 1
  21743387.564     6276240.520 3   4890573.071 2
  22925080.694    -6472157.981 3  -5043219.743 2
  21144768.882     1932671.839 3   1505978.130 3
  24398411.634    -1386555.112 2  -1080421.326 1
  23561304.150    -3309354.638 2  -2578712.993 1
 91  5 13 19  8  0.0010000  0  6 16 18 02 19 06 11
  24040405.777    -2897454.789 2  -2257745.697 1
  21752841.220     6325924.313 3   4929287.692 2
  22920376.351    -6496879.268 3  -5062483.002 2
  21148673.674     1953195.511 3   1521970.595 3
  24394872.285    -1405159.396 2  -1094918.007 1
  23560937.504    -3311300.401 2  -2580229.189 1
 91  5 13 19  8 15.0010000  0  6 16 18 02 19 06 11
  24040227.697    -2898369.996 2  -2258458.769 1
  21762323.956     6375744.766 3   4968108.799 2
  22915691.499    -6521493.505 3  -5081662.846 2
  21152595.566     1973807.430 3   1538031.839 2
  24391337.429    -1423706.861 2  -1109370.403 1
  23560595.436    -3313071.145 2  -2581608.929 1
 91  5 13 19  8 30.0010000  0  6 16 18 02 19 06 11
  24040090.390    -2899113.630 2  -2259038.190 1
  21771829.177     6425701.002 3   5007035.711 3
  22911028.827    -6546001.335 3  -5100759.762 2
  21156536.035     1994506.885 3   1554161.289 3
  24387824.160    -1442198.286 2  -1123779.180 1
  23560288.452    -3314667.500 2  -2582852.846 1
 91  5 13 19  8 45.0010000  0  6 16 18 02 19 06 11
  24039981.867    -2899680.984 2  -2259480.213 1
  21781364.072     6475797.205 3   5046071.683 2
  22906381.738    -6570398.329 3  -5119770.344 2
  21160488.501     2015298.181 3   1570362.297 3
  24384310.296    -1460629.359 2  -1138140.891 1
  23560027.335    -3316084.787 2  -2583957.206 1
 91  5 13 19  9  0.0010000  0  6 16 18 02 19 06 11
  24039908.716    -2900072.256 2  -2259785.081 1
  21790923.554     6526033.227 3   5085216.606 2
  22901764.934    -6594684.351 3  -5138694.422 2
  21164464.350     2036181.350 3   1586634.892 3
  24380814.110    -1479000.165 2  -1152455.692 1
  23559785.100    -3317322.870 2  -2584921.936 1
 91  5 13 19  9 15.0010000  0  6 16 18 02 19 06 11
  24039867.045    -2900288.070 2  -2259953.183 1
  21800507.624     6576408.266 3   5124469.864 2
  22897163.722    -6618859.927 3  -5157532.454 2
  21168453.984     2057155.853 3   1602978.659 2
  24377323.927    -1497311.391 2  -1166724.118 1
  23559588.140    -3318382.084 2  -2585747.294 1
 91  5 13 19  9 30.0010000  0  6 16 18 02 19 06 11
  24039857.752    -2900328.076 2  -2259984.328 1
  21810121.368     6626922.212 3   5163831.349 2
  22892585.291    -6642924.803 3  -5176284.233 2
  21172463.111     2078221.669 3   1619393.588 3
  24373854.728    -1515562.911 2  -1180945.844 1
  23559416.656    -3319262.145 2  -2586433.033 1
 91  5 13 19  9 45.0010000  0  6 16 18 02 19 06 11
  24039882.933    -2900194.265 2  -2259880.002 1
  21819760.597     6677572.923 3   5203299.403 2
  22888024.851    -6666880.919 3  -5194951.247 2
  21176490.525     2099376.858 3   1635878.147 3
  24370396.627    -1533756.856 2  -1195122.856 1
  23559286.242    -3319964.835 2  -2586980.552 1
 91  5 13 19 10  0.0010000  0  6 16 18 02 19 06 11
  24039944.689    -2899883.308 2  -2259637.651 1
  21829426.500     6728363.647 3   5242876.571 2
  22883488.091    -6690724.779 3  -5213530.810 2
  21180535.023     2120624.887 3   1652435.054 2
  24366955.008    -1551889.731 2  -1209252.216 1
  23559185.214    -3320486.506 2  -2587387.057 1
 91  5 13 19 10 15.0010000  0  6 16 18 02 19 06 11
  24040033.433    -2899393.032 2  -2259255.563 1
  21839117.295     6779296.054 3   5282564.134 2
  22878973.816    -6714454.521 3  -5232021.429 2
  21184594.807     2141967.551 3   1669065.706 2
  24363511.591    -1569959.983 2  -1223332.758 1
  23559117.464    -3320825.225 2  -2587650.976 1
 91  5 13 19 10 30.0010000  0  6 16 18 02 19 06 11
  24040162.643    -2898732.696 2  -2258740.966 1
  21848834.763     6830360.461 3   5322354.558 2
  22874474.827    -6738079.309 3  -5250430.264 2
  21188674.686     2163395.477 3   1685762.796 2
  24360089.464    -1587976.955 2  -1237371.779 1
  23559090.180    -3320990.146 2  -2587779.469 1
 91  5 13 19 10 45.0010000  0  6 16 18 02 19 06 11
  24040323.926    -2897897.953 2  -2258090.454 1
  21858577.123     6881561.101 3   5362251.133 2
  22870001.027    -6761594.860 3  -5268754.007 2
  21192766.256     2184912.831 3   1702529.561 3
  24356662.529    -1605936.484 2  -1251366.440 1
  23559090.782    -3320976.809 2  -2587769.045 1
 91  5 13 19 11  0.0010000  0  6 16 18 02 19 06 11
  24040515.198    -2896888.836 2  -2257304.095 1
  21868347.361     6932897.817 3   5402253.743 2
  22865549.110    -6785000.792 3  -5286992.299 2
  21196878.810     2206519.879 3   1719366.219 2
  24353252.992    -1623838.344 2  -1265315.963 1
  23559124.653    -3320784.938 2  -2587619.527 1
 91  5 13 19 11 15.0010000  0  6 16 18 02 19 06 11
  24040739.442    -2895705.903 2  -2256382.298 1
  21878142.473     6984369.717 3   5442361.696 2
  22861113.082    -6808297.873 3  -5305145.795 2
  21201007.252     2228215.739 3   1736272.086 2
  24349854.248    -1641683.536 2  -1279221.228 1
  23559196.304    -3320415.087 2  -2587331.297 1
 91  5 13 19 11 30.0010000  0  6 16 18 02 19 06 11
  24041000.558    -2894348.678 2  -2255324.622 1
  21887959.181     7035977.012 3   5482575.146 2
  22856702.234    -6831485.528 3  -5323214.015 2
  21205154.881     2250000.910 3   1753247.541 3
  24346465.093    -1659471.516 2  -1293081.837 1
  23559304.233    -3319866.471 2  -2586903.812 1
 91  5 13 19 11 45.0010000  0  6 16 18 02 19 06 11
  24041284.761    -2892820.743 2  -2254133.964 1
  21897806.461     7087716.185 3   5522891.365 2
  22852307.876    -6854566.939 3  -5341199.446 2
  21209315.999     2271872.289 3   1770290.168 2
  24343104.417    -1677205.662 2  -1306900.521 1
  23559438.539    -3319142.270 2  -2586339.491 1
 91  5 13 19 12  0.0010000  0  6 16 18 02 19 06 11
  24041610.042    -2891121.409 2  -2252809.803 1
  21907677.726     7139587.713 3   5563310.706 2
  22847936.902    -6877541.804 3  -5359101.862 2
  21213493.903     2293830.042 3   1787400.113 3
  24339731.752    -1694885.729 2  -1320677.012 1
  23559614.516    -3318241.892 2  -2585637.899 1
 91  5 13 19 12 15.0010000  0  6 16 18 02 19 06 11
  24041971.593    -2889246.936 2  -2251349.157 1
  21917572.680     7191594.632 3   5603835.552 2
  22843587.217    -6900406.387 3  -5376918.341 2
  21217688.299     2315877.911 3   1804580.266 3
  24336377.079    -1712508.146 2  -1334408.696 1
  23559814.783    -3317161.493 2  -2584796.028 1
 91  5 13 19 12 30.0010000  0  6 16 18 02 19 06 11
  24042355.620    -2887198.586 2  -2249752.956 1
  21927497.614     7243735.813 3   5644465.016 2
  22839255.811    -6923161.558 3  -5394649.574 2
  21221902.779     2338014.557 3   1821829.598 3
  24333038.285    -1730074.187 2  -1348096.331 1
  23560059.714    -3315902.100 2  -2583814.643 1
 91  5 13 19 12 45.0010000  0  6 16 18 02 19 06 11
  24042781.030    -2884973.607 2  -2248019.156 1
  21937442.623     7296013.771 3   5685201.059 2
  22834945.093    -6945804.609 3  -5412293.441 2
  21226130.758     2360242.733 3   1839150.250 2
  24329703.697    -1747581.223 2  -1361738.091 1
  23560331.624    -3314460.894 2  -2582691.627 1
 91  5 13 19 13  0.0010000  0  6 16 18 02 19 06 11
  24043235.818    -2882576.908 2  -2246151.567 1
  21947416.418     7348423.000 3   5726039.400 2
  22830658.063    -6968340.786 3  -5429854.020 2
  21230384.214     2382557.216 3   1856538.160 2
  24326388.591    -1765034.447 2  -1375337.839 1
  23560644.009    -3312842.837 2  -2581430.782 1
 91  5 13 19 13 15.0010000  0  6 16 18 02 19 06 11
  24043719.076    -2880010.848 2  -2244151.977 1
  21957416.893     7400961.354 3   5766978.339 2
  22826386.921    -6990772.095 3  -5447332.885 2
  21234639.161     2404955.909 3   1873991.688 2
  24323076.488    -1782436.098 2  -1388897.459 1
  23560976.479    -3311049.827 2  -2580033.640 1
 91  5 13 19 13 30.0010000  0  6 16 18 02 19 06 11
  24044244.615    -2877275.373 2  -2242020.399 1
  21967437.462     7453628.409 3   5808017.575 2
  22822143.063    -7013098.323 3  -5464729.875 2
  21238921.401     2427438.797 3   1891510.816 3
  24319770.675    -1799786.193 2  -1402416.854 1
  23561359.310    -3309081.697 2  -2578500.025 1
 91  5 13 19 13 45.0010000  0  6 16 18 02 19 06 11
  24044801.329    -2874368.434 2  -2239755.222 1
  21977485.603     7506426.117 3   5849158.623 2
  22817912.389    -7035317.572 3  -5482043.498 2
  21243212.331     2450007.846 3   1909097.084 3
  24316478.054    -1817082.814 2  -1415894.638 1
  23561766.433    -3306936.262 2  -2576828.216 1
 91  5 13 19 14  0.0010000  0  6 16 18 02 19 06 11
  24045384.123    -2871287.617 2  -2237354.502 1
  21987556.229     7559356.577 3   5890403.105 2
  22813706.895    -7057427.225 3  -5499271.729 2
  21247525.746     2472665.553 3   1926752.449 2
  24313195.023    -1834323.632 2  -1429328.933 1
  23562206.824    -3304610.932 2  -2575016.287 1
 91  5 13 19 14 15.0010000  0  6 16 18 02 19 06 11
  24046004.696    -2868037.991 2  -2234822.272 1
  21997655.638     7612414.382 3   5931746.827 2
  22809517.901    -7079432.334 3  -5516418.496 2
  21251851.149     2495406.613 3   1944472.762 2
  24309931.483    -1851514.011 2  -1442723.893 1
  23562681.993    -3302110.910 2  -2573068.212 1
 91  5 13 19 14 30.0010000  0  6 16 18 02 19 06 11
  24046649.552    -2864623.443 2  -2232161.526 1
  22007771.538     7665595.484 3   5973186.615 2
  22805349.585    -7101336.650 3  -5533486.720 2
  21256198.137     2518227.084 3   1962254.944 3
  24306667.045    -1868657.771 2  -1456082.538 1
  23563192.840    -3299439.834 2  -2570986.839 1
 91  5 13 19 14 45.0010000  0  6 16 18 02 19 06 11
  24047335.773    -2861041.158 2  -2229370.146 1
  22017918.316     7718902.468 3   6014724.488 2
  22801202.854    -7123137.358 3  -5550474.210 2
  21260553.223     2541129.968 3   1980101.343 2
  24303412.501    -1885752.076 2  -1469402.695 1
  23563734.870    -3296594.687 2  -2568769.831 1
 91  5 13 19 15  0.0010000  0  6 16 18 02 19 06 11
  24048045.081    -2857291.627 2  -2226448.396 1
  22028083.975     7772334.806 3   6056360.049 2
  22797071.716    -7144835.133 3  -5567381.504 2
  21264927.495     2564114.416 3   1998011.305 3
  24300170.538    -1902797.935 2  -1482685.021 1
  23564308.371    -3293575.925 2  -2566417.556 1
 91  5 13 19 15 15.0010000  0  6 16 18 02 19 06 11
  24048792.465    -2853373.765 2  -2223395.445 1
  22038278.113     7825893.280 3   6098093.898 2
  22792958.866    -7166428.489 3  -5584207.410 2
  21269315.257     2587181.832 3   2015985.904 2
  24296942.073    -1919793.881 2  -1495928.496 1
  23564913.047    -3290382.026 2  -2563928.772 1
 91  5 13 19 15 30.0010000  0  6 16 18 02 19 06 11
  24049573.423    -2849291.349 2  -2220214.342 1
  22048493.846     7879573.623 3   6139922.707 2
  22788874.494    -7187921.425 3  -5600955.086 2
  21273727.605     2610328.157 3   2034022.000 3
  24293704.020    -1936744.044 2  -1509136.327 1
  23565556.707    -3287016.915 2  -2561306.611 1
 91  5 13 19 15 45.0010000  0  6 16 18 02 19 06 11
  24050378.070    -2845044.462 2  -2216904.998 1
  22058729.961     7933375.845 3   6181846.488 2
  22784803.908    -7209313.753 3  -5617624.362 2
  21278139.954     2633553.608 3   2052119.755 2
  24290480.354    -1953648.231 2  -1522308.250 1
  23566229.143    -3283480.226 2  -2558550.741 1
 91  5 13 19 16  0.0010000  0  6 16 18 02 19 06 11
  24051219.284    -2840631.381 2  -2213466.214 1
  22068993.350     7987301.178 3   6223866.183 2
  22780748.913    -7230603.820 3  -5634213.943 2
  21282577.780     2656859.690 3   2070280.337 2
  24287278.867    -1970505.182 2  -1535443.406 1
  23566936.051    -3279770.411 2  -2555659.975 1
 91  5 13 19 16 15.0010000  0  6 16 18 02 19 06 11
  24052088.985    -2836052.458 2  -2209898.185 1
  22079277.138     8041349.056 3   6265981.384 2
  22776716.404    -7251791.981 3  -5650724.127 2
  21287025.797     2680245.984 3   2088503.417 2
  24284087.876    -1987315.377 2  -1548542.142 1
  23567672.642    -3275887.617 2  -2552634.400 1
 91  5 13 19 16 30.0010000  0  6 16 18 02 19 06 11
  24052987.462    -2831311.249 2  -2206203.686 1
  22089588.498     8095515.924 3   6308189.325 2
  22772706.684    -7272881.544 3  -5667157.494 2
  21291499.003     2703708.929 3   2106786.233 2
  24280900.481    -2004082.100 2  -1561607.019 1
  23568444.003    -3271835.082 2  -2549476.598 1
 91  5 13 19 16 45.0010000  0  6 16 18 02 19 06 11
  24053925.516    -2826409.058 2  -2202383.782 1
  22099914.848     8149800.175 3   6350488.698 2
  22768713.446    -7293873.917 3  -5683515.115 2
  21295969.208     2727247.113 3   2125127.668 2
  24277712.186    -2020807.136 2  -1574639.369 1
  23569243.851    -3267614.229 2  -2546187.597 1
 91  5 13 19 17  0.0010000  0  6 16 18 02 19 06 11
  24054889.047    -2821345.617 2  -2198438.195 1
  22110266.980     8204201.805 3   6392879.558 2
  22764733.400    -7314768.949 3  -5699796.885 2
  21300469.392     2750860.899 3   2143528.023 3
  24274543.384    -2037490.186 2  -1587639.007 1
  23570084.472    -3263224.576 2  -2542767.096 1
 91  5 13 19 17 15.0010000  0  6 16 18 02 19 06 11
  24055878.963    -2816122.473 2  -2194368.183 1
  22120640.995     8258719.013 3   6435360.464 2
  22760778.840    -7335567.850 3  -5716003.752 2
  21304968.678     2774548.638 3   2161985.991 3
  24271376.972    -2054132.779 2  -1600607.148 1
  23570949.374    -3258667.484 2  -2539216.099 1
 91  5 13 19 17 30.0010000  0  6 16 18 02 19 06 11
  24056910.245    -2810738.774 2  -2190173.008 1
  22131037.800     8313352.600 3   6477932.065 2
  22756836.269    -7356269.602 3  -5732134.913 2
  21309494.348     2798311.352 3   2180502.384 2
  24268205.473    -2070734.033 2  -1613543.054 1
  23571849.046    -3253941.839 2  -2535533.786 1
 91  5 13 19 17 45.0010000  0  6 16 18 02 19 06 11
  24057965.521    -2805193.670 2  -2185852.119 1
  22141457.691     8368102.994 3   6520594.684 2
  22752916.488    -7376873.292 3  -5748189.659 2
  21314027.801     2822149.825 3   2199077.804 2
  24265051.652    -2087293.337 2  -1626446.300 1
  23572780.504    -3249046.792 2  -2531719.450 1
 91  5 13 19 18  0.0010000  0  6 16 18 02 19 06 11
  24059050.165    -2799488.855 2  -2181406.787 1
  22151896.760     8422968.306 3   6563346.842 2
  22749012.883    -7397380.755 3  -5764169.435 2
  21318584.350     2846062.319 3   2217710.926 3
  24261909.225    -2103812.446 2  -1639318.197 1
  23573742.840    -3243983.927 2  -2527774.348 1
 91  5 13 19 18 15.0010000  0  6 16 18 02 19 06 11
  24060165.993    -2793620.011 2  -2176833.599 1
  22162361.316     8477952.743 3   6606191.835 2
  22745130.270    -7417787.455 3  -5780070.677 2
  21323144.798     2870053.441 3   2236405.298 2
  24258777.601    -2120286.916 2  -1652155.313 1
  23574738.445    -3238748.678 2  -2523694.957 1
 91  5 13 19 18 30.0010000  0  6 16 18 02 19 06 11
  24061313.598    -2787583.720 2  -2172129.994 1
  22172849.254     8533059.655 3   6649132.258 2
  22741266.251    -7438089.955 3  -5795890.756 2
  21327727.723     2894126.421 3   2255163.465 2
  24255650.461    -2136713.418 2  -1664955.076 1
  23575770.634    -3233337.470 2  -2519478.423 2
 91  5 13 19 18 45.0010000  0  6 16 18 02 19 06 11
  24062489.987    -2781379.491 2  -2167295.482 1
  22183356.981     8588289.280 3   6692168.295 2
  22737424.708    -7458287.699 3  -5811629.180 2
  21332320.542     2918281.513 3   2273985.616 2
  24252541.312    -2153091.674 2  -1677717.287 1
  23576832.200    -3227749.748 2  -2515124.314 2
 91  5 13 19 19  0.0010000  0  6 16 18 02 19 06 11
  24063702.646    -2775010.882 2  -2162332.886 1
  22193890.186     8643637.387 3   6735296.661 2
  22733598.460    -7478384.246 3  -5827288.748 2
  21336935.845     2942515.167 3   2292868.981 2
  24249428.873    -2169425.379 2  -1690444.715 1
  23577926.137    -3221989.101 2  -2510635.499 1
 91  5 13 19 19 15.0010000  0  6 16 18 02 19 06 11
  24064947.082    -2768476.410 2  -2157241.046 1
  22204444.383     8699105.249 3   6778518.342 2
  22729796.494    -7498378.249 3  -5842868.428 2
  21341559.542     2966828.668 3   2311814.574 2
  24246332.315    -2185713.329 2  -1703136.498 1
  23579054.861    -3216054.044 2  -2506010.751 2
 91  5 13 19 19 30.0010000  0  6 16 18 02 19 06 11
  24066218.505    -2761779.033 2  -2152022.323 1
  22215020.462     8754690.043 3   6821831.146 2
  22726010.407    -7518272.204 3  -5858370.139 2
  21346203.333     2991219.401 3   2330820.329 2
  24243237.257    -2201958.138 2  -1715794.663 1
  23580220.753    -3209947.011 2  -2501252.007 1
 91  5 13 19 19 45.0010000  0  6 16 18 02 19 06 11
  24067527.699    -2754921.719 2  -2146678.895 1
  22225620.222     8810388.512 3   6865232.513 2
  22722242.015    -7538069.261 3  -5873796.347 2
  21350857.908     3015684.463 3   2349884.016 2
  24240158.689    -2218162.836 2  -1728421.602 1
  23581417.228    -3203670.803 2  -2496361.469 1
 91  5 13 19 20  0.0010000  0  6 16 18 02 19 06 11
  24068863.574    -2747907.829 2  -2141213.500 1
  22236243.068     8866197.382 3   6908719.914 2
  22718494.014    -7557772.372 3  -5889149.355 2
  21355527.176     3040220.761 3   2369003.207 3
  24237075.925    -2234330.786 2  -1741019.865 1
  23582638.883    -3197228.497 2  -2491341.471 1
 91  5 13 19 20 15.0010000  0  6 16 18 02 19 06 11
  24070232.422    -2740735.091 2  -2135624.311 1
  22246882.108     8922118.365 3   6952294.677 2
  22714760.697    -7577379.443 3  -5904427.528 2
  21360210.832     3064830.078 3   2388179.296 3
  24234007.243    -2250460.022 2  -1753588.012 1
  23583897.104    -3190618.055 2  -2486190.498 1
 91  5 13 19 20 30.0010000  0  6 16 18 02 19 06 11
  24071623.762    -2733405.927 2  -2129913.250 1
  22257547.821     8978148.954 3   6995954.832 2
  22711047.770    -7596892.629 3  -5919632.531 2
  21364906.782     3089510.179 3   2407410.545 2
  24230949.965    -2266552.855 2  -1766127.797 1
  23585188.316    -3183841.625 2  -2480910.157 1
 91  5 13 19 20 45.0010000  0  6 16 18 02 19 06 11
  24073050.771    -2725915.847 2  -2124076.752 1
  22268229.727     9034293.236 3   7039703.591 2
  22707354.624    -7616307.550 3  -5934760.978 2
  21369616.220     3114265.363 3   2426700.296 2
  24227888.482    -2282604.891 2  -1778635.797 1
  23586508.599    -3176894.542 2  -2475496.828 1
 91  5 13 19 21  0.0010000  0  6 16 18 02 19 06 11
  24074499.672    -2718272.377 2  -2118120.806 1
  22278932.915     9090543.601 3   7083535.014 2
  22703676.476    -7635631.788 3  -5949818.767 2
  21374345.151     3139088.211 3   2446042.767 2
  24224839.894    -2298623.881 2  -1791117.971 1
  23587862.160    -3169784.316 2  -2469956.364 1
 91  5 13 19 21 15.0010000  0  6 16 18 02 19 06 11
  24075985.741    -2710469.660 2  -2112040.743 1
  22289660.986     9146905.932 3   7127453.670 2
  22700017.802    -7654859.143 3  -5964801.053 2
  21379078.871     3163984.873 3   2465442.762 2
  24221806.295    -2314603.682 2  -1803569.660 1
  23589247.201    -3162504.764 2  -2464283.995 1
 91  5 13 19 21 30.0010000  0  6 16 18 02 19 06 11
  24077499.696    -2702514.249 2  -2105841.680 1
  22300402.851     9203373.325 3   7171454.211 2
  22696374.423    -7673996.072 3  -5979712.886 2
  21383829.379     3188948.542 3   2484894.968 2
  24218766.694    -2330551.133 2  -1815996.133 1
  23590661.925    -3155062.349 2  -2458484.710 1
 91  5 13 19 21 45.0010000  0  6 16 18 02 19 06 11
  24079042.129    -2694405.268 2  -2099522.940 1
  22311169.295     9259946.036 3   7215536.816 2
  22692751.732    -7693042.088 3  -5994553.878 2
  21388591.587     3213979.851 3   2504399.889 2
  24215733.393    -2346465.573 2  -1828396.906 1
  23592112.920    -3147456.377 2  -2452557.958 1
 91  5 13 19 22  0.0010000  0  6 16 18 02 19 06 11
  24080617.535    -2686142.973 2  -2093084.792 1
  22321954.934     9316624.038 3   7259701.451 2
  22689144.929    -7711997.004 3  -6009323.874 2
  21393372.676     3239079.040 3   2523957.695 3
  24212719.287    -2362346.990 2  -1840771.888 1
  23593590.901    -3139686.636 2  -2446503.614 1
 91  5 13 19 22 15.0010000  0  6 16 18 02 19 06 11
  24082216.332    -2677731.386 2  -2086530.256 1
  22332762.447     9373403.043 3   7303944.789 2
  22685553.116    -7730864.650 3  -6024025.866 2
  21398156.461     3264242.078 3   2543565.249 3
  24209698.575    -2378199.549 2  -1853124.460 1
  23595101.549    -3131757.044 2  -2440324.694 1
 91  5 13 19 22 30.0020000  0  6 16 18 02 19 06 11
  24083847.800    -2669164.262 2  -2079854.548 1
  22343585.259     9430292.377 3   7348274.114 2
  22681981.993    -7749640.662 3  -6038656.463 2
  21402960.640     3289476.110 3   2563228.123 2
  24206683.861    -2394018.713 2  -1865451.013 1
  23596639.483    -3123661.419 2  -2434016.384 1
 91  5 13 19 22 45.0020000  0  6 16 18 02 19 06 11
  24085506.853    -2660443.821 2  -2073059.411 1
  22354430.246     9487282.567 3   7392682.012 2
  22678426.755    -7768323.819 3  -6053214.693 2
  21407775.906     3314776.445 3   2582942.679 2
  24203681.141    -2409803.805 2  -1877750.941 1
  23598208.598    -3115402.016 3  -2427580.475 1
 91  5 13 19 23  0.0020000  0  6 16 18 02 19 06 11
  24087194.385    -2651567.200 2  -2066142.524 1
  22365293.531     9544380.190 3   7437173.632 2
  22674886.804    -7786912.498 3  -6067699.329 2
  21412603.465     3340147.677 3   2602712.462 3
  24200680.219    -2425553.076 2  -1890022.964 1
  23599814.289    -3106975.377 3  -2421014.270 1
 91  5 13 19 23 15.0020000  0  6 16 18 02 19 06 11
  24088911.897    -2642532.499 2  -2059102.450 1
  22376181.088     9601586.837 3   7481750.208 2
  22671369.338    -7805404.796 3  -6082108.856 2
  21417444.513     3365591.529 3   2622538.835 3
  24197699.983    -2441264.799 2  -1902265.764 1
  23601450.255    -3098379.461 3  -2414316.150 1
 91  5 13 19 23 30.0020000  0  6 16 18 02 19 06 11
  24090661.779    -2633341.725 2  -2051940.782 1
  22387086.645     9658900.405 3   7526410.094 2
  22667868.658    -7823802.472 3  -6096444.631 2
  21422299.652     3391106.003 3   2642420.243 2
  24194712.253    -2456940.917 2  -1914480.873 1
  23603117.702    -3089616.224 3  -2407487.653 1
 91  5 13 19 23 45.0020000  0  6 16 18 02 19 06 11
  24092439.851    -2623996.613 2  -2044658.884 1
  22398014.076     9716318.600 3   7571151.501 2
  22664382.672    -7842107.574 3  -6110708.290 2
  21427168.280     3416689.288 3   2662355.269 2
  24191735.307    -2472583.479 2  -1926669.746 1
  23604819.622    -3080687.479 3  -2400530.161 1
 91  5 13 19 24  0.0020000  0  6 16 18 02 19 06 11
  24094252.397    -2614493.949 2  -2037254.146 1
  22408960.999     9773844.853 3   7615977.119 2
  22660920.069    -7860316.869 3  -6124897.292 2
  21432049.202     3442344.809 3   2682346.583 2
  24188765.864    -2488189.276 2  -1938830.056 1
  23606549.130    -3071589.800 2  -2393441.056 1
 91  5 13 19 24 15.0020000  0  6 16 18 02 19 06 11
  24096086.824    -2604839.237 2  -2029730.970 1
  22419925.608     9831473.040 3   7660882.160 2
  22657469.759    -7878435.531 3  -6139015.675 2
  21436943.613     3468067.110 3   2702389.929 2
  24185803.315    -2503763.586 2  -1950965.724
  23608310.704    -3062328.371 2  -2386224.330 2
 91  5 13 19 24 30.0020000  0  6 16 18 02 19 06 11
  24097950.935    -2595034.771 2  -2022091.156 1
  22430912.404     9889201.046 3   7705864.996 2
  22654041.036    -7896465.400 3  -6153064.865 2
  21441852.115     3493854.078 3   2722483.670 2
  24182845.267    -2519308.669 2  -1963078.645 1
  23610105.267    -3052905.293 2  -2378881.655 2
 91  5 13 19 24 45.0020000  0  6 16 18 02 19 06 11
  24099843.821    -2585080.244 2  -2014334.363 1
  22441916.887     9947028.632 3   7750925.393 2
  22650625.801    -7914406.604 3  -6167044.970 2
  21446769.011     3519705.743 3   2742627.820 2
  24179892.010    -2534824.581 2  -1975168.883 1
  23611929.198    -3043320.445 2  -2371412.950 2
 91  5 13 19 25  0.0020000  0  6 16 18 02 19 06 11
  24101767.891    -2574980.630 2  -2006464.479 1
  22452939.352    10004950.714 3   7796059.453 2
  22647229.448    -7932264.058 3  -6180959.798 2
  21451705.991     3545617.271 3   2762818.626 2
  24176943.848    -2550316.243 2  -1987240.230 1
  23613781.923    -3033578.579 2  -2363821.859 1
 91  5 13 19 25 15.0020000  0  6 16 18 02 19 06 11
  24103716.243    -2564730.627 2  -1998477.430 1
  22463982.809    10062972.303 3   7841271.032 2
  22643847.194    -7950032.336 3  -6194805.151 2
  21456642.675     3571593.848 3   2783060.107 2
  24174002.884    -2565778.463 2  -1999288.620 1
  23615667.018    -3023674.279 2  -2356104.235 1
 91  5 13 19 25 30.0020000  0  6 16 18 02 19 06 11
  24105696.973    -2554335.452 2  -1990377.293 1
  22475038.857    10121088.317 3   7886556.198 2
  22640482.025    -7967716.390 3  -6208584.885 2
  21461603.039     3597630.406 3   2803348.337 2
  24171060.725    -2581216.382 2  -2011318.079 1
  23617578.794    -3013612.488 2  -2348263.868 1
 91  5 13 19 25 45.0020000  0  6 16 18 02 19 06 11
  24107702.283    -2543794.094 2  -1982163.201 1
  22486117.983    10179299.249 3   7931915.326 2
  22637130.038    -7985315.330 3  -6222298.288 2
  21466565.803     3623727.909 3   2823684.060 2
  24168129.350    -2596628.985 2  -2023327.803 1
  23619525.645    -3003392.230 3  -2340300.012 1
 91  5 13 19 26  0.0020000  0  6 16 18 02 19 06 11
  24109735.774    -2533104.717 2  -1973833.818 1
  22497214.507    10237606.708 3   7977349.664 2
  22633800.842    -8002827.118 3  -6235943.799 2
  21471545.057     3649888.258 3   2844068.746 3
  24165195.882    -2612014.606 2  -2035316.515 1
  23621501.271    -2993011.537 2  -2332211.144 1
 91  5 13 19 26 15.0020000  0  6 16 18 02 19 06 11
  24111797.447    -2522270.816 2  -1965391.832 1
  22508324.807    10296007.072 3   8022856.408 2
  22630486.043    -8020255.052 3  -6249523.946 2
  21476532.407     3676108.137 3   2864499.810 2
  24162278.903    -2627376.540 2  -2047286.760 1
  23623507.784    -2982473.718 2  -2323999.846 1
 91  5 13 19 26 30.0020000  0  6 16 18 02 19 06 11
  24113884.607    -2511289.517 2  -1956834.917 1
  22519458.805    10354503.623 3   8068438.097 2
  22627183.231    -8037595.806 3  -6263036.175 2
  21481535.647     3702390.858 3   2884979.851 2
  24159364.621    -2642711.637 2  -2059236.133 1
  23625542.776    -2971775.333 2  -2315663.446 1
 91  5 13 19 26 45.0020000  0  6 16 18 02 19 06 11
  24116002.636    -2500162.492 2  -1948164.502 1
  22530607.182    10413094.121 3   8114092.975 2
  22623900.802    -8054851.302 3  -6276481.975 2
  21486548.475     3728734.586 3   2905507.436 2
  24156443.742    -2658021.813 2  -2071166.047 1
  23627608.044    -2960918.272 2  -2307203.391 2
 91  5 13 19 27  0.0020000  0  6 16 18 02 19 06 11
  24118147.957    -2488886.239 2  -1939377.807 1
  22541775.653    10471781.500 3   8159823.368 2
  22620633.964    -8072018.160 3  -6289858.687 2
  21491576.895     3755142.645 3   2926085.135 3
  24153538.150    -2673303.853 2  -2083074.040 1
  23629707.794    -2949899.035 2  -2298616.948 1
 91  5 13 19 27 15.0020000  0  6 16 18 02 19 06 11
  24120321.748    -2477464.325 2  -1930477.583 1
  22552962.107    10530562.363 3   8205626.597 2
  22617383.608    -8089099.634 3  -6303168.873 2
  21496610.104     3781611.417 3   2946710.148 2
  24150636.764    -2688561.142 2  -2094962.774 1
  23631834.225    -2938720.870 2  -2289906.692 1
 91  5 13 19 27 30.0020000  0  6 16 18 02 19 06 11
  24122527.325    -2465893.237 2  -1921461.153 1
  22564165.652    10589440.069 3   8251505.276 2
  22614148.852    -8106092.225 3  -6316409.812 2
  21501659.508     3808144.754 3   2967385.477 2
  24147735.970    -2703790.102 2  -2106829.398 1
  23633993.323    -2927380.092 2  -2281069.709 1
 91  5 13 19 27 45.0020000  0  6 16 18 02 19 06 11
  24124762.872    -2454169.975 2  -1912326.158 1
  22575388.385    10648417.172 3   8297461.419 2
  22610932.978    -8122992.743 3  -6329578.987 2
  21506721.206     3834745.452 3   2988113.287 3
  24144848.369    -2718987.902 2  -2118671.765 1
  23636178.518    -2915873.708 2  -2272103.697 1
 91  5 13 19 28  0.0020000  0  6 16 18 02 19 06 11
  24127013.715    -2442296.569 2  -1903074.120 1
  22586631.499    10707491.474 3   8343493.290 2
  22607730.898    -8139803.154 3  -6342677.959 2
  21511802.090     3861411.579 3   3008892.083 2
  24141962.566    -2734156.634 2  -2130491.525 1
  23638398.474    -2904203.681 2  -2263010.167 1
 91  5 13 19 28 15.0020000  0  6 16 18 02 19 06 11
  24129304.134    -2430273.322 2  -1893705.343 1
  22597889.306    10766662.720 3   8389600.707 2
  22604550.098    -8156523.554 3  -6355706.800 2
  21516883.576     3888143.101 3   3029721.833 2
  24139080.060    -2749296.400 2  -2142288.600 1
  23640651.114    -2892370.007 2  -2253789.117 1
 91  5 13 19 28 30.0020000  0  6 16 18 02 19 06 11
  24131620.031    -2418100.590 2  -1884220.069 1
  22609167.199    10825930.235 3   8435783.135 2
  22601387.281    -8173154.145 3  -6368665.661 2
  21521982.739     3914939.622 3   3050602.228 2
  24136207.449    -2764407.585 2  -2154063.502 1
  23642936.133    -2880372.807 2  -2244440.641 1
 91  5 13 19 28 45.0020000  0  6 16 18 02 19 06 11
  24133963.203    -2405778.988 2  -1874618.777 1
  22620463.981    10885293.264 3   8482039.990 2
  22598241.565    -8189695.471 3  -6381554.957 2
  21527090.609     3941800.482 3   3071532.771 2
  24133335.143    -2779490.887 2  -2165816.623 1
  23645253.234    -2868212.861 2  -2234965.352 2
 91  5 13 19 29  0.0020000  0  6 16 18 02 19 06 11
  24136340.263    -2393308.578 2  -1864901.595 1
  22631777.245    10944751.553 3   8528371.082 2
  22595110.228    -8206147.706 3  -6394374.836 2
  21532221.252     3968725.706 3   3092513.456 2
  24130472.121    -2794546.357 2  -2177548.083 1
  23647598.211    -2855890.159 2  -2225363.222 1
 91  5 13 19 29 15.0020000  0  6 16 18 02 19 06 11
  24138745.793    -2380695.049 2  -1855072.892 1
  22643111.799    11004299.009 3   8574771.638 2
  22591995.687    -8222516.540 3  -6407129.728 2
  21537350.700     3995709.601 3   3113539.857 2
  24127604.308    -2809579.887 2  -2189262.433 1
  23649972.863    -2843410.301 2  -2215638.680 1
 91  5 13 19 29 30.0020000  0  6 16 18 02 19 06 11
  24141162.718    -2367936.257 2  -1845130.960 1
  22654460.443    11063938.156 3   8621243.668 2
  22588894.330    -8238799.178 3  -6419817.452 2
  21542503.531     4022754.783 3   3134614.031 2
  24124755.979    -2824588.778 2  -2200957.595 1
  23652373.603    -2830770.532 2  -2205789.498 1
 91  5 13 19 29 45.0020000  0  6 16 18 02 19 06 11
  24143622.518    -2355031.979 2  -1835075.667 1
  22665826.171    11123668.572 3   8667786.791 2
  22585813.965    -8254995.583 3  -6432437.994 2
  21547657.270     4049861.260 3   3155735.959 2
  24121902.554    -2839573.122 2  -2212633.618 1
  23654806.722    -2817970.733 2  -2195815.611 1
 91  5 13 19 30  0.0020000  0  6 16 18 02 19 06 11
  24146102.403    -2341986.319 2  -1824910.210 1
  22677208.399    11183486.159 3   8714397.849 2
  22582747.386    -8271109.834 3  -6444994.504 2
  21552827.787     4077024.940 3   3176902.458 2
  24119047.934    -2854537.058 2  -2224293.778 1
  23657274.610    -2805014.836 2  -2185720.098 1
 91  5 13 19 30 15.0020000  0  6 16 18 02 19 06 11
  24148620.059    -2328795.980 2  -1814631.991 1
  22688608.600    11243394.249 3   8761079.427 2
  22579697.001    -8287138.409 3  -6457484.258 2
  21558004.002     4104249.515 3   3198116.408 2
  24116220.292    -2869476.949 2  -2235935.191 1
  23659773.978    -2791899.187 2  -2175500.120 1
 91  5 13 19 30 30.0020000  0  6 16 18 02 19 06 11
  24151157.199    -2315462.700 2  -1804242.387 1
  22700028.301    11303390.507 3   8807829.713 2
  22576663.097    -8303083.146 3  -6469908.713 2
  21563201.505     4131532.901 3   3219376.192 2
  24113370.462    -2884394.957 2  -2247559.541 1
  23662295.535    -2778625.709 2  -2165157.144 1
 91  5 13 19 30 45.0020000  0  6 16 18 02 19 06 11
  24153716.526    -2301983.092 2  -1793738.861 1
  22711460.585    11363478.301 3   8854651.320 2
  22573646.286    -8318940.225 3  -6482264.808 2
  21568402.604     4158878.743 3   3240684.640 2
  24110539.819    -2899287.406 2  -2259163.972 1
  23664851.861    -2765190.856 2  -2154688.440 1
 91  5 13 19 31  0.0020000  0  6 16 18 02 19 06 11
  24156317.534    -2288354.248 2  -1783118.984 1
  22722912.054    11423660.693 3   8901546.637 2
  22570648.365    -8334706.616 3  -6494550.269 2
  21573617.793     4186290.372 3   3262044.331 2
  24107713.381    -2914151.413 2  -2270746.257 1
  23667441.473    -2751591.445 2  -2144091.484 1
 91  5 13 19 31 15.0020000  0  6 16 18 02 19 06 11
  24158930.224    -2274579.173 2  -1772385.152 1
  22734382.711    11483933.949 3   8948512.764 2
  22567662.135    -8350385.548 3  -6506767.582 2
  21578844.378     4213764.657 3   3283452.859 2
  24104881.237    -2928990.060 2  -2282308.783 1
  23670059.556    -2737830.556 2  -2133368.710 2
 91  5 13 19 31 30.0020000  0  6 16 18 02 19 06 11
  24161586.086    -2260656.358 2  -1761536.173 1
  22745871.960    11544299.853 3   8995551.074 2
  22564694.787    -8365975.141 3  -6518915.264 2
  21584086.851     4241303.080 3   3304911.374 2
  24102063.193    -2943801.681 2  -2293850.240 1
  23672709.127    -2723906.410 2  -2122518.712 1
 91  5 13 19 31 45.0020000  0  6 16 18 02 19 06 11
  24164264.127    -2246583.548 2  -1750570.384 1
  22757372.596    11604760.219 3   9042662.997 2
  22561743.929    -8381473.015 3  -6530991.483 2
  21589340.710     4268907.825 3   3326421.560 2
  24099243.045    -2958584.035 2  -2305368.883 1
  23675394.070    -2709816.724 2  -2111539.739 1
 91  5 13 19 32  0.0020000  0  6 16 18 02 19 06 11
  24166967.061    -2232362.472 2  -1739489.018 1
  22768896.921    11665313.206 3   9089847.069 2
  22558813.758    -8396880.832 3  -6542997.543 2
  21594605.362     4296577.409 3   3347982.263 2
  24096450.478    -2973338.838 2  -2316866.058 1
  23678100.590    -2695563.098 2  -2100433.007 1
 91  5 13 19 32 15.0020000  0  6 16 18 02 19 06 11
  24169703.264    -2217992.411 2  -1728291.583 1
  22780440.432    11725959.131 3   9137103.590 2
  22555899.476    -8412197.797 3  -6554932.802 2
  21599880.816     4324312.645 3   3369594.127 2
  24093640.819    -2988065.475 2  -2328341.295 1
  23680842.194    -2681144.723 2  -2089197.925 1
 91  5 13 19 32 30.0020000  0  6 16 18 02 19 06 11
  24172467.047    -2203472.074 2  -1716977.030 1
  22791995.625    11786699.262 3   9184433.500 2
  22553001.684    -8427422.695 3  -6566796.308 2
  21605172.751     4352114.907 3   3391258.219 2
  24090844.657    -3002762.643 2  -2339793.567 1
  23683622.772    -2666560.197 2  -2077833.354 1
 91  5 13 19 32 45.0020000  0  6 16 18 02 19 06 11
  24175253.323    -2188805.946 2  -1705548.866 1
  22803570.015    11847529.200 3   9231833.400 2
  22550119.780    -8442559.721 3  -6578591.358 2
  21610475.183     4379979.808 3   3412971.126 2
  24088055.083    -3017434.683 2  -2351226.288 1
  23686432.126    -2651813.843 3  -2066342.687 1
 91  5 13 19 33  0.0020000  0  6 16 18 02 19 06 11
  24178069.274    -2173994.155 2  -1694007.227 1
  22815165.990    11908448.412 3   9279302.857 2
  22547257.055    -8457608.948 3  -6590317.995 2
  21615790.197     4407907.036 3   3434732.582 3
  24085268.815    -3032081.873 2  -2362639.621 1
  23689267.263    -2636905.735 3  -2054725.983 1
 91  5 13 19 33 15.0020000  0  6 16 18 02 19 06 11
  24180917.297    -2159038.825 2  -1682353.745 1
  22826775.454    11969454.853 3   9326840.289 2
  22544409.633    -8472571.986 3  -6601977.455 2
  21621113.316     4435895.130 3   3456541.483 2
  24082484.345    -3046705.854 2  -2374034.884 1
  23692132.982    -2621837.523 2  -2042984.519 1
 91  5 13 19 33 30.0020000  0  6 16 18 02 19 06 11
  24183801.007    -2143937.600 2  -1670586.544 1
  22838399.306    12030550.360 3   9374447.103 2
  22541578.693    -8487446.701 3  -6613568.109 2
  21626453.519     4463946.090 3   3478399.368 2
  24079708.862    -3061304.634 2  -2385410.485 1
  23695031.070    -2606607.039 2  -2031116.607 1
 91  5 13 19 33 45.0020000  0  6 16 18 02 19 06 11
  24186699.698    -2128689.034 2  -1658704.580 1
  22850042.641    12091736.301 3   9422124.416 2
  22538765.735    -8502231.387 3  -6625088.605 2
  21631803.311     4492061.643 3   3500307.583 2
  24076935.184    -3075876.573 2  -2396765.190 1
  23697963.344    -2591212.723 3  -2019121.001 1
 91  5 13 19 34  0.0020000  0  6 16 18 02 19 06 11
  24189621.475    -2113292.844 2  -1646707.526 1
  22861703.373    12153012.832 3   9469872.296 2
  22535968.674    -8516925.701 3  -6636538.690 2
  21637165.405     4520242.149 3   3522266.409 2
  24074167.501    -3090421.376 2  -2408098.737 1
  23700924.689    -2575653.989 3  -2006997.346 1
 91  5 13 19 34 15.0020000  0  6 16 18 02 19 06 11
  24192577.428    -2097750.464 2  -1634596.613 1
  22873384.183    12214378.522 3   9517689.663 2
  22533189.300    -8531530.933 3  -6647919.349 2
  21642540.081     4548486.282 3   3544274.818 2
  24071402.811    -3104940.419 2  -2419412.188 1
  23703916.616    -2559932.161 2  -1994746.553 1
 91  5 13 19 34 30.0020000  0  6 16 18 02 19 06 11
  24195573.255    -2082065.388 2  -1622374.462 1
  22885073.394    12275829.682 3   9565573.617 2
  22530427.908    -8546050.396 3  -6659233.189 2
  21647929.450     4576790.742 3   3566330.233 2
  24068642.928    -3119437.080 2  -2430708.161 2
  23706936.429    -2544050.513 2  -1982371.271 1
 91  5 13 19 34 45.0020000  0  6 16 18 02 19 06 11
  24198581.071    -2066241.078 2  -1610043.875 1
  22896783.886    12337362.546 3   9613521.234 2
  22527682.412    -8560487.387 3  -6670482.750 2
  21653323.914     4605152.063 3   3588429.959 2
  24065893.228    -3133914.834 2  -2441989.565 1
  23709986.814    -2528012.476 2  -1969874.075 1
 91  5 13 19 35  0.0020000  0  6 16 18 02 19 06 11
  24201618.866    -2050274.539 2  -1597602.441 1
  22908512.064    12398979.838 3   9661534.654 2
  22524949.202    -8574839.087 3  -6681665.848 2
  21658733.970     4633573.310 3   3610576.378 2
  24063137.236    -3148370.760 2  -2453253.861 1
  23713069.282    -2511815.031 2  -1957252.706 2
 91  5 13 19 35 15.0020000  0  6 16 18 02 19 06 11
  24204678.552    -2034168.671 2  -1585052.401 1
  22920249.238    12460678.710 3   9709611.645 1
  22522233.085    -8589108.175 3  -6692784.591 2
  21664149.418     4662051.660 3   3632767.291 2
  24060389.935    -3162807.637 2  -2464503.349 1
  23716186.824    -2495460.941 2  -1944509.269 2
 91  5 13 19 35 30.0020000  0  6 16 18 02 19 06 11
  24207774.805    -2017916.571 2  -1572388.463 1
  22932007.404    12522466.102 3   9757757.604 2
  22519535.551    -8603287.439 3  -6703833.338 2
  21669587.360     4690594.333 3   3655008.317 2
  24057642.337    -3177218.413 2  -2475732.472 1
  23719326.249    -2478942.972 2  -1931638.123 1
 91  5 13 19 35 45.0020000  0  6 16 18 02 19 06 11
  24210897.443    -2001517.499 2  -1559610.004 1
  22943784.748    12584342.489 3   9805972.901 2
  22516853.907    -8617375.933 3  -6714811.354 2
  21675028.591     4719202.216 3   3677300.172 2
  24054916.325    -3191602.263 2  -2486940.573 1
  23722497.757    -2462260.331 2  -1918638.674 1
 91  5 13 19 36  0.0020000  0  6 16 18 02 19 06 11
  24214046.161    -1984977.161 2  -1546721.407 1
  22955571.689    12646301.775 3   9854252.808 2
  22514189.354    -8631379.308 3  -6725723.037 2
  21680483.616     4747869.607 3   3699638.381 3
  24052174.128    -3205964.940 2  -2498132.232 1
  23725708.536    -2445418.671 2  -1905515.294 1
 91  5 13 19 36 15.0020000  0  6 16 18 02 19 06 11
  24217222.170    -1968295.772 2  -1533722.933 1
  22967378.114    12708343.701 3   9902597.096 2
  22511540.385    -8645297.826 3  -6736568.606 2
  21685949.731     4776596.130 3   3722022.680 2
  24049449.608    -3220306.793 2  -2509307.657 1
  23728945.394    -2428418.228 2  -1892268.215 1
 91  5 13 19 36 30.0020000  0  6 16 18 02 19 06 11
  24220420.350    -1951474.577 2  -1520615.467 1
  22979201.631    12770466.900 3   9951004.715 2
  22508907.008    -8659132.375 3  -6747348.741 2
  21691428.139     4805380.988 3   3744452.430 2
  24046722.698    -3234628.778 2  -2520467.597 1
  23732205.034    -2411259.928 2  -1878898.111 1
 91  5 13 19 36 45.0020000  0  6 16 18 02 19 06 11
  24223647.017    -1934516.509 2  -1507401.394 1
  22991038.637    12832668.133 3   9999473.147 2
  22506287.721    -8672885.755 3  -6758065.625 2
  21696914.340     4834221.338 3   3766925.427 3
  24044001.781    -3248933.692 2  -2531614.232 1
  23735502.453    -2393946.573 2  -1865407.189 1
 91  5 13 19 37  0.0020000  0  6 16 18 02 19 06 11
  24226896.772    -1917417.745 2  -1494077.708 1
  23002890.031    12894951.061 3  10048005.230 2
  22503689.715    -8686554.313 3  -6768716.419 2
  21702415.233     4863120.993 3   3789444.618 2
  24041281.763    -3263217.910 2  -2542744.756 1
  23738824.451    -2376474.377 2  -1851792.494 1
 91  5 13 19 37 15.0020000  0  6 16 18 02 19 06 11
  24230176.802    -1900182.089 2  -1480647.387 1
  23014755.813    12957311.974 3  10096598.090 2
  22501104.911    -8700141.439 3  -6779303.752 2
  21707925.418     4892076.306 3   3812007.188 2
  24038568.342    -3277485.040 2  -2553861.936 1
  23742181.227    -2358846.884 2  -1838056.798 1
 91  5 13 19 37 30.0020000  0  6 16 18 02 19 06 11
  24233489.202    -1882810.643 2  -1467111.206 1
  23026639.891    13019749.503 3  10145250.642 2
  22498534.188    -8713648.248 3  -6789828.512 2
  21713447.889     4921086.344 3   3834612.404 3
  24035854.021    -3291736.177 2  -2564966.684 1
  23745562.591    -2341065.173 2  -1824200.914 1
 91  5 13 19 37 45.0020000  0  6 16 18 02 19 06 11
  24236812.404    -1865304.061 2  -1453469.735 1
  23038535.355    13082263.038 3  10193962.418 2
  22495978.761    -8727075.118 3  -6800290.982 2
  21718976.362     4950150.742 3   3857259.968 2
  24033145.695    -3305971.668 2  -2576059.227 1
  23748976.028    -2323129.579 2  -1810225.138 1
 91  5 13 19 38  0.0020000  0  6 16 18 02 19 06 11
  24240178.176    -1847664.662 2  -1439724.761 1
  23050443.707    13144849.896 3  10242731.338 2
  22493440.112    -8740424.260 3  -6810692.889 2
  21724520.724     4979267.118 3   3879948.050 2
  24030434.978    -3320194.049 2  -2587141.556 1
  23752417.342    -2305042.451 2  -1796131.267 1
 91  5 13 19 38 15.0020000  0  6 16 18 02 19 06 11
  24243555.037    -1829892.045 2  -1425876.032 1
  23062367.057    13207510.309 3  10291557.575 2
  22490913.163    -8753695.229 3  -6821033.873 2
  21730065.391     5008435.907 3   3902676.954 2
  24027736.546    -3334402.793 2  -2598213.247 1
  23755886.837    -2286803.252 2  -1781918.935 1
 91  5 13 19 38 30.0020000  0  6 16 18 02 19 06 11
  24246964.278    -1811986.275 2  -1411923.417 1
  23074305.388    13270244.086 3  10340440.967 2
  22488402.705    -8766888.085 3  -6831313.980 2
  21735630.440     5037657.106 3   3925446.702 2
  24025036.317    -3348598.029 2  -2609274.431 1
  23759386.322    -2268412.077 2  -1767588.150 1
 91  5 13 19 38 45.0020000  0  6 16 18 02 19 06 11
  24250396.901    -1793946.799 2  -1397866.714 1
  23086260.514    13333051.624 3  10389381.831 2
  22485908.432    -8780001.858 3  -6841532.479 2
  21741198.185     5066931.622 3   3948258.009 2
  24022340.581    -3362778.853 2  -2620324.361 1
  23762916.073    -2249867.957 2  -1753138.204 1
 91  5 13 19 39  0.0020000  0  6 16 18 02 19 06 11
  24253859.199    -1775774.651 2  -1383706.634 1
  23098224.035    13395931.643 3  10438379.193 2
  22483425.851    -8793037.556 3  -6851690.131 2
  21746783.616     5096258.474 3   3971110.083 2
  24019639.148    -3376946.290 2  -2631363.896 1
  23766475.211    -2231171.900 2  -1738569.866 1
 91  5 13 19 39 15.0020000  0  6 16 18 02 19 06 11
  24257339.497    -1757468.126 2  -1369441.835 1
  23110204.935    13458885.937 3  10487434.415 2
  22480963.355    -8805993.327 3  -6861785.508 2
  21752368.453     5125639.452 3   3994004.344 2
  24016942.819    -3391098.576 2  -2642391.602 1
  23770062.531    -2212322.147 2  -1723881.765 1
 91  5 13 19 39 30.0020000  0  6 16 18 02 19 06 11
  24260846.467    -1739033.188 2  -1355076.980 1
  23122196.036    13521908.632 3  10536542.937 2
  22478510.447    -8818874.844 3  -6871823.031 2
  21757973.672     5155069.004 3   4016936.445 2
  24014249.483    -3405241.535 2  -2653412.037 1
  23773676.828    -2193324.349 2  -1709078.301 2
 91  5 13 19 39 45.0020000  0  6 16 18 02 19 06 11
  24264379.220    -1720465.953 2  -1340609.015 1
  23134203.627    13585002.757 3  10585707.133 2
  22476072.835    -8831678.229 3  -6881799.671 2
  21763578.892     5184550.951 3   4039909.376 2
  24011564.243    -3419371.378 2  -2664422.262 1
  23777320.504    -2174174.742 2  -1694156.520 1
 91  5 13 19 40  0.0020000  0  6 16 18 02 19 06 11
  24267935.356    -1701767.546 2  -1326038.826 1
  23146223.502    13648167.558 3  10634926.400 2
  22473652.315    -8844404.357 3  -6891716.110 2
  21769200.593     5214084.408 3   4062922.452 2
  24008877.800    -3433489.053 2  -2675423.021 1
  23780991.759    -2154874.302 2  -1679117.222 1
 91  5 13 19 40 15.0020000  0  6 16 18 02 19 06 11
  24271514.579    -1682935.793 2  -1311364.690 1
  23158259.572    13711405.256 3  10684202.451 2
  22471245.878    -8857050.926 3  -6901570.549 2
  21774831.298     5243671.699 3   4085977.468 2
  24006200.954    -3447592.051 2  -2686412.330 1
  23784698.098    -2135420.575 2  -1663958.472 1
 91  5 13 19 40 30.0020000  0  6 16 18 02 19 06 11
  24275125.282    -1663970.888 2  -1296586.931 1
  23170304.332    13774715.392 3  10733534.955 1
  22468855.338    -8869617.984 3  -6911363.032 2
  21780477.587     5273312.618 3   4109074.274 2
  24003514.510    -3461680.753 2  -2697390.496 1
  23788427.515    -2115813.687 2  -1648680.385 2
 91  5 13 19 40 45.0020000  0  6 16 18 02 19 06 11
  24278766.558    -1644876.488 2  -1281708.192 1
  23182363.182    13838093.732 3  10782920.603 2
  22466475.285    -8882109.207 3  -6921096.432 2
  21786118.186     5303003.600 3   4132210.077 2
  24000837.367    -3475758.755 2  -2708360.313 1
  23792184.215    -2096057.438 2  -1633285.920 1
 91  5 13 19 41  0.0020000  0  6 16 18 02 19 06 11
  24282424.926    -1625649.882 2  -1266726.460 1
  23194442.720    13901543.342 3  10832361.803 1
  22464115.021    -8894521.514 3  -6930768.333 2
  21791780.965     5332747.729 3   4155387.313 2
  23998159.919    -3489823.086 2  -2719319.509 1
  23795977.788    -2076148.739 2  -1617772.654 2
 91  5 13 19 41 15.0020000  0  6 16 18 02 19 06 11
  24286097.988    -1606293.237 2  -1251643.371 1
  23206527.354    13965061.802 3  10881856.625 2
  22461765.244    -8906856.789 3  -6940380.206 2
  21797449.738     5362543.009 3   4178604.409 2
  23995485.167    -3503875.921 2  -2730269.743 1
  23799792.048    -2056089.641 2  -1602142.185 1
 91  5 13 19 41 30.0020000  0  6 16 18 02 19 06 11
  24289810.914    -1586811.799 2  -1236463.013
  23218624.883    14028643.594 3  10931400.824 1
  22459430.763    -8919120.159 3  -6949936.055 2
  21803137.401     5392384.289 3   4201857.342 2
  23992815.520    -3517922.309 2  -2741214.932 1
  23803635.388    -2035885.232 2  -1586398.515 1
 91  5 13 19 41 45.0020000  0  6 16 18 02 19 06 11
  24293544.833    -1567201.790 2  -1221182.552 1
  23230738.292    14092292.507 2  10980997.308 1
  22457114.866    -8931307.817 3  -6959432.908 2
  21808816.068     5422275.231 3   4225148.965 2
  23990141.972    -3531958.482 2  -2752152.176 1
  23807511.701    -2015531.641 2  -1570538.588 1
 91  5 13 19 42  0.0020000  0  6 16 18 02 19 06 11
  24297303.924    -1547460.678 2  -1205799.859 1
  23242863.698    14156010.709 2  11030647.796 2
  22454810.059    -8943417.410 3  -6968868.935 2
  21814524.122     5452218.639 3   4248481.480 2
  23987476.216    -3545981.887 2  -2763079.455 1
  23811415.001    -1995026.248 2  -1554560.371 1
 91  5 13 19 42 15.0020000  0  6 16 18 02 19 06 11
  24301080.710    -1527591.405 2  -1190317.317 1
  23255000.499    14219795.292 3  11080349.992 2
  22452518.741    -8955451.574 3  -6978246.182 2
  21820223.773     5482211.771 3   4271852.743 2
  23984807.161    -3559995.370 2  -2773999.027 1
  23815341.684    -1974371.933 2  -1538466.099 2
 91  5 13 19 42 30.0020000  0  6 16 18 02 19 06 11
  24304886.576    -1507594.808 2  -1174735.612 1
  23267150.187    14283645.491 2  11130103.321 1
  22450245.117    -8967410.681 3  -6987564.952 2
  21825945.909     5512254.128 3   4295262.361 2
  23982143.804    -3573999.442 2  -2784911.283 1
  23819298.939    -1953569.202 2  -1522256.180 2
 91  5 13 19 42 45.0020000  0  6 16 18 02 19 06 11
  24308718.225    -1487465.799 2  -1159050.698 1
  23279315.467    14347565.991 3  11179911.438 1
  22447982.286    -8979289.669 3  -6996821.279 2
  21831666.849     5542350.886 3   4318714.358 2
  23979477.751    -3587989.035 2  -2795812.197 1
  23823287.684    -1932613.029 2  -1505926.708 1
 91  5 13 19 43  0.0020000  0  6 16 18 02 19 06 11
  24312571.155    -1467210.238 2  -1143267.132 1
  23291491.539    14411550.598 3  11229769.501 2
  22445734.445    -8991094.445 3  -7006019.785 2
  21837408.774     5572496.060 3   4342204.086 2
  23976818.591    -3601970.211 2  -2806706.606 1
  23827307.298    -1911509.331 2  -1489482.264 2
 91  5 13 19 43 15.0020000  0  6 16 18 02 19 06 11
  24316442.677    -1446831.117 2  -1127387.351 1
  23303678.998    14475596.515 3  11279675.324 2
  22443504.290    -9002827.523 3  -7015162.424 2
  21843151.597     5602686.960 3   4365729.451 2
  23974161.534    -3615945.528 2  -2817596.424 1
  23831348.803    -1890260.822 2  -1472924.993 2
 91  5 13 19 43 30.0020000  0  6 16 18 02 19 06 11
  24320354.667    -1426326.068 2  -1111409.427 1
  23315880.854    14539705.740 3  11329630.494 1
  22441284.622    -9014486.660 3  -7024247.443 2
  21848905.221     5632925.997 3   4389292.327 2
  23971499.075    -3629912.700 2  -2828479.903 1
  23835421.178    -1868865.131 2  -1456253.023 1
 91  5 13 19 43 45.0020000  0  6 16 18 02 19 06 11
  24324279.256    -1405696.757 2  -1095334.684 1
  23328089.296    14603876.966 2  11379633.972 1
  22439082.047    -9026073.129 3  -7033275.835 2
  21854665.730     5663212.023 3   4412891.808 2
  23968846.817    -3643872.993 2  -2839358.012 1
  23839517.547    -1847323.476 2  -1439467.323 1
 91  5 13 19 44  0.0020000  0  6 16 18 02 19 06 11
  24328225.117    -1384939.355 2  -1079160.111 1
  23340314.238    14668113.664 3  11429688.464 1
  22436889.366    -9037582.895 3  -7042244.466 2
  21860442.729     5693548.885 3   4436530.903 2
  23966188.555    -3657822.571 2  -2850227.784 1
  23843647.787    -1825631.988 2  -1422564.894 1
 91  5 13 19 44 15.0020000  0  6 16 18 02 19 06 11
  24332200.669    -1364051.507 2  -1062883.895 1
  23352552.067    14732418.102 2  11479795.762 1
  22434716.770    -9049013.421 3  -7051151.352 2
  21866225.130     5723939.410 3   4460211.810 2
  23963538.984    -3671758.868 2  -2861087.192 1
  23847804.106    -1803788.244 2  -1405543.781 2
 91  5 13 19 44 30.0020000  0  6 16 18 02 19 06 11
  24336201.995    -1343034.990 2  -1046507.413 1
  23364798.290    14796788.235 2  11529954.256 1
  22432557.061    -9060366.413 3  -7059997.818 2
  21872016.517     5754381.592 3   4483932.992 2
  23960890.617    -3685683.542 2  -2871937.579 1
  23851988.616    -1781794.013 2  -1388405.445 2
 91  5 13 19 44 45.0020000  0  6 16 18 02 19 06 11
  24340218.913    -1321887.206 2  -1030028.617 1
  23377061.893    14861226.488 2  11580165.788 1
  22430409.646    -9071639.416 3  -7068781.960 2
  21877819.002     5784878.034 3   4507696.443 2
  23958242.250    -3699594.298 2  -2882777.089 1
  23856204.893    -1759646.830 2  -1371147.920 2
 91  5 13 19 45  0.0020000  0  6 16 18 02 19 06 11
  24344272.110    -1300609.981 2  -1013449.057 1
  23389336.899    14925730.703 2  11630428.751 1
  22428279.926    -9082833.983 3  -7077504.983 2
  21883635.578     5815427.157 3   4531500.932 2
  23955594.188    -3713492.702 2  -2893606.986 1
  23860449.057    -1737348.234 2  -1353772.381 1
 91  5 13 19 45 15.0020000  0  6 16 18 02 19 06 11
  24348347.792    -1279203.999 2   -996769.073 1
  23401621.792    14990300.759 2  11680743.008 2
  22426165.492    -9093950.305 3  -7086167.035 2
  21889455.749     5846028.821 3   4555346.365 2
  23952955.418    -3727378.907 2  -2904427.390 1
  23864720.198    -1714898.386 2  -1336279.010 2
 91  5 13 19 45 30.0020000  0  6 16 18 02 19 06 11
  24352447.450    -1257665.868 2   -979986.193 1
  23413924.675    15054939.493 2  11731110.764 2
  22424063.648    -9104984.975 3  -7094765.464 2
  21895286.705     5876686.319 3   4579235.316 2
  23950314.546    -3741249.747 2  -2915235.792 1
  23869023.117    -1692294.041 2  -1318665.243 2
 91  5 13 19 45 45.0020000  0  6 16 18 02 19 06 11
  24356563.302    -1235995.299 2   -963100.014 1
  23426236.554    15119647.227 2  11781532.308 1
  22421980.982    -9115937.567 3  -7103299.926 2
  21901131.760     5907400.175 3   4603168.179 2
  23947681.762    -3755104.787 2  -2926031.895 1
  23873350.020    -1669534.895 2  -1300930.842 2
 91  5 13 19 46  0.0020000  0  6 16 18 02 19 06 11
  24360724.420    -1214189.053 2   -946108.185 1
  23438564.321    15184426.909 2  11832009.893 1
  22419909.719    -9126804.715 3  -7111767.815 2
  21906991.805     5938173.562 3   4627147.423 2
  23945047.189    -3768940.644 2  -2936813.049 1
  23877711.100    -1646617.627 2  -1283073.236 1
 91  5 13 19 46 15.0020000  0  6 16 18 02 19 06 11
  24364902.927    -1192249.178 2   -929012.205 1
  23450905.578    15249276.544 2  11882541.998 1
  22417860.340    -9137588.191 3  -7120170.505 2
  21912854.842     5969004.936 3   4651171.856 2
  23942416.211    -3782759.076 2  -2947580.637 1
  23882100.964    -1623543.983 2  -1265093.800 1
 91  5 13 19 46 30.0030000  0  6 16 18 02 19 06 11
  24369093.425    -1170174.365 2   -911811.070 1
  23463258.520    15314200.200 2  11933131.783 2
  22415822.951    -9148288.685 3  -7128508.538 2
  21918735.272     5999896.456 3   4675243.161 2
  23939792.426    -3796561.086 2  -2958335.421 1
  23886522.905    -1600312.431 3  -1246991.302 1
 91  5 13 19 46 45.0030000  0  6 16 18 02 19 06 11
  24373312.111    -1147969.755 2   -894508.856 1
  23475629.756    15379186.748 2  11983770.561 1
  22413804.450    -9158907.202 3  -7136782.691 2
  21924626.195     6030841.600 3   4699356.247 2
  23937164.144    -3810347.209 2  -2969077.823 1
  23890974.822    -1576928.546 2  -1228770.090 2
 91  5 13 19 47  0.0030000  0  6 16 18 02 19 06 11
  24377578.454    -1125627.337 2   -877099.215 1
  23488009.089    15444247.266 2  12034467.004 1
  22411799.132    -9169437.151 3  -7144987.826 2
  21930526.114     6061849.515 3   4723518.247 2
  23934548.461    -3824111.377 2  -2979803.152 1
  23895453.726    -1553383.704 2  -1210423.469 2
 91  5 13 19 47 15.0030000  0  6 16 18 02 19 06 11
  24381853.190    -1103148.655 2   -859583.382 1
  23500400.707    15509380.041 2  12085219.746 1
  22409810.610    -9179879.982 3  -7153125.091 2
  21936436.520     6092918.928 3   4747728.154 2
  23931928.572    -3837854.858 2  -2990512.263 1
  23899967.992    -1529679.359 2  -1191952.583 1
 91  5 13 19 47 30.0030000  0  6 16 18 02 19 06 11
  24386158.211    -1080528.562 2   -841957.376 1
  23512811.223    15574589.275 2  12136032.043 1
  22407842.173    -9190230.868 3  -7161190.699 2
  21942360.424     6124054.563 3   4771989.674 2
  23929316.781    -3851572.974 2  -3001201.695 1
  23904507.457    -1505810.736 2  -1173353.661 2
 91  5 13 19 47 45.0030000  0  6 16 18 02 19 06 11
  24390485.115    -1057760.967 2   -824216.439 1
  23525240.315    15639881.651 2  12186909.141 1
  22405890.828    -9200483.271 3  -7169179.568 2
  21948299.309     6155263.177 3   4796308.058 2
  23926715.477    -3865259.118 2  -3011866.208 1
  23909081.386    -1481771.331 2  -1154621.671 1
 91  5 13 19 48  0.0030000  0  6 16 18 02 19 06 11
  24394842.600    -1034849.730 2   -806363.528 1
  23537677.208    15705253.125 2  12237847.874 1
  22403958.060    -9210640.817 3  -7177094.519 2
  21954257.686     6186540.948 3   4820680.335 2
  23924118.082    -3878916.917 2  -3022508.613 1
  23913689.797    -1457564.861 2  -1135759.502 1
 91  5 13 19 48 15.0030000  0  6 16 18 02 19 06 11
  24399227.063    -1011792.876 2   -788397.201 1
  23550129.386    15770705.967 2  12288849.987 1
  22402045.987    -9220701.155 3  -7184933.733 2
  21960219.055     6217890.228 3   4845108.319 2
  23921523.671    -3892544.205 2  -3033127.258 1
  23918324.592    -1433189.067 2  -1116765.381 1
 91  5 13 19 48 30.0030000  0  6 16 18 02 19 06 11
  24403644.813     -988590.386 2   -770317.379 1
  23562603.753    15836239.720 2  12339915.170 1
  22400148.599    -9230664.250 3  -7192697.171 2
  21966199.018     6249311.032 3   4869592.043 2
  23918934.364    -3906140.946 2  -3043722.076 1
  23922999.252    -1408643.979 2  -1097639.364 1
 91  5 13 19 48 45.0030000  0  6 16 18 02 19 06 11
  24408091.931     -965243.041 2   -752124.695 1
  23575088.607    15901853.378 2  12391042.610 1
  22398267.997    -9240530.904 3  -7200385.452 2
  21972192.767     6280802.609 3   4894130.909 2
  23916353.154    -3919707.849 2  -3054293.669 1
  23927702.993    -1383930.288 2  -1078381.946 1
 91  5 13 19 49  0.0030000  0  6 16 18 02 19 06 11
  24412558.838     -941751.462 2   -733819.602 1
  23587588.451    15967546.097 2  12442231.656 1
  22396411.085    -9250301.434 3  -7207998.839 2
  21978198.512     6312364.701 3   4918724.733 2
  23913780.032    -3933245.371 2  -3064842.374 1
  23932432.526    -1359048.583 3  -1058993.604 1
 91  5 13 19 49 15.0030000  0  6 16 18 02 19 06 11
  24417053.926     -918116.310 2   -715402.632 1
  23600105.684    16033317.621 2  12493482.123 1
  22394570.663    -9259976.129 3  -7215537.542 3
  21984215.347     6343997.156 3   4943373.389 2
  23911206.613    -3946753.810 2  -3075368.392 1
  23937202.220    -1333999.141 2  -1039474.578 1
 91  5 13 19 49 30.0030000  0  6 16 18 02 19 06 11
  24421582.293     -894339.521 2   -696875.320 1
  23612633.117    16099165.933 2  12544792.395 1
  22392747.324    -9269556.757 3  -7223002.962 2
  21990248.367     6375698.055 3   4968075.368 2
  23908641.588    -3960234.974 2  -3085873.183 1
  23942001.597    -1308783.772 2  -1019826.238 2
 91  5 13 19 49 45.0030000  0  6 16 18 02 19 06 11
  24426137.637     -870421.569 2   -678238.000 1
  23625181.228    16165089.974 2  12596161.689 1
  22390940.773    -9279044.084 3  -7230395.669 2
  21996293.079     6407466.701 3   4992830.134 2
  23906083.159    -3973689.613 2  -3096357.308 1
  23946828.257    -1283403.349 2  -1000049.315 1
 91  5 13 19 50  0.0030000  0  6 16 18 02 19 06 11
  24430716.670     -846366.254 2   -659493.634 1
  23637739.234    16231086.262 2  12647587.274 1
  22389155.511    -9288441.147 3  -7237718.053 2
  22002354.883     6439300.127 3   5017635.387 2
  23903525.935    -3987120.874 2  -3106823.210 1
  23951691.485    -1257860.951 2   -980146.178 1
 91  5 13 19 50 15.0030000  0  6 16 18 02 19 06 11
  24435321.181     -822172.572 2   -640641.413 1
  23650310.432    16297155.473 2  12699069.713 1
  22387384.340    -9297747.015 3  -7244969.361 2
  22008421.190     6471199.379 3   5042491.929 2
  23900975.001    -4000527.674 2  -3117270.003 1
  23956580.207    -1232155.685 3   -960116.113 1
 91  5 13 19 50 30.0030000  0  6 16 18 02 19 06 11
  24439942.182     -797837.183 2   -621678.837 1
  23662903.216    16363300.933 2  12750611.556 1
  22385629.948    -9306958.275 3  -7252146.957 2
  22014512.372     6503167.910 3   5067402.451 2
  23898428.264    -4013906.697 2  -3127695.225 1
  23961509.091    -1206284.195 3   -939956.540 1
 91  5 13 19 50 45.0030000  0  6 16 18 02 19 06 11
  24444599.156     -773363.968 2   -602608.853 1
  23675501.688    16429518.404 2  12802209.486 1
  22383893.250    -9316078.766 3  -7259253.826 3
  22020597.559     6535201.961 3   5092364.031 2
  23895886.020    -4027261.717 2  -3138101.710 1
  23966460.468    -1180250.328 2   -919670.417 1
 91  5 13 19 51  0.0030000  0  6 16 18 02 19 06 11
  24449287.611     -748747.533 2   -583427.269 1
  23688116.957    16495813.313 2  12853867.771 1
  22382178.138    -9325102.746 3  -7266285.486 3
  22026713.320     6567307.322 3   5117381.175 2
  23893350.381    -4040587.118 2  -3148485.115 1
  23971447.513    -1154048.484 2   -899253.403 1
 91  5 13 19 51 15.0030000  0  6 16 18 02 19 06 11
  24453998.847     -723989.953 2   -564135.674 1
  23700740.017    16562183.448 2  12905584.673 1
  22380477.422    -9334032.171 3  -7273243.466 2
  22032830.293     6599481.679 3   5142452.082 2
  23890822.525    -4053884.978 2  -3158847.066 1
  23976464.241    -1127680.859 2   -878707.211 2
 91  5 13 19 51 30.0030000  0  6 16 18 02 19 06 11
  24458742.767     -699093.219 2   -544735.744 1
  23713388.563    16628626.928 2  12957358.723 1
  22378797.079    -9342868.607 3  -7280128.990 3
  22038968.843     6631723.664 3   5167575.686 2
  23888297.976    -4067156.895 2  -3169188.779 1
  23981510.949    -1101149.053 2   -858033.085 2
 91  5 13 19 51 45.0030000  0  6 16 18 02 19 06 11
  24463501.075     -674058.902 2   -525228.485 1
  23726047.003    16695142.021 2  13009188.558 1
  22377131.133    -9351613.308 3  -7286943.035 2
  22045116.686     6664031.889 3   5192750.920 2
  23885777.920    -4080403.993 2  -3179511.192 1
  23986592.130    -1074454.436 2   -837232.105 2
 91  5 13 19 52  0.0030000  0  6 16 18 02 19 06 11
  24468295.653     -648887.070 2   -505614.074 1
  23738714.430    16761728.271 2  13061073.871 1
  22375485.874    -9360266.801 3  -7293686.009 3
  22051282.214     6696405.941 3   5217977.436 2
  23883262.358    -4093626.856 2  -3189814.693 1
  23991703.290    -1047597.519 2   -816304.660 1
 91  5 13 19 52 15.0030000  0  6 16 18 02 19 06 11
  24473113.013     -623577.765 2   -485892.595 1
  23751398.950    16828386.038 2  13113014.875 1
  22373855.902    -9368828.488 3  -7300357.446 2
  22057451.346     6728846.641 3   5243255.886 2
  23880748.000    -4106824.839 2  -3200098.801 1
  23996842.632    -1020577.782 2   -795250.323 1
 91  5 13 19 52 30.0030000  0  6 16 18 02 19 06 11
  24477949.567     -598128.766 2   -466062.279 1
  23764097.561    16895117.300 2  13165013.191 1
  22372246.320    -9377295.944 3  -7306955.448 2
  22063635.764     6761356.508 3   5268588.228 2
  23878243.536    -4119995.543 2  -3210361.677 1
  24002016.150     -993392.775 3   -774067.197 1
 91  5 13 19 52 45.0030000  0  6 16 18 02 19 06 11
  24482826.589     -572540.940 2   -446123.744 1
  23776815.951    16961921.196 2  13217068.065 1
  22370651.422    -9385669.799 3  -7313480.524 2
  22069836.969     6793934.530 3   5293973.681 2
  23875738.173    -4133139.752 2  -3220603.889 1
  24007223.243     -966043.438 3   -752756.074 1
 91  5 13 19 53  0.0030000  0  6 16 18 02 19 06 11
  24487718.609     -546812.276 2   -426075.487 1
  23789540.048    17028799.465 2  13269180.891 1
  22369076.610    -9393947.932 3  -7319931.009 2
  22076057.065     6826583.063 3   5319414.073 2
  23873245.095    -4146255.288 2  -3230823.785 1
  24012454.626     -938527.516 3   -731315.088 1
 91  5 13 19 53 15.0030000  0  6 16 18 02 19 06 11
  24492637.895     -520946.717 2   -405920.517 1
  23802280.626    17095748.198 2  13321348.683 1
  22367519.492    -9402134.082 3  -7326309.814 3
  22082276.261     6859298.468 3   5344906.574 2
  23870752.620    -4159345.823 2  -3241024.160 2
  24017724.679     -910848.911 3   -709747.398 1
 91  5 13 19 53 30.0030000  0  6 16 18 02 19 06 11
  24497587.475     -494939.390 2   -385655.197 1
  23815033.795    17162771.654 2  13373574.648 1
  22365978.856    -9410223.441 3  -7332613.206 2
  22088514.042     6892085.554 3   5370454.936 2
  23868270.640    -4172406.700 2  -3251201.457 1
  24023022.304     -883003.226 2   -688049.445 2
 91  5 13 19 53 45.0030000  0  6 16 18 02 19 06 11
  24502565.830     -468791.036 2   -365279.832 1
  23827803.158    17229869.433 2  13425858.542 1
  22364458.305    -9418216.483 3  -7338841.541 3
  22094765.914     6924943.924 3   5396058.836 2
  23865790.153    -4185438.203 2  -3261355.844 1
  24028352.918     -854990.697 2   -666221.526 1
 91  5 13 19 54  0.0030000  0  6 16 18 02 19 06 11
  24507568.162     -442497.907 2   -344791.784 1
  23840582.406    17297045.308 2  13478203.279 1
  22362956.950    -9426109.149 3  -7344991.655 3
  22101041.763     6957877.629 3   5421721.454 2
  23863314.473    -4198436.354 2  -3271484.245 1
  24033717.106     -826807.267 3   -644260.424 1
 91  5 13 19 54 15.0030000  0  6 16 18 02 19 06 11
  24512601.381     -416058.855 2   -324189.946 1
  23853383.842    17364300.415 2  13530609.754 1
  22361475.077    -9433899.936 3  -7351062.392 3
  22107318.824     6990888.068 3   5447443.848 2
  23860849.281    -4211399.771 2  -3281585.593 1
  24039115.165     -798451.750 3   -622165.233 2
 91  5 13 19 54 30.0030000  0  6 16 18 02 19 06 11
  24517653.481     -389478.844 2   -303478.344 1
  23866194.876    17431629.504 2  13583073.911 1
  22360010.288    -9441593.683 3  -7357057.507 3
  22113617.158     7023970.570 3   5473222.407 2
  23858390.676    -4224333.331 2  -3291663.677 1
  24044543.212     -769929.019 3   -599939.742 1
 91  5 13 19 54 45.0030000  0  6 16 18 02 19 06 11
  24522741.563     -362757.397 2   -282656.451 1
  23879018.500    17499033.101 2  13635596.085 1
  22358564.686    -9449189.586 3  -7362976.391 2
  22119920.900     7057125.792 3   5499057.615 2
  23855929.986    -4237236.196 2  -3301717.819 1
  24049999.433     -741238.518 3   -577583.535 1
 91  5 13 19 55  0.0030000  0  6 16 18 02 19 06 11
  24527861.413     -335890.532 2   -261721.288 1
  23891866.109    17566515.310 2  13688179.541 1
  22357138.279    -9456683.592 3  -7368815.865 3
  22126248.018     7090357.969 3   5524952.797 2
  23853482.480    -4250104.265 2  -3311744.884 1
  24055493.730     -712376.098 3   -555093.342 1
 91  5 13 19 55 15.0030000  0  6 16 18 02 19 06 11
  24532994.761     -308882.952 2   -240676.507 1
  23904720.908    17634070.947 2  13740820.194 1
  22355730.151    -9464080.491 3  -7374579.665 3
  22132582.028     7123662.361 3   5550904.254 2
  23851038.568    -4262942.407 2  -3321748.636 1
  24061018.303     -683346.588 3   -532472.966 1
 91  5 13 19 55 30.0030000  0  6 16 18 02 19 06 11
  24538161.081     -281734.966 2   -219522.263 1
  23917590.095    17701699.342 2  13793517.552 1
  22354340.015    -9471380.419 3  -7380267.915 3
  22138935.234     7157038.829 3   5576911.877 2
  23848601.261    -4275750.665 2  -3331729.054 1
  24066573.161     -654150.180 3   -509722.549 1
 91  5 13 19 55 45.0030000  0  6 16 18 02 19 06 11
  24543357.686     -254445.997 2   -198258.225 1
  23930471.278    17769401.437 2  13846272.347 1
  22352972.363    -9478582.198 3  -7385879.682 3
  22145297.731     7190488.563 3   5602976.583 2
  23846168.744    -4288527.966 2  -3341685.361 1
  24072160.093     -624786.011 2   -486841.377 2
 91  5 13 19 56  0.0030000  0  6 16 18 02 19 06 11
  24548576.174     -227017.238 2   -176885.169 1
  23943370.148    17837176.059 2  13899083.624 1
  22351621.192    -9485686.910 3  -7391415.815 2
  22151679.110     7224010.578 3   5629097.606 2
  23843744.316    -4301275.413 2  -3351618.410 1
  24077780.598     -595255.209 2   -463830.378 1
 91  5 13 19 56 15.0030000  0  6 16 18 02 19 06 11
  24553824.039     -199450.410 2   -155404.586 1
  23956279.217    17905021.303 2  13951949.960 1
  22350284.418    -9492696.098 3  -7396877.511 2
  22158072.189     7257603.356 3   5655273.777 2
  23841327.094    -4313994.410 2  -3361529.277 1
  24083432.890     -565559.287 2   -440690.727 1
 91  5 13 19 56 30.0030000  0  6 16 18 02 19 06 11
  24559087.496     -171744.595 2   -133815.711 1
  23969204.166    17972937.899 2  14004871.882 1
  22348970.731    -9499608.634 3  -7402263.893 3
  22164478.452     7291267.842 3   5681505.831 2
  23838912.263    -4326683.866 2  -3371417.169 1
  24089115.152     -535697.339 3   -417421.681 1
 91  5 13 19 56 45.0030000  0  6 16 18 02 19 06 11
  24564386.333     -143900.853 2   -112119.362 1
  23982141.705    18040924.980 2  14057848.729 1
  22347672.932    -9506425.387 3  -7407575.637 3
  22170897.009     7325003.447 3   5707793.293 2
  23836504.028    -4339344.672 2  -3381282.715 1
  24094828.597     -505670.265 3   -394023.985 2
 91  5 13 19 57  0.0030000  0  6 16 18 02 19 06 11
  24569717.540     -115921.639 2    -90317.415 1
  23995089.749    18108979.816 2  14110878.364 1
  22346394.014    -9513148.734 3  -7412814.595 3
  22177333.548     7358807.785 3   5734134.306 2
  23834096.396    -4351979.197 2  -3391127.790 1
  24100574.422     -475480.539 3   -370499.525 1
 91  5 13 19 57 15.0030000  0  6 16 18 02 19 06 11
  24575067.637      -87805.009 2    -68408.414 1
  24008057.267    18177104.176 2  14163962.183 1
  22345130.688    -9519776.546 3  -7417979.121 3
  22183773.097     7392683.252 3   5760530.751 2
  23831694.757    -4364585.208 2  -3400950.607 1
  24106349.920     -445126.072 3   -346846.695 1
 91  5 13 19 57 30.0030000  0  6 16 18 02 19 06 11
  24580443.212      -59554.404 2    -46395.036 1
  24021031.687    18245294.822 2  14217097.640 1
  22343886.846    -9526311.945 3  -7423071.619 3
  22190233.019     7426626.607 3   5786980.093 2
  23829300.919    -4377166.029 2  -3410753.825 1
  24112156.306     -414610.176 3   -323068.100 1
 91  5 13 19 57 45.0030000  0  6 16 18 02 19 06 11
  24585843.670      -31169.722 2    -24277.169 1
  24034017.494    18313551.775 2  14270284.786 1
  22342662.198    -9532754.925 3  -7428092.119 3
  22196705.541     7460638.041 3   5813482.485 2
  23826915.465    -4389721.291 2  -3420537.148 1
  24117994.163     -383932.860 3   -299163.722 1
 91  5 13 19 58  0.0030000  0  6 16 18 02 19 06 11
  24591272.913       -2653.793 2     -2056.993 1
  24047022.792    18381872.012 2  14323521.229 1
  22341451.336    -9539107.872 3  -7433042.458 3
  22203188.855     7494714.978 3   5840035.925 2
  23824533.022    -4402253.662 2  -3430302.596 1
  24123861.702     -353096.759 2   -275135.610 1
 91  5 13 19 58 15.0030000  0  6 16 18 02 19 06 11
  24596719.841       25992.794 2     20264.941 1
  24060034.687    18450254.687 2  14376806.306 1
  22340261.458    -9545371.117 3  -7437922.907 3
  22209687.150     7528856.931 3   5866640.017 2
  23822150.265    -4414763.557 2  -3440050.531 1
  24129761.010     -322102.415 2   -250984.186 1
 91  5 13 19 58 30.0030000  0  6 16 18 02 19 06 11
  24602203.345       54766.752 2     42686.153 1
  24073059.765    18518696.627 2  14430137.587 2
  22339085.069    -9551547.770 3  -7442735.872 2
  22216199.842     7563060.992 3   5893292.508 2
  23819771.416    -4427253.900 2  -3449783.227 1
  24135686.712     -290952.918 2   -226711.881 2
 91  5 13 19 58 45.0030000  0  6 16 18 02 19 06 11
  24607693.751       83667.340 2     65206.034 1
  24086097.145    18587197.008 2  14483514.419 1
  22337925.476    -9557638.183 3  -7447481.643 3
  22222718.528     7597326.682 3   5919993.026 2
  23817395.263    -4439725.249 2  -3459501.171 1
  24141643.884     -259648.888 2   -202319.139 1
 91  5 13 19 59  0.0030000  0  6 16 18 02 19 06 11
  24613224.022      112695.137 2     87825.018 1
  24099141.410    18655756.264 2  14536937.099 1
  22336784.162    -9563642.100 3  -7452160.007 3
  22229248.609     7631654.545 3   5946741.995 2
  23815027.199    -4452177.164 2  -3469203.948 1
  24147630.443     -228189.993 2   -177805.717 2
 91  5 13 19 59 15.0030000  0  6 16 18 02 19 06 11
  24618771.079      141849.437 2    110542.595 1
  24112194.373    18724374.001 2  14590405.382 1
  22335658.143    -9569559.377 3  -7456770.868 3
  22235791.882     7666044.703 3   5973539.501 2
  23812662.433    -4464609.567 2  -3478891.489 1
  24153649.076     -196576.261 2   -153171.670 1
 91  5 13 19 59 30.0030000  0  6 16 18 02 19 06 11
  24624337.629      171124.827 2    133354.550 1
  24125266.523    18793044.559 2  14643914.804 1
  22334548.615    -9575395.386 3  -7461318.403 3
  22242351.942     7700491.821 3   6000381.394 2
  23810300.371    -4477027.725 2  -3488567.973 1
  24159690.498     -164813.115 2   -128421.180 1
 91  5 13 19 59 45.0030000  0  6 16 18 02 19 06 11
  24629935.354      200526.850 2    156265.132 1
  24138346.474    18861773.370 2  14697469.593 1
  22333454.067    -9581144.561 3  -7465798.272 3
  22248915.894     7735001.601 3   6027272.095 2
  23807943.702    -4489426.044 2  -3498228.948 1
  24165765.486     -132895.114 2   -103550.025 1
 91  5 13 20  0  0.0030000  0  6 16 18 02 19 06 11
  24635549.263      230054.383 2    179273.577 1
  24151437.505    18930559.375 2  14751069.000 1
  22332376.918    -9586807.537 3  -7470210.973 3
  22255494.844     7769573.317 3   6054211.079 2
  23805584.939    -4501805.271 2  -3507875.099 1
  24171868.961     -100823.172 2    -78558.915 1
 91  5 13 20  0 15.0030000  0  6 16 18 02 19 06 11
  24641193.458      259706.920 2    202379.357 1
  24164534.539    18999401.503 2  14804712.078 1
  22331313.257    -9592384.935 3  -7474556.987 3
  22262088.173     7804206.573 3   6081198.016 2
  23803233.661    -4514165.973 2  -3517506.766 1
  24177999.424      -68597.852 2    -53448.317 2
 91  5 13 20  0 30.0030000  0  6 16 18 02 19 06 11
  24646868.225      289485.944 2    225583.757 1
  24177651.056    19068301.785 2  14858400.512 1
  22330271.174    -9597874.755 3  -7478834.761 3
  22268689.905     7838903.292 3   6108234.398 2
  23800885.089    -4526506.131 2  -3527122.463 1
  24184162.256      -36217.317 2    -28216.742 2
 91  5 13 20  0 45.0030000  0  6 16 18 02 19 06 11
  24652551.996      319388.609 2    248884.456 1
  24190769.676    19137257.100 2  14912131.811 1
  22329243.190    -9603279.764 3  -7483046.449 3
  22275304.829     7873660.726 3   6135318.089 2
  23798539.815    -4538828.521 2  -3536724.295 1
  24190352.668       -3684.546 2     -2866.540 1
 91  5 13 20  1  0.0030000  0  6 16 18 02 19 06 11
  24658272.937      349417.211 2    272283.316 1
  24203900.887    19206269.892 2  14965907.897 1
  22328227.491    -9608597.340 3  -7487190.010 3
  22281927.544     7908481.534 3   6162451.154 2
  23796197.838    -4551130.467 2  -3546310.207 1
  24196572.458       29003.039 2     22604.289 1
 91  5 13 20  1 15.0030000  0  6 16 18 02 19 06 11
  24663998.371      379569.036 2    295778.155 1
  24217042.288    19275337.126 2  15019726.428 1
  22327233.379    -9613829.989 3  -7491267.387 3
  22288567.047     7943363.056 3   6189631.551 2
  23793862.449    -4563414.606 2  -3555882.225 1
  24202824.636       61842.650 2     48193.566 1
 91  5 13 20  1 30.0030000  0  6 16 18 02 19 06 11
  24669761.881      409840.936 2    319366.583 1
  24230198.382    19344455.769 2  15073584.972 1
  22326253.959    -9618980.718 3  -7495280.936 3
  22295217.639     7978302.654 3   6216857.185 2
  23791526.467    -4575683.648 2  -3565442.480 1
  24209103.486       94831.387 3     73899.047 2
 91  5 13 20  1 45.0030000  0  6 16 18 02 19 06 11
  24675550.572      440236.316 2    343051.211 1
  24243363.769    19413628.896 2  15127485.989 1
  22325291.623    -9624046.235 3  -7499228.086 3
  22301876.031     8013303.647 3   6244130.665 2
  23789195.886    -4587934.309 2  -3574988.442 1
  24215408.424      127972.467 2     99723.255 1
 91  5 13 20  2  0.0030000  0  6 16 18 02 19 06 11
  24681355.151      470753.175 2    366830.525 1
  24256533.352    19482854.526 2  15181427.909 1
  22324342.480    -9629028.119 4  -7503110.068 3
  22308550.015     8048364.358 3   6271450.675 2
  23786870.392    -4600168.351 2  -3584521.435 1
  24221744.231      161263.881 2    125664.604 1
 91  5 13 20  2 15.0030000  0  6 16 18 02 19 06 11
  24687190.914      501393.245 2    390705.841 1
  24269718.527    19552134.324 2  15235412.072 1
  22323410.725    -9633924.442 4  -7506925.381 3
  22315230.290     8083486.893 3   6298818.855 2
  23784543.100    -4612383.669 2  -3594039.813 1
  24228105.534      194707.567 2    151724.620 1
 91  5 13 20  2 30.0030000  0  6 16 18 02 19 06 11
  24693044.659      532151.951 2    414673.620 1
  24282912.689    19621463.719 2  15289434.834 1
  22322492.756    -9638739.489 4  -7510677.356 3
  22321925.851     8118667.064 3   6326231.946 2
  23782224.210    -4624584.585 2  -3603547.016 1
  24234498.002      228299.137 2    177899.828 1
 91  5 13 20  2 45.0030000  0  6 16 18 02 19 06 11
  24698923.289      563029.987 2    438734.362 1
  24296112.549    19690843.480 2  15343496.883 1
  22321591.584    -9643472.321 4  -7514365.266 3
  22328633.706     8153905.596 3   6353690.522 2
  23779905.914    -4636770.103 2  -3613042.196 1
  24240919.264      262039.296 3    204190.867 1
 91  5 13 20  3  0.0030000  0  6 16 18 02 19 06 11
  24704813.915      594027.318 2    462888.056 1
  24309325.906    19760273.706 2  15397598.230 1
  22320708.995    -9648122.547 4  -7517988.816 3
  22335357.450     8189203.125 3   6381195.067 2
  23777590.313    -4648939.834 2  -3622525.083 1
  24247367.494      295928.333 3    230597.885 1
 91  5 13 20  3 15.0030000  0  6 16 18 02 19 06 11
  24710739.608      625142.898 2    487133.921 1
  24322545.554    19829753.090 2  15451737.865 1
  22319839.599    -9652691.272 4  -7521548.848 3
  22342079.404     8224558.669 3   6408744.815 2
  23775274.416    -4661094.776 2  -3631996.446 2
  24253846.010      329965.223 2    257120.123 1
 91  5 13 20  3 30.0030000  0  6 16 18 02 19 06 11
  24716677.001      656375.980 2    511471.271 1
  24335776.292    19899280.635 2  15505915.073 1
  22318983.989    -9657179.027 3  -7525045.793 3
  22348816.637     8259971.666 3   6436339.335 2
  23772960.020    -4673235.541 2  -3641456.741 1
  24260349.409      364149.247 2    283757.017 1
 91  5 13 20  3 45.0030000  0  6 16 18 02 19 06 11
  24722649.469      687724.064 2    535898.307 1
  24349014.227    19968854.064 2  15560128.008 1
  22318145.471    -9661588.000 4  -7528481.343 3
  22355565.561     8295439.859 3   6463976.871 2
  23770653.721    -4685364.218 2  -3650907.630 1
  24266881.288      398478.022 2    310506.694 1
 91  5 13 20  4  0.0030000  0  6 16 18 02 19 06 11
  24728633.323      719187.470 2    560415.182 1
  24362264.152    20038473.559 2  15614376.830 1
  22317323.435    -9665917.469 4  -7531854.954 3
  22362326.185     8330964.016 3   6491658.004 2
  23768350.711    -4697480.159 2  -3660348.591 1
  24273443.747      432951.978 2    337369.483 1
 91  5 13 20  4 15.0030000  0  6 16 18 02 19 06 11
  24734637.271      750763.859 2    585020.085 1
  24375518.281    20108136.708 2  15668659.683 1
  22316509.199    -9670169.831 4  -7535168.478 3
  22369093.703     8366542.058 3   6519381.138 2
  23766048.006    -4709585.715 2  -3669781.476 1
  24280029.285      467568.724 3    364343.553 1
 91  5 13 20  4 30.0030000  0  6 16 18 02 19 06 11
  24740673.292      782456.796 2    609715.819 1
  24388784.992    20177847.338 2  15722979.514 1
  22315719.847    -9674341.242 4  -7538418.921 3
  22375880.101     8402177.746 3   6547149.181 2
  23763747.099    -4721676.729 2  -3679203.019 1
  24286645.701      502332.169 2    391431.949 1
 91  5 13 20  4 45.0030000  0  6 16 18 02 19 06 11
  24746722.498      814262.972 2    634499.831 1
  24402061.301    20247602.117 2  15777333.752 1
  22314942.484    -9678434.537 4  -7541608.496 3
  22382670.103     8437868.231 3   6574959.913 2
  23761446.192    -4733756.285 2  -3688615.627 1
  24293288.205      537239.048 2    418632.082 1
 91  5 13 20  5  0.0030000  0  6 16 18 02 19 06 11
  24752790.601      846179.669 2    659369.856 1
  24415344.808    20317397.735 2  15831719.834 1
  22314176.515    -9682452.516 4  -7544739.381 3
  22389469.092     8473610.896 3   6602811.322 2
  23759151.584    -4745827.013 2  -3698021.377 1
  24299958.585      572286.582 2    445941.852 1
 91  5 13 20  5 15.0030000  0  6 16 18 02 19 06 11
  24758888.379      878207.618 2    684326.655 1
  24428635.810    20387235.300 2  15886138.597 1
  22313426.138    -9686394.183 4  -7547810.788 3
  22396280.679     8509406.686 3   6630704.127 2
  23756852.475    -4757887.938 2  -3707419.475 1
  24306653.553      607475.600 2    473361.849 1
 91  5 13 20  5 30.0030000  0  6 16 18 02 19 06 11
  24764999.044      910350.124 2    709372.704 1
  24441931.602    20457117.689 2  15940592.283 1
  22312688.945    -9690256.064 4  -7550820.051 3
  22403108.452     8545258.873 3   6658640.865 2
  23754559.062    -4769935.658 2  -3716807.288 1
  24313377.297      642809.230 2    500894.535 1
 91  5 13 20  5 45.0030000  0  6 16 18 02 19 06 11
  24771143.292      942603.049 2    734504.815 1
  24455238.187    20527040.679 2  15995077.601 1
  22311972.744    -9694042.124 4  -7553770.221 3
  22409939.218     8581163.827 3   6686618.728 2
  23752269.550    -4781973.955 2  -3726187.762 1
  24320131.325      678283.540 2    528536.833 2
 91  5 13 20  6  0.0030000  0  6 16 18 02 19 06 11
  24777316.324      974969.369 2    759725.269 1
  24468550.775    20597007.763 2  16049597.274 1
  22311265.234    -9697748.956 4  -7556658.654 3
  22416778.089     8617125.231 3   6714640.570 2
  23749987.524    -4793999.374 2  -3735558.194 1
  24326907.236      713901.961 2    556291.431 1
 91  5 13 20  6 15.0030000  0  6 16 18 02 19 06 11
  24783489.949     1007448.153 2    785033.307 1
  24481873.249    20667017.897 2  16104150.494 1
  22310574.511    -9701377.112 4  -7559485.779 3
  22423634.943     8653142.186 3   6742705.712 2
  23747695.909    -4806012.521 2  -3744919.063 1
  24333711.320      749663.578 2    584157.583 1
 91  5 13 20  6 30.0030000  0  6 16 18 02 19 06 11
  24789687.857     1040035.642 2    810426.123 1
  24495202.327    20737067.328 2  16158734.345 1
  22309899.379    -9704930.112 4  -7562254.338 3
  22430505.285     8689211.283 3   6770811.485 2
  23745409.093    -4818016.950 2  -3754273.133 2
  24340543.595      785564.646 2    612132.440 1
 91  5 13 20  6 45.0030000  0  6 16 18 02 19 06 11
  24795921.737     1072734.019 2    835905.228 1
  24508543.088    20807157.908 2  16213350.269 1
  22309235.939    -9708405.670 4  -7564962.570 3
  22437375.331     8725335.044 3   6798959.843 2
  23743131.272    -4830010.280 2  -3763618.589 1
  24347399.245      821607.333 2    640217.632 1
 91  5 13 20  7  0.0030000  0  6 16 18 02 19 06 11
  24802152.626     1105543.830 2    861471.313 1
  24521886.851    20877289.762 2  16267998.317 1
  22308589.583    -9711803.468 4  -7567610.197 3
  22444260.960     8761514.001 3   6827151.222 2
  23740851.349    -4841991.957 2  -3772954.917 1
  24354289.079      857792.188 2    668413.637 2
 91  5 13 20  7 15.0030000  0  6 16 18 02 19 06 11
  24808421.590     1138465.686 2    887124.612 1
  24535238.109    20947464.117 2  16322679.535 1
  22307960.617    -9715122.131 4  -7570196.164 3
  22451154.093     8797749.470 3   6855386.628 2
  23738566.636    -4853960.726 2  -3782281.187 2
  24361200.491      894120.243 2    696721.194 1
 91  5 13 20  7 30.0030000  0  6 16 18 02 19 06 11
  24814711.233     1171497.306 2    912863.436 1
  24548600.761    21017678.641 2  16377392.011 1
  22307343.350    -9718363.876 4  -7572722.188 3
  22458060.706     8834039.226 3   6883664.339 2
  23736298.404    -4865918.600 2  -3791598.993 1
  24368137.389      930589.190 2    725138.538 1
 91  5 13 20  7 45.0030000  0  6 16 18 02 19 06 11
  24821013.467     1204637.291 2    938686.762 1
  24561971.205    21087931.500 2  16432134.372 1
  22306738.962    -9721529.974 4  -7575189.275 3
  22464975.425     8870381.757 3   6911983.166 2
  23734024.475    -4877867.106 2  -3800909.488 1
  24375106.665      967197.303 2    753664.317 1
 91  5 13 20  8  0.0030000  0  6 16 18 02 19 06 11
  24827340.593     1237886.697 2    964595.314 1
  24575343.743    21158224.221 2  16486907.804 1
  22306154.973    -9724618.858 4  -7577596.183 3
  22471905.421     8906779.010 3   6940344.645 2
  23731750.851    -4889804.527 2  -3810211.348 2
  24382096.629     1003946.237 2    782299.829 1
 91  5 13 20  8 15.0030000  0  6 16 18 02 19 06 11
  24833680.300     1271243.946 2    990587.917 1
  24588733.077    21228554.971 2  16541710.831 1
  22305576.367    -9727631.924 4  -7579944.019 3
  22478837.223     8943229.461 3   6968747.577 2
  23729479.321    -4901732.175 2  -3819505.594 1
  24389118.065     1040834.368 2    811043.817 2
 91  5 13 20  8 30.0030000  0  6 16 18 02 19 06 11
  24840050.293     1304706.949 2   1016662.915 1
  24602121.504    21298921.521 2  16596541.797 1
  22305016.957    -9730571.255 4  -7582234.395 3
  22485782.218     8979731.277 3   6997190.520 2
  23727213.489    -4913651.987 2  -3828793.734 1
  24396164.690     1077859.463 2    839894.537 1
 91  5 13 20  8 45.0030000  0  6 16 18 02 19 06 11
  24846440.964     1338276.423 2   1042820.870 1
  24615520.427    21369324.389 2  16651401.047 1
  22304475.232    -9733436.037 4  -7584466.685 3
  22492740.396     9016285.280 3   7025674.142 2
  23724947.962    -4925563.182 2  -3838075.162 2
  24403236.190     1115022.198 2    868852.493 1
 91  5 13 20  9  0.0030000  0  6 16 18 02 19 06 11
  24852848.728     1371951.075 2   1069060.801 1
  24628927.446    21439762.684 2  16706287.879 1
  22303941.002    -9736227.089 4  -7586641.521 3
  22499703.382     9052890.730 3   7054197.843 2
  23722688.421    -4937466.330 2  -3847350.285 1
  24410335.880     1152321.670 2    897916.998 2
 91  5 13 20  9 15.0030000  0  6 16 18 02 19 06 11
  24859279.578     1405731.345 2   1095383.012 1
  24642334.466    21510236.627 2  16761202.500 1
  22303426.858    -9738943.618 4  -7588758.295 3
  22506680.747     9089548.398 3   7082762.245 2
  23720419.893    -4949360.906 2  -3856618.769 1
  24417462.541     1189758.428 2    927088.478 1
 91  5 13 20  9 30.0030000  0  6 16 18 02 19 06 11
  24865730.810     1439618.627 2   1121788.620 1
  24655754.076    21580747.696 2  16816146.083 1
  22302921.107    -9741583.872 4  -7590815.627 3
  22513665.310     9126260.188 3   7111368.819 2
  23718154.060    -4961244.979 2  -3865879.059 1
  24424610.490     1227333.971 2    956368.107 1
 91  5 13 20  9 45.0040000  0  6 16 18 02 19 06 11
  24872199.434     1473612.693 2   1148277.433 1
  24669178.183    21651298.089 2  16871120.283 2
  22302434.249    -9744150.621 4  -7592815.681 3
  22520659.474     9163025.949 3   7140017.438 2
  23715898.728    -4973121.975 2  -3875133.839 1
  24431789.321     1265048.262 2    985755.863 1
 91  5 13 20 10  0.0040000  0  6 16 18 02 19 06 11
  24878685.445     1507708.596 2   1174845.612 1
  24682607.984    21721878.006 2  16926117.475 1
  22301962.369    -9746643.410 4  -7594758.102 3
  22527665.021     9199840.916 3   7168704.396 2
  23713640.390    -4984990.048 2  -3884381.660 1
  24438987.038     1302896.076 2   1015247.648 2
 91  5 13 20 10 15.0040000  0  6 16 18 02 19 06 11
  24885196.339     1541909.494 2   1201495.538 1
  24696044.687    21792493.076 2  16981142.084 1
  22301499.197    -9749061.494 4  -7596642.317 3
  22534684.066     9236708.680 3   7197432.502 2
  23711378.755    -4996848.824 2  -3893622.238 2
  24446215.041     1340880.813 2   1044846.122 1
 91  5 13 20 10 30.0040000  0  6 16 18 02 19 06 11
  24891720.121     1576210.567 2   1228223.556 1
  24709488.579    21863137.880 2  17036189.854 1
  22301053.998    -9751409.706 4  -7598472.087 3
  22541708.799     9273624.462 3   7226198.028 2
  23709121.613    -5008703.293 2  -3902859.453 1
  24453468.512     1378997.645 2   1074547.546 2
 91  5 13 20 10 45.0040000  0  6 16 18 02 19 06 11
  24898263.088     1610610.896 2   1255029.005 1
  24722935.769    21933811.929 2  17091260.410 1
  22300621.704    -9753688.387 4  -7600247.675 3
  22548742.232     9310587.873 3   7255000.659 2
  23706869.575    -5020553.735 2  -3912093.532 1
  24460748.376     1417245.785 2   1104351.294 1
 91  5 13 20 11  0.0040000  0  6 16 18 02 19 06 11
  24904838.741     1645113.799 2   1281914.262 1
  24736394.048    22004518.447 2  17146356.264 1
  22300198.091    -9755894.096 4  -7601966.399 3
  22555784.956     9347602.451 3   7283843.163 2
  23704615.434    -5032396.579 2  -3921321.683 2
  24468050.420     1455628.461 2   1134259.863 1
 91  5 13 20 11 15.0040000  0  6 16 18 02 19 06 11
  24911428.475     1679718.069 2   1308878.577 1
  24749853.532    22075256.159 2  17201476.431 1
  22299793.674    -9758027.607 4  -7603628.864 3
  22562840.271     9384667.360 3   7312724.889 2
  23702362.794    -5044232.738 2  -3930544.647 1
  24475385.148     1494144.826 2   1164272.585 1
 91  5 13 20 11 30.0040000  0  6 16 18 02 19 06 11
  24918020.914     1714422.781 2   1335921.105 1
  24763321.410    22146024.158 2  17256620.188 1
  22299401.244    -9760089.836 4  -7605235.784 3
  22569902.784     9421781.735 3   7341645.165 2
  23700113.156    -5056062.953 2  -3939762.956 1
  24482738.155     1532793.813 2   1194388.654 1
 91  5 13 20 11 45.0040000  0  6 16 18 02 19 06 11
  24924641.832     1749230.972 2   1363044.255 1
  24776792.585    22216825.549 2  17311789.949 1
  22299022.906    -9762077.373 4  -7606784.507 3
  22576977.879     9458949.232 3   7370606.842 2
  23697866.205    -5067883.827 2  -3948973.989 2
  24490117.843     1571578.724 2   1224610.639 1
 91  5 13 20 12  0.0040000  0  6 16 18 02 19 06 11
  24931280.436     1784134.792 2   1390241.995 1
  24790273.349    22287652.368 2  17366979.569 1
  22298658.659    -9763997.943 4  -7608281.048 3
  22584054.483     9496162.148 3   7399603.893 2
  23695612.972    -5079702.914 2  -3958183.641 1
  24497522.721     1610491.476 2   1254932.272 1
 91  5 13 20 12 15.0040000  0  6 16 18 02 19 06 11
  24937938.523     1819138.363 2   1417517.379 1
  24803755.920    22358508.582 2  17422192.036 1
  22298307.901    -9765847.174 4  -7609721.995 3
  22591147.875     9533424.874 3   7428639.762 2
  23693368.123    -5091515.688 2  -3967388.353 1
  24504950.973     1649536.382 2   1285356.859 1
 91  5 13 20 12 30.0040000  0  6 16 18 02 19 06 11
  24944633.186     1854245.447 2   1444873.525 1
  24817245.680    22429398.342 2  17477430.646 1
  22297967.342    -9767620.808 4  -7611104.039 3
  22598248.456     9570741.731 3   7457717.799 2
  23691122.080    -5103318.047 2  -3976584.960 2
  24512405.915     1688717.574 2   1315887.649 1
 91  5 13 20 12 45.0040000  0  6 16 18 02 19 06 11
  24951329.052     1889447.895 2   1472303.915 1
  24830747.131    22500313.554 2  17532689.169 1
  22297643.266    -9769326.748 4  -7612433.334 3
  22605357.735     9608104.806 3   7486831.876 2
  23688873.636    -5115117.701 2  -3985779.464 1
  24519886.937     1728026.913 2   1346518.280 1
 91  5 13 20 13  0.0040000  0  6 16 18 02 19 06 11
  24958043.207     1924748.965 2   1499811.180 1
  24844242.886    22571257.117 2  17587969.688 1
  22297333.280    -9770961.746 4  -7613707.352 3
  22612480.504     9645517.465 3   7515984.570 2
  23686628.491    -5126911.455 2  -3994969.374 1
  24527394.335     1767467.533 2   1377251.219 1
 91  5 13 20 13 15.0040000  0  6 16 18 02 19 06 11
  24964786.442     1960147.631 2   1527394.436 1
  24857748.543    22642227.879 2  17643271.466 1
  22297033.782    -9772526.645 4  -7614926.748 3
  22619607.470     9682978.811 3   7545175.201 2
  23684385.737    -5138700.009 2  -4004155.193 1
  24534922.123     1807038.442 2   1408085.678 2
 91  5 13 20 13 30.0040000  0  6 16 18 02 19 06 11
  24971532.068     1995641.280 2   1555051.783 1
  24871256.887    22713223.361 2  17698592.490 1
  22296747.180    -9774023.828 4  -7616093.370 3
  22626743.728     9720486.754 3   7574402.159 2
  23682145.391    -5150485.536 2  -4013338.695 2
  24542478.094     1846737.264 2   1439019.809 1
 91  5 13 20 13 45.0040000  0  6 16 18 02 19 06 11
  24978313.371     2031226.700 2   1582780.582 1
  24884774.829    22784240.724 2  17753930.531 1
  22296475.567    -9775455.848 4  -7617209.219 3
  22633890.185     9758038.762 3   7603663.440 2
  23679899.644    -5162270.613 2  -4022521.843 1
  24550056.252     1886561.009 2   1470051.282 1
 91  5 13 20 14  0.0040000  0  6 16 18 02 19 06 11
  24985097.379     2066911.444 2   1610586.794 1
  24898290.974    22855287.512 2  17809291.514 1
  22296219.546    -9776814.834 4  -7618268.162 3
  22641046.231     9795642.716 3   7632965.209 2
  23677662.299    -5174047.391 2  -4031698.511 1
  24557660.185     1926517.458 2   1501186.172 2
 91  5 13 20 14 15.0040000  0  6 16 18 02 19 06 11
  24991905.965     2102688.979 2   1638465.302 1
  24911811.315    22926356.609 2  17864669.891 1
  22295972.215    -9778107.717 4  -7619275.595 3
  22648212.469     9833291.925 3   7662302.249 2
  23675422.250    -5185822.565 2  -4040873.925 1
  24565282.405     1966599.558 2   1532418.986 1
 91  5 13 20 14 30.0040000  0  6 16 18 02 19 06 11
  24998730.143     2138564.382 2   1666420.089 1
  24925344.840    22997453.180 2  17920069.680 1
  22295740.782    -9779329.003 4  -7620227.238 3
  22655380.207     9870991.826 3   7691678.781 2
  23673180.097    -5197590.701 2  -4050043.857 1
  24572937.911     2006812.512 2   1563753.736 1
 91  5 13 20 14 45.0040000  0  6 16 18 02 19 06 11
  25005579.799     2174537.363 2   1694450.927 1
  24938873.279    23068577.243 2  17975490.872 1
  22295519.234    -9780478.583 4  -7621123.007 3
  22662568.929     9908742.614 3   7721094.960 2
  23670940.650    -5209351.502 2  -4059208.096 1
  24580614.995     2047156.294 2   1595190.431 1
 91  5 13 20 15  0.0040000  0  6 16 18 02 19 06 11
  25012442.646     2210605.980 2   1722556.235 1
  24952416.105    23139726.756 2  18030931.959 1
  22295315.974    -9781557.872 4  -7621963.992 3
  22669760.652     9946543.094 3   7750549.862 2
  23668706.891    -5221106.410 2  -4068367.706 2
  24588317.861     2087629.425 2   1626727.904 1
 91  5 13 20 15 15.0040000  0  6 16 18 02 19 06 11
  25019318.983     2246767.481 2   1750733.974 1
  24965965.518    23210899.329 2  18086390.896 1
  22295122.006    -9782569.275 4  -7622752.096 3
  22676965.864     9984390.660 3   7780041.461 2
  23666468.045    -5232857.783 2  -4077524.572 2
  24596039.914     2128229.008 2   1658363.935 1
 91  5 13 20 15 30.0040000  0  6 16 18 02 19 06 11
  25026230.404     2283024.799 2   1778986.356 1
  24979506.547    23282097.367 2  18141869.819 1
  22294945.131    -9783510.003 4  -7623485.119 3
  22684179.174    10022288.149 3   7809571.953 2
  23664234.889    -5244602.743 2  -4086676.459 1
  24603794.049     2168957.795 2   1690100.623 1
 91  5 13 20 15 45.0040000  0  6 16 18 02 19 06 11
  25033137.915     2319372.397 2   1807309.046 1
  24993061.667    23353315.333 2  18197364.157 1
  22294777.251    -9784385.276 4  -7624167.143 3
  22691396.374    10060230.553 3   7839137.444 2
  23661999.638    -5256346.480 2  -4095827.374 2
  24611565.870     2209810.400 2   1721933.823 1
 91  5 13 20 16  0.0040000  0  6 16 18 02 19 06 11
  25040078.111     2355811.435 2   1835703.045 1
  25006620.381    23424554.877 2  18252875.361 1
  22294625.251    -9785193.512 4  -7624796.924 3
  22698623.173    10098219.484 3   7868739.203 2
  23659766.481    -5268087.317 2  -4104976.035 1
  24619366.170     2250788.204 2   1753864.552 1
 91  5 13 20 16 15.0040000  0  6 16 18 02 19 06 11
  25047024.903     2392346.028 2   1864171.447 1
  25020182.385    23495819.557 2  18308406.153 1
  22294483.747    -9785930.670 4  -7625371.325 3
  22705861.959    10136259.089 3   7898380.438 2
  23657531.536    -5279821.097 2  -4114119.202 2
  24627190.150     2291895.120 2   1785895.934 1
 91  5 13 20 16 30.0040000  0  6 16 18 02 19 06 11
  25054001.675     2428974.995 2   1892713.418 1
  25033745.602    23567108.338 2  18363955.693 1
  22294357.241    -9786597.597 4  -7625890.998 3
  22713110.640    10174348.452 3   7928060.444 2
  23655301.372    -5291548.507 2  -4123257.389 1
  24635037.216     2333130.129 2   1818027.062 1
 91  5 13 20 16 45.0040000  0  6 16 18 02 19 06 11
  25060987.442     2465700.617 2   1921330.720 1
  25047316.304    23638423.576 2  18419525.872 1
  22294245.115    -9787191.866 4  -7626354.056 3
  22720369.512    10212490.235 3   7957781.309 2
  23653069.123    -5303266.886 2  -4132388.550 1
  24642906.173     2374495.588 2   1850259.872 1
 91  5 13 20 17  0.0040000  0  6 16 18 02 19 06 11
  25067997.482     2502519.193 2   1950020.347 1
  25060892.705    23709761.637 2  18475113.794 1
  22294141.688    -9787716.892 4  -7626763.154 3
  22727638.880    10250681.098 2   7987540.394 2
  23650841.367    -5314979.879 2  -4141515.509 2
  24650803.906     2415987.740 2   1882591.412 1
 91  5 13 20 17 15.0040000  0  6 16 18 02 19 06 11
  25075021.021     2539427.781 2   1978780.296 1
  25074471.801    23781119.504 2  18530717.155 1
  22294056.845    -9788175.175 4  -7627120.245 3
  22734916.947    10288918.625 3   8017335.862 2
  23648612.703    -5326689.813 2  -4150640.083 1
  24658723.522     2457603.901 2   1915019.567 1
 91  5 13 20 17 30.0040000  0  6 16 18 02 19 06 11
  25082057.149     2576436.624 2   2007618.293 1
  25088048.507    23852507.174 2  18586343.790 1
  22293985.194    -9788556.474 4  -7627417.358 3
  22742199.202    10327213.088 3   8047175.689 2
  23646389.746    -5338386.294 2  -4159754.183 1
  24666663.223     2499354.149 2   1947552.241 1
 91  5 13 20 17 45.0040000  0  6 16 18 02 19 06 11
  25089119.060     2613540.988 2   2036530.676 1
  25101644.992    23923920.226 2  18641990.208 1
  22293924.336    -9788864.846 4  -7627657.632 3
  22749496.455    10365560.449 3   8077056.737 2
  23644164.381    -5350073.457 2  -4168861.012 1
  24674637.108     2541234.230 2   1980186.044 1
 91  5 13 20 18  0.0040000  0  6 16 18 02 19 06 11
  25096199.565     2650749.047 2   2065523.908 1
  25115236.984    23995366.928 2  18697662.800 1
  22293882.962    -9789091.787 4  -7627834.463 3
  22756806.587    10403969.094 2   8106985.536 2
  23641945.019    -5361742.553 2  -4177953.778 1
  24682629.867     2583252.290 2   2012927.403 1
 91  5 13 20 18 15.0040000  0  6 16 18 02 19 06 11
  25103301.943     2688063.009 2   2094599.638 1
  25128845.458    24066849.571 2  18753363.450 1
  22293855.085    -9789235.200 4  -7627946.197 3
  22764126.020    10442441.479 2   8136963.994 2
  23639725.360    -5373391.618 2  -4187030.920 1
  24690652.020     2625410.428 2   2045777.879 1
 91  5 13 20 18 30.0040000  0  6 16 18 02 19 06 11
  25110426.814     2725483.585 2   2123758.446 1
  25142453.941    24138368.372 2  18809092.259 1
  22293844.589    -9789294.331 4  -7627992.267 3
  22771456.551    10480978.540 3   8166992.859 2
  23637515.892    -5385019.456 2  -4196091.526 1
  24698704.143     2667709.259 2   2078737.984 1
 91  5 13 20 18 45.0040000  0  6 16 18 02 19 06 11
  25117558.273     2763012.289 2   2153001.509 1
  25156072.614    24209924.866 2  18864850.377 1
  22293848.192    -9789267.321 4  -7627971.199 3
  22778806.557    10519581.885 3   8197073.382 2
  23635304.016    -5396624.510 2  -4205134.376 1
  24706781.151     2710150.301 2   2111808.898 1
 91  5 13 20 19  0.0040000  0  6 16 18 02 19 06 11
  25124724.519     2800648.670 2   2182328.467 1
  25169693.085    24281518.957 2  18920637.836 1
  22293871.576    -9789154.232 4  -7627883.074 3
  22786171.264    10558251.773 2   8227205.736 2
  23633099.643    -5408206.353 2  -4214159.145 2
  24714885.137     2752733.547 2   2144990.641 1
 91  5 13 20 19 15.0040000  0  6 16 18 02 19 06 11
  25131904.246     2838392.839 2   2211739.419 1
  25183333.039    24353150.865 2  18976454.758 1
  22293908.448    -9788954.555 4  -7627727.471 3
  22793537.760    10596988.750 2   8257390.384 2
  23630902.469    -5419764.569 2  -4223165.508 2
  24723013.117     2795459.123 2   2178283.297 1
 91  5 13 20 19 30.0040000  0  6 16 18 02 19 06 11
  25139109.153     2876247.485 2   2241236.495 1
  25196966.702    24424823.064 2  19032303.061 1
  22293963.608    -9788665.555 4  -7627502.262 3
  22800926.444    10635795.559 2   8287629.422 2
  23628707.083    -5431296.355 2  -4232151.263 2
  24731164.768     2838329.589 2   2211688.819 1
 91  5 13 20 19 45.0040000  0  6 16 18 02 19 06 11
  25146335.951     2914210.068 2   2270817.635 1
  25210608.462    24496533.413 2  19088181.112 1
  22294034.063    -9788288.996 4  -7627208.830 3
  22808322.326    10674670.320 3   8317921.437 2
  23626514.402    -5442803.449 2  -4241117.787 2
  24739358.099     2881342.836 2   2245205.639 1
 91  5 13 20 20  0.0040000  0  6 16 18 02 19 06 11
  25153580.435     2952278.445 2   2300481.203 1
  25224264.906    24568279.355 2  19144086.873 1
  22294121.000    -9787827.380 4  -7626849.116 3
  22815730.799    10713610.850 3   8348264.674 2
  23624330.420    -5454287.991 2  -4250066.729 2
  24747566.114     2924496.503 2   2278831.869 1
 91  5 13 20 20 15.0040000  0  6 16 18 02 19 06 11
  25160844.411     2990449.788 2   2330224.980 1
  25237922.546    24640058.090 2  19200018.223 1
  22294226.827    -9787283.080 4  -7626424.977 3
  22823153.362    10752614.746 3   8378657.316 2
  23622154.526    -5465752.393 2  -4258999.983 2
  24755805.016     2967787.841 2   2312565.347 1
 91  5 13 20 20 30.0040000  0  6 16 18 02 19 06 11
  25168123.071     3028723.808 2   2360048.836 1
  25251586.791    24711869.541 2  19255975.051 1
  22294346.745    -9786656.079 4  -7625936.395 3
  22830587.015    10791682.250 2   8409099.521 2
  23619972.333    -5477196.784 2  -4267917.644 1
  24764073.287     3011216.527 2   2346405.888 1
 91  5 13 20 20 45.0040000  0  6 16 18 02 19 06 11
  25175429.914     3067105.505 2   2389956.585 1
  25265258.827    24783718.441 2  19311961.022 1
  22294481.051    -9785941.264 4  -7625379.388 3
  22838033.555    10830818.454 3   8439595.244 2
  23617799.441    -5488615.711 2  -4276815.458 2
  24772360.151     3054787.646 2   2380357.402 2
 91  5 13 20 21  0.0040000  0  6 16 18 02 19 06 11
  25182760.436     3105591.938 2   2419945.917 1
  25278940.156    24855602.130 2  19367974.148 1
  22294635.747    -9785141.155 4  -7624755.912 3
  22845492.695    10870020.895 3   8470142.567 2
  23615628.642    -5500011.692 2  -4285695.404 2
  24780680.293     3098498.412 2   2414417.721 1
 91  5 13 20 21 15.0040000  0  6 16 18 02 19 06 11
  25190095.757     3144184.451 2   2450017.876 1
  25292625.384    24927521.841 2  19424015.296 1
  22294804.831    -9784254.197 4  -7624064.756 3
  22852968.019    10909291.178 3   8500742.774 2
  23613462.643    -5511382.996 2  -4294556.115 1
  24789025.615     3142350.213 2   2448587.924 1
 91  5 13 20 21 30.0040000  0  6 16 18 02 19 06 11
  25197464.356     3182883.190 2   2480172.661 1
  25306318.701    24999477.664 2  19480084.637 1
  22294990.396    -9783279.898 4  -7623305.553 3
  22860451.135    10948629.847 3   8531396.260 2
  23611309.530    -5522729.176 2  -4303397.246 2
  24797395.516     3186343.472 2   2482868.357 1
 91  5 13 20 21 45.0040000  0  6 16 18 02 19 06 11
  25204838.652     3221680.711 2   2510404.398 1
  25320018.020    25071462.329 2  19536176.459 1
  22295190.664    -9782225.528 4  -7622483.959 3
  22867950.444    10988029.758 3   8562097.482 2
  23609154.027    -5534057.315 2  -4312224.323 1
  24805796.007     3230470.553 2   2517253.097 1
 91  5 13 20 22  0.0040000  0  6 16 18 02 19 06 11
  25212242.631     3260580.982 2   2540716.240 1
  25333726.327    25143479.751 2  19592293.757 1
  22295405.912    -9781086.617 4  -7621596.475 3
  22875459.945    11027495.433 3   8592849.934 2
  23607001.211    -5545362.940 2  -4321033.871 2
  24814218.678     3274735.666 2   2551745.387 1
 91  5 13 20 22 15.0040000  0  6 16 18 02 19 06 11
  25219670.282     3299581.009 2   2571105.799 1
  25347432.234    25215527.292 2  19648434.510 1
  22295637.049    -9779865.957 4  -7620645.297 3
  22882985.639    11067024.051 3   8623651.428 2
  23604854.101    -5556648.537 3  -4329827.786 2
  24822667.724     3319136.034 2   2586343.068 1
 91  5 13 20 22 30.0040000  0  6 16 18 02 19 06 11
  25227104.842     3338685.911 2   2601577.070 1
  25361153.139    25287609.788 2  19704602.563 1
  22295887.678    -9778558.446 4  -7619626.459 3
  22890517.624    11106620.947 3   8654506.124 2
  23602709.984    -5567908.853 3  -4338602.009 2
  24831138.060     3363676.456 2   2621049.898 1
 91  5 13 20 22 45.0040000  0  6 16 18 02 19 06 11
  25234574.766     3377896.561 2   2632130.723 1
  25374872.544    25359727.901 2  19760798.366 1
  22296152.991    -9777163.059 4  -7618539.114 3
  22898066.100    11146287.178 3   8685414.870 2
  23600573.964    -5579142.894 2  -4347355.765 2
  24839643.471     3408357.821 2   2655866.522 1
 91  5 13 20 23  0.0040000  0  6 16 18 02 19 06 11
  25242057.288     3417205.708 2   2662761.121 1
  25388604.234    25431874.743 2  19817016.500 1
  22296432.098    -9775686.584 4  -7617388.598 3
  22905625.368    11186016.155 3   8716372.491 2
  23598439.741    -5590357.300 3  -4356094.212 1
  24848173.765     3453173.089 2   2690787.493 1
 91  5 13 20 23 15.0040000  0  6 16 18 02 19 06 11
  25249552.698     3456618.469 2   2693472.281 1
  25402337.425    25504055.289 2  19873260.921 1
  22296732.495    -9774123.644 4  -7616170.714 3
  22913199.025    11225813.276 3   8747383.203 2
  23596305.815    -5601546.632 3  -4364813.134 2
  24856731.047     3498127.364 2   2725816.791 2
 91  5 13 20 23 30.0040000  0  6 16 18 02 19 06 11
  25257066.700     3496131.678 2   2724261.716 1
  25416079.017    25576266.747 2  19929529.431 1
  22297045.779    -9772476.987 4  -7614887.595 3
  22920785.568    11265675.809 3   8778444.895 2
  23594185.082    -5612713.569 2  -4373514.596 1
  24865308.405     3543217.730 2   2760952.128 1
 91  5 13 20 23 45.0040000  0  6 16 18 02 19 06 11
  25264610.072     3535741.763 2   2755126.608
  25429827.494    25648505.255 2  19985819.032 1
  22297372.848    -9770750.126 4  -7613541.969 3
  22928381.709    11305600.460 2   8809554.995 2
  23592061.059    -5623861.407 2  -4382201.174 1
  24873913.351     3588440.515 2   2796190.659 1
 91  5 13 20 24  0.0040000  0  6 16 18 02 19 06 11
  25272162.447     3575450.254 2   2786068.213 1
  25443575.683    25720772.262 2  20042130.795 1
  22297717.010    -9768941.196 4  -7612132.400 3
  22935991.941    11345589.060 3   8840714.921 2
  23589944.225    -5634988.256 2  -4390871.392 2
  24882547.073     3633797.252 2   2831533.543 1
 91  5 13 20 24 15.0040000  0  6 16 18 02 19 06 11
  25279740.300     3615255.456 2   2817085.182 1
  25457333.758    25793066.359 2  20098463.719 1
  22298078.265    -9767051.653 4  -7610660.021 3
  22943614.170    11385640.398 3   8871923.741 2
  23587831.283    -5646095.408 2  -4399526.272 2
  24891198.185     3679286.462 2   2866979.692 1
 91  5 13 20 24 30.0040000  0  6 16 18 02 19 06 11
  25287330.142     3655159.895 2   2848179.424 1
  25471097.224    25865390.043 2  20154819.694 1
  22298453.305    -9765078.570 4  -7609122.542 3
  22951246.284    11425757.336 3   8903183.668 2
  23585722.241    -5657179.866 3  -4408163.457 2
  24899880.767     3724910.784 2   2902531.109 1
 91  5 13 20 24 45.0040000  0  6 16 18 02 19 06 11
  25294949.971     3695158.602 2   2879347.199 1
  25484862.497    25937738.719 2  20211195.123 1
  22298840.630    -9763026.497 4  -7607523.503 3
  22958891.294    11465935.269 3   8934491.122 2
  23583617.701    -5668246.141 3  -4416786.489 1
  24908589.743     3770665.310 2   2938183.966 1
 91  5 13 20 25  0.0040000  0  6 16 18 02 19 06 11
  25302579.992     3735252.985 2   2910589.442 1
  25498636.765    26010113.234 2  20267590.675 1
  22299247.456    -9760893.910 4  -7605861.733 3
  22966551.285    11506175.828 3   8965847.395 2
  23581515.857    -5679292.530 3  -4425394.031 2
  24917320.000     3816551.439 2   2973939.366 1
 91  5 13 20 25 15.0040000  0  6 16 18 02 19 06 11
  25310218.397     3775440.698 2   2941904.488 1
  25512415.518    26082511.451 2  20324004.755 1
  22299666.863    -9758683.085 4  -7604138.998 3
  22974219.976    11546476.877 3   8997250.787 2
  23579414.013    -5690321.160 3  -4433987.710 2
  24926076.938     3862566.783 2   3009795.496 1
 91  5 13 20 25 30.0040000  0  6 16 18 02 19 06 11
  25317896.981     3815720.206 2   2973290.973 1
  25526195.484    26154931.934 2  20380436.122 1
  22300103.057    -9756395.115 4  -7602356.150 3
  22981902.163    11586837.317 2   9028700.459 2
  23577322.657    -5701333.019 3  -4442568.339 2
  24934856.657     3908710.026 2   3045751.266 1
 91  5 13 20 25 45.0040000  0  6 16 18 02 19 06 11
  25325579.466     3856093.757 2   3004750.813 1
  25539978.137    26227376.783 2  20436886.506 1
  22300555.445    -9754027.438 4  -7600511.191 3
  22989591.235    11627259.709 3   9060198.405 2
  23575226.214    -5712325.565 2  -4451133.905 2
  24943663.957     3954983.396 2   3081808.406 1
 91  5 13 20 26  0.0040000  0  6 16 18 02 19 06 11
  25333265.842     3896560.094 2   3036282.918 2
  25553769.795    26299844.836 2  20493354.949 1
  22301020.424    -9751581.268 4  -7598605.077 3
  22997294.704    11667743.205 3   9091743.968 2
  23573137.257    -5723299.736 2  -4459685.160 2
  24952487.450     4001385.461 2   3117965.854 1
 91  5 13 20 26 15.0040000  0  6 16 18 02 19 06 11
  25340981.002     3937124.215 2   3067891.278
  25567568.642    26372341.135 2  20549845.382 1
  22301501.291    -9749051.285 4  -7596633.649 3
  23005014.663    11708293.142 2   9123341.301 2
  23571058.500    -5734250.042 3  -4468217.835 1
  24961345.721     4047921.585 2   3154227.775 1
 91  5 13 20 26 30.0040000  0  6 16 18 02 19 06 11
  25348720.147     3977779.545 2   3099570.638 1
  25581363.588    26444859.546 2  20606353.076 1
  22301996.851    -9746443.634 4  -7594601.702 3
  23012739.115    11748903.559 3   9154985.754 2
  23568975.834    -5745182.505 3  -4476736.590 1
  24970226.469     4094585.324 2   3190589.105 1
 91  5 13 20 26 45.0040000  0  6 16 18 02 19 06 11
  25356490.171     4018529.368 2   3131323.624 1
  25595176.526    26517402.923 2  20662880.223 1
  22302507.392    -9743755.270 4  -7592506.861 3
  23020480.651    11789577.581 3   9186679.767 2
  23566897.374    -5756093.976 2  -4485238.985 2
  24979131.804     4141379.570 2   3227052.188 1
 91  5 13 20 27  0.0040000  0  6 16 18 02 19 06 11
  25364255.989     4059368.573 2   3163146.330 1
  25608980.172    26589966.047 2  20719422.721 1
  22303036.831    -9740990.627 4  -7590352.585 3
  23028229.987    11830310.807 3   9218419.919 2
  23564823.712    -5766988.780 2  -4493728.407 2
  24988064.422     4188299.451 2   3263613.079 1
 91  5 13 20 27 15.0040000  0  6 16 18 02 19 06 11
  25372043.698     4100298.668 2   3195039.815 1
  25622795.204    26662551.090 2  20775982.313 1
  22303576.759    -9738147.597 4  -7588137.220 3
  23035993.712    11871105.179 2   9250207.711 2
  23562755.442    -5777864.931 2  -4502203.292 2
  24997013.225     4235346.775 2   3300273.307 1
 91  5 13 20 27 30.0040000  0  6 16 18 02 19 06 11
  25379847.601     4141318.237 2   3227003.027 1
  25636609.346    26735155.788 2  20832557.239 1
  22304131.370    -9735227.995 4  -7585862.192 3
  23043767.635    11911959.060 2   9282041.889 2
  23560688.979    -5788723.936 2  -4510664.797 2
  25005988.718     4282519.553 2   3337031.329 2
 91  5 13 20 27 45.0040000  0  6 16 18 02 19 06 11
  25387673.378     4182425.196 2   3259034.273 1
  25650432.772    26807778.757 2  20889146.388 1
  22304703.074    -9732233.247 4  -7583528.608 3
  23051555.039    11952871.212 2   9313921.468 2
  23558627.305    -5799567.033 3  -4519113.928 1
  25014999.574     4329816.241 2   3373885.868 1
 91  5 13 20 28  0.0040000  0  6 16 18 02 19 06 11
  25395506.057     4223621.479 2   3291135.223 1
  25664261.301    26880421.946 2  20945751.275 1
  22305284.672    -9729161.074 4  -7581134.692 3
  23059354.737    11993843.887 2   9345848.213 2
  23556565.632    -5810391.969 3  -4527548.907 2
  25024016.137     4377238.913 2   3410838.602 1
 91  5 13 20 28 15.0040000  0  6 16 18 02 19 06 11
  25403360.618     4264906.658 2   3323305.396 1
  25678084.430    26953084.757 2  21002371.477 1
  22305885.161    -9726011.724 4  -7578680.642 3
  23067158.640    12034877.089 2   9377822.115 2
  23554509.054    -5821198.738 3  -4535969.731 2
  25033066.265     4424787.111 2   3447889.125 1
 91  5 13 20 28 30.0040000  0  6 16 18 02 19 06 11
  25411242.166     4306278.670 2   3355543.213 1
  25691916.258    27025765.301 2  21059005.488 1
  22306500.028    -9722786.983 4  -7576167.840 3
  23074983.518    12075969.054 2   9409841.805 2
  23552460.573    -5831988.946 3  -4544377.647 2
  25042135.291     4472458.904 2   3485035.936 1
 91  5 13 20 28 45.0040000  0  6 16 18 02 19 06 11
  25419129.403     4347740.685 2   3387851.194 1
  25705750.477    27098466.783 2  21115655.881 1
  22307128.393    -9719483.445 4  -7573593.651 3
  23082810.805    12117123.221 2   9441909.974 2
  23550406.996    -5842759.058 3  -4552769.902 2
  25051231.592     4520257.368 2   3522281.488 1
 91  5 13 20 29  0.0040000  0  6 16 18 02 19 06 11
  25427036.131     4389299.207 2   3420234.391 1
  25719588.002    27171195.601 2  21172327.492 1
  22307770.849    -9716094.494 4  -7570952.895 3
  23090653.378    12158346.387 2   9474031.897 2
  23548360.906    -5853502.411 3  -4561141.295 2
  25060350.980     4568189.008 2   3559630.816 1
 91  5 13 20 29 15.0040000  0  6 16 18 02 19 06 11
  25434963.538     4430950.854 2   3452690.106 1
  25733431.513    27243948.691 2  21229018.021 1
  22308430.990    -9712622.843 4  -7568247.697 3
  23098513.331    12199635.733 2   9506205.385 2
  23546322.319    -5864221.640 3  -4569493.917 2
  25069498.550     4616250.561 2   3597081.399 1
 91  5 13 20 29 30.0040000  0  6 16 18 02 19 06 11
  25442907.445     4472691.198 2   3485214.982 1
  25747278.034    27316721.451 2  21285723.884 1
  22309108.225    -9709072.870 4  -7565481.469 3
  23106381.983    12240986.808 2   9538426.987 2
  23544285.826    -5874921.061 3  -4577831.095 2
  25078669.495     4664437.590 2   3634629.712 1
 91  5 13 20 29 45.0040000  0  6 16 18 02 19 06 11
  25450857.336     4514520.783 2   3517809.334 1
  25761134.440    27389514.311 2  21342445.492 1
  22309798.651    -9705443.784 4  -7562653.594 3
  23114258.732    12282400.501 2   9570697.382 2
  23542255.336    -5885599.727 3  -4586152.068 2
  25087860.236     4712750.679 2   3672276.286 2
 91  5 13 20 30  0.0040000  0  6 16 18 02 19 06 11
  25458848.908     4556441.549 2   3550474.840 1
  25774993.246    27462329.652 2  21399184.516 1
  22310504.957    -9701733.072 4  -7559762.119 3
  23122151.972    12323879.652 3   9603018.774 2
  23540230.841    -5896254.841 3  -4594454.731 2
  25097079.457     4761192.209 2   3710022.935 1
 91  5 13 20 30 15.0040000  0  6 16 18 02 19 06 11
  25466838.376     4598448.054 2   3583207.098 1
  25788845.150    27535161.816 2  21455936.652 1
  22311224.761    -9697946.576 4  -7556811.588 3
  23130060.794    12365418.800 2   9635386.921 2
  23538199.147    -5906892.108 3  -4602743.456 2
  25106324.155     4809756.261 2   3747865.037 1
 91  5 13 20 30 30.0040000  0  6 16 18 02 19 06 11
  25474846.726     4640542.522 2   3616007.832 1
  25802709.654    27608013.112 2  21512703.804 1
  22311962.548    -9694081.438 4  -7553799.779 3
  23137979.511    12407020.571 2   9667803.860 2
  23536181.544    -5917508.525 3  -4611015.952 2
  25115587.742     4858445.176 2   3785804.442 1
 91  5 13 20 30 45.0040000  0  6 16 18 02 19 06 11
  25482870.677     4682721.167 2   3648874.181 1
  25816579.253    27680879.834 2  21569482.911 1
  22312711.729    -9690141.031 4  -7550729.316 3
  23145905.426    12448681.522 2   9700266.924 2
  23534167.832    -5928107.507 3  -4619274.859 2
  25124872.314     4907255.443 2   3823838.396 1
 91  5 13 20 31  0.0040000  0  6 16 18 02 19 06 11
  25490909.914     4724986.384 2   3681808.018 1
  25830449.453    27753764.475 2  21626275.951 1
  22313473.807    -9686122.723 4  -7547598.153 3
  23153840.031    12490404.393 2   9732778.238 2
  23532153.528    -5938686.241 3  -4627517.982 2
  25134184.762     4956189.521 2   3861968.845 1
 91  5 13 20 31 15.0040000  0  6 16 18 02 19 06 11
  25498975.823     4767338.813 2   3714809.864 1
  25844318.747    27826667.672 2  21683083.446 1
  22314257.758    -9682025.452 4  -7544405.469 3
  23161795.926    12532190.302 2   9765338.662 2
  23530144.624    -5949243.421 3  -4635744.317 2
  25143521.205     5005248.137 2   3900196.328 1
 91  5 13 20 31 30.0040000  0  6 16 18 02 19 06 11
  25507044.743     4809774.725 2   3747876.721 1
  25858192.543    27899585.853 2  21739902.666 1
  22315051.908    -9677852.844 4  -7541154.071 3
  23169762.605    12574035.799 2   9797945.513 2
  23528139.611    -5959782.598 3  -4643956.618 2
  25152885.524     5054427.592 2   3938517.942 1
 91  5 13 20 31 45.0040000  0  6 16 18 02 19 06 11
  25515144.837     4852295.302 2   3781009.468 1
  25872075.334    27972519.962 2  21796734.194 1
  22315860.150    -9673603.451 4  -7537842.841 3
  23177727.792    12615942.450 2   9830600.030 2
  23526135.192    -5970302.201 3  -4652153.687 2
  25162256.430     5103729.012 2   3976934.648 1
 91  5 13 20 32  0.0040000  0  6 16 18 02 19 06 11
  25523249.119     4894898.814 2   3814206.991 1
  25885956.624    28045468.403 2  21853576.962 1
  22316678.888    -9669278.971 4  -7534473.104 3
  23185725.654    12657908.665 2   9863300.961 2
  23524137.081    -5980803.743 3  -4660336.652 2
  25171666.914     5153150.410 2   4015444.776 1
 91  5 13 20 32 15.0040000  0  6 16 18 02 19 06 11
  25531369.901     4937584.306 2   3847468.294 1
  25899840.916    28118430.319 2  21910430.250 1
  22317518.305    -9664880.004 4  -7531045.331 3
  23193715.123    12699933.939 2   9896047.913 2
  23522141.360    -5991287.695 3  -4668505.921 2
  25181099.585     5202691.109 2   4054047.921 1
 91  5 13 20 32 30.0040000  0  6 16 18 02 19 06 11
  25539502.671     4980351.435 2   3880793.242 1
  25913735.094    28191405.524 2  21967293.818 1
  22318369.116    -9660406.420 4  -7527559.406 3
  23201722.879    12742018.363 2   9928840.940 2
  23520148.040    -6001753.772 3  -4676661.266 2
  25190541.253     5252350.862 2   4092743.820 1
 91  5 13 20 32 45.0040000  0  6 16 18 02 19 06 11
  25547665.717     5023199.178 2   3914181.002 1
  25927619.386    28264393.160 2  22024167.155 1
  22319237.910    -9655859.126 4  -7524016.047 3
  23209743.531    12784161.336 2   9961679.600 2
  23518161.315    -6012202.706 3  -4684803.239 2
  25200018.588     5302128.633 2   4131531.664 1
 91  5 13 20 33  0.0050000  0  6 16 18 02 19 06 11
  25555835.659     5066131.922 2   3947634.957 1
  25941515.966    28337399.531 2  22081055.050 1
  22320114.508    -9651235.645 4  -7520413.324 3
  23217779.168    12826367.728 2   9994567.678 2
  23516178.188    -6022633.025 3  -4692930.724 2
  25209509.721     5352029.586 2   4170415.509 1
 91  5 13 20 33 15.0050000  0  6 16 18 02 19 06 11
  25564027.490     5109150.707 2   3981155.966 1
  25955407.447    28410421.407 2  22137954.972 1
  22321013.281    -9646529.848 4  -7516746.463 3
  23225819.897    12868638.848 2  10027506.205 2
  23514196.262    -6033036.368 3  -4701037.172 2
  25219035.926     5402053.557 2   4209395.241 1
 91  5 13 20 33 30.0050000  0  6 16 18 02 19 06 11
  25572220.820     5152247.632 2   4014737.838 1
  25969308.221    28483453.329 2  22194862.806 1
  22321919.855    -9641751.741 4  -7513023.241 3
  23233872.326    12910967.164 2  10060489.293 2
  23512219.432    -6043423.632 3  -4709131.102 2
  25228574.721     5452193.352 2   4248465.188 1
 91  5 13 20 33 45.0050000  0  6 16 18 02 19 06 11
  25580439.629     5195422.831 2   4048380.822 1
  25983203.306    28556495.475 2  22251778.558 1
  22322843.818    -9636901.132 4  -7509243.535 3
  23241940.338    12953353.043 2  10093517.227 2
  23510250.096    -6053794.370 3  -4717212.149 2
  25238137.205     5502449.056 2   4287625.486 1
 91  5 13 20 34  0.0050000  0  6 16 18 02 19 06 11
  25588674.029     5238676.578 2   4082084.872 1
  25997112.473    28629548.136 2  22308702.954 1
  22323778.870    -9631977.265 4  -7505406.746 3
  23250017.346    12995797.376 2  10126590.715 2
  23508277.462    -6064147.674 3  -4725279.623 2
  25247723.063     5552821.155 2   4326876.449 1
 91  5 13 20 34 15.0050000  0  6 16 18 02 19 06 11
  25596913.830     5282011.587 2   4115852.374 1
  26011011.152    28702614.127 2  22365637.324 1
  22324730.413    -9626977.089 4  -7501510.495 3
  23258104.248    13038303.013 2  10159711.981 2
  23506314.714    -6074480.415 3  -4733331.053 2
  25257326.014     5603312.327 2   4366220.196 1
 91  5 13 20 34 30.0050000  0  6 16 18 02 19 06 11
  25605181.202     5325425.105 2   4149680.937 1
  26024912.528    28775690.912 2  22422580.114 1
  22325697.539    -9621903.186 4  -7497556.789 3
  23266205.538    13080867.703 2  10192879.257 2
  23504348.982    -6084795.067 3  -4741368.405 2
  25266960.445     5653919.934 2   4405654.725 1
 91  5 13 20 34 45.0050000  0  6 16 18 02 19 06 11
  25613453.975     5368917.785 2   4183571.277 1
  26038826.494    28848778.707 2  22479531.887 1
  22326674.568    -9616754.802 4  -7493545.056 3
  23274315.823    13123492.148 2  10226093.090 2
  23502389.837    -6095090.690 3  -4749390.912 2
  25276607.169     5704644.342 2   4445180.206 1
 91  5 13 20 35  0.0050000  0  6 16 18 02 19 06 11
  25621752.234     5412487.202 2   4217521.352 1
  26052739.561    28921875.127 2  22536490.019 1
  22327667.773    -9611534.048 4  -7489476.922 3
  23282439.606    13166174.450 2  10259352.000 2
  23500431.888    -6105369.212 3  -4757400.111 2
  25286285.365     5755483.201 2   4484794.897 1
 91  5 13 20 35 15.0050000  0  6 16 18 02 19 06 11
  25630054.986     5456134.887 2   4251532.359 1
  26066647.839    28994982.229 2  22593456.418 1
  22328676.579    -9606238.825 4  -7485350.767 3
  23290572.673    13208916.731 2  10292657.651 2
  23498482.943    -6115628.383 3  -4765394.238 2
  25295990.548     5806438.447 2   4524500.279 1
 91  5 13 20 35 30.0050000  0  6 16 18 02 19 06 11
  25638371.821     5499861.507 2   4285605.045 1
  26080563.000    29068100.676 2  22650431.624 1
  22329699.171    -9600868.313 4  -7481165.941 3
  23298716.532    13251720.027 2  10326010.861 2
  23496531.293    -6125867.179 3  -4773372.468 2
  25305700.225     5857510.829 2   4564296.917 1
 91  5 13 20 35 45.0050000  0  6 16 18 02 19 06 11
  25646703.960     5543667.213 2   4319739.203 1
  26094473.668    29141230.304 2  22707415.995 1
  22330734.056    -9595422.229 4  -7476922.234 3
  23306875.085    13294584.558 2  10359411.769 2
  23494589.834    -6136085.271 3  -4781334.576 2
  25315445.578     5908700.171 2   4604184.736 1
 91  5 13 20 36  0.0050000  0  6 16 18 02 19 06 11
  25655068.766     5587554.586 2   4353937.060 1
  26108392.136    29214373.997 2  22764410.919 1
  22331786.330    -9589897.526 4  -7472617.263 3
  23315039.937    13337513.467 2  10392862.840 2
  23492650.775    -6146279.503 3  -4789278.089 2
  25325202.326     5960009.310 2   4644165.867 1
 91  5 13 20 36 15.0050000  0  6 16 18 02 19 06 11
  25663420.684     5631522.979 2   4388198.072 1
  26122314.496    29287531.335 2  22821416.447 1
  22332853.289    -9584294.702 4  -7468251.411 3
  23323224.866    13380506.403 2  10426363.801 2
  23490714.420    -6156450.042 3  -4797203.141 2
  25334993.251     6011437.601 2   4684239.859 1
 91  5 13 20 36 30.0050000  0  6 16 18 02 19 06 11
  25671811.272     5675568.529 2   4422519.167 1
  26136233.566    29360698.178 2  22878429.366 1
  22333935.237    -9578617.537 4  -7463827.641 3
  23331409.803    13423559.532 2  10459911.693 2
  23488779.558    -6166600.717 3  -4805112.708 2
  25344800.657     6062980.857 2   4724403.474 1
 91  5 13 20 36 45.0050000  0  6 16 18 02 19 06 11
  25680201.564     5719693.990 2   4456902.508 1
  26150161.021    29433877.431 2  22935451.994 1
  22335028.284    -9572862.739 4  -7459343.374 3
  23339620.218    13466676.257 2  10493509.133 2
  23486853.987    -6176727.977 3  -4813004.044 2
  25354635.356     6114642.185 2   4764658.980 1
 91  5 13 20 37  0.0050000  0  6 16 18 02 19 06 11
  25688619.741     5763905.257 2   4491352.749 1
  26164097.175    29507075.000 2  22992488.840 1
  22336140.508    -9567024.097 4  -7454793.767 3
  23347841.426    13509862.869 2  10527161.015 2
  23484930.223    -6186825.457 3  -4820872.173 2
  25364490.732     6166427.497 2   4805011.196 1
 91  5 13 20 37 15.0050000  0  6 16 18 02 19 06 11
  25697052.297     5808201.976 2   4525869.597 1
  26178027.029    29580290.843 2  23049539.933 1
  22337267.129    -9561101.662 4  -7450178.872 3
  23356072.824    13553119.508 2  10560867.474 2
  23483015.149    -6196892.970 3  -4828716.939 2
  25374366.491     6218336.617 2   4845459.825 1
 91  5 13 20 37 30.0050000  0  6 16 18 02 19 06 11
  25705496.858     5852581.280 2   4560450.761 1
  26191961.386    29653521.845 2  23106602.926 1
  22338408.740    -9555098.173 4  -7445500.818 3
  23364312.922    13596443.467 2  10594626.371 2
  23481106.069    -6206933.178 3  -4836540.442 2
  25384263.539     6270366.568 2   4886002.611 1
 91  5 13 20 37 45.0050000  0  6 16 18 02 19 06 11
  25713954.002     5897043.058 2   4595096.205 1
  26205892.741    29726768.506 2  23163678.073 1
  22339567.138    -9549013.018 4  -7440759.131 3
  23372573.401    13639835.226 2  10628438.119 2
  23479201.185    -6216945.317 3  -4844342.074 2
  25394191.169     6322517.626 2   4926639.808 1
 91  5 13 20 38  0.0050000  0  6 16 18 02 19 06 11
  25722429.730     5941588.316 2   4629806.681 1
  26219840.281    29800031.849 2  23220766.192 1
  22340741.424    -9542844.933 4  -7435952.816 3
  23380845.581    13683296.397 2  10662303.932 2
  23477302.000    -6226927.930 3  -4852120.694 2
  25404138.884     6374790.802 2   4967372.141 1
 91  5 13 20 38 15.0050000  0  6 16 18 02 19 06 11
  25730912.359     5986217.145 2   4664582.280 1
  26233784.227    29873311.602 2  23277867.058 1
  22341931.005    -9536594.033 4  -7431081.977 3
  23389128.841    13726827.068 2  10696223.917 2
  23475402.814    -6236880.862 3  -4859876.183 2
  25414106.081     6427185.881 2   5008199.447 1
 91  5 13 20 38 30.0050000  0  6 16 18 02 19 06 11
  25739438.753     6030923.772 2   4699418.484 1
  26247732.369    29946601.738 2  23334976.014 1
  22343135.873    -9530266.019 4  -7426151.053 3
  23397421.403    13770421.562 2  10730193.633 2
  23473517.423    -6246809.694 3  -4867612.910 2
  25424100.859     6479697.001 2   5049117.213 1
 91  5 13 20 38 45.0050000  0  6 16 18 02 19 06 11
  25747955.559     6075709.255 2   4734316.208 1
  26261678.417    30019903.646 2  23392094.184 1
  22344355.425    -9523859.377 4  -7421158.852 3
  23405731.650    13814081.562 2  10764214.389 2
  23471632.031    -6256712.836 3  -4875329.604 2
  25434117.529     6532325.317 2   5090126.282 1
 91  5 13 20 39  0.0050000  0  6 16 18 02 19 06 11
  25756489.754     6120575.491 2   4769276.805 1
  26275632.257    30093219.447 2  23449223.238 1
  22345589.068    -9517371.602 4  -7416103.428 3
  23414046.993    13857809.452 2  10798288.056 2
  23469753.524    -6266587.718 3  -4883024.276 2
  25444153.978     6585072.858 2   5131228.258 1
 91  5 13 20 39 15.0050000  0  6 16 18 02 19 06 11
  25765034.140     6165522.618 2   4804300.343 1
  26289588.496    30166549.298 2  23506363.547 1
  22346839.804    -9510802.343 4  -7410984.516 3
  23422383.320    13901605.572 2  10832414.887 2
  23467881.020    -6276433.850 3  -4890696.561 2
  25454213.514     6637939.701 2   5172423.192 1
 91  5 13 20 39 30.0050000  0  6 16 18 02 19 06 11
  25773598.907     6210546.627 2   4839383.939 1
  26303548.932    30239889.317 2  23563511.501 1
  22348102.231    -9504155.532 4  -7405805.172 3
  23430732.839    13945466.192 2  10866591.955 2
  23466011.220    -6286254.781 3  -4898349.206 2
  25464299.434     6690921.899 2   5213708.009 1
 91  5 13 20 39 45.0050000  0  6 16 18 02 19 06 11
  25782188.559     6255649.951 2   4874529.277 1
  26317503.374    30313242.072 2  23620669.249 1
  22349383.243    -9497428.201 4  -7400563.079 3
  23439091.057    13989394.261 2  10900821.604 2
  23464148.610    -6296047.548 3  -4905979.910 2
  25474401.540     6744022.097 2   5255084.778 1
 91  5 13 20 40  0.0050000  0  6 16 18 02 19 06 11
  25790803.094     6300837.252 2   4909740.108 1
  26331468.007    30386612.109 2  23677840.526 1
  22350679.847    -9490615.674 4  -7395254.606 3
  23447460.059    14033394.629 2  10935107.587 2
  23462291.392    -6305807.081 3  -4913584.709 2
  25484529.131     6797244.931 2   5296557.066 1
 91  5 13 20 40 15.0050000  0  6 16 18 02 19 06 11
  25799412.238     6346104.937 2   4945013.457 1
  26345433.233    30459996.384 2  23735023.261 1
  22351992.635    -9483720.765 4  -7389881.942 3
  23455853.047    14077464.439 2  10969447.685 2
  23460438.074    -6315536.179 3  -4921165.776 2
  25494678.605     6850587.227 2   5338122.498 1
 91  5 13 20 40 30.0050000  0  6 16 18 02 19 06 11
  25808051.361     6391452.389 2   4980349.059 1
  26359398.467    30533393.589 2  23792215.736 1
  22353318.922    -9476744.224 4  -7384445.663 3
  23464251.435    14121603.118 2  11003841.449 2
  23458595.549    -6325235.387 3  -4928723.576 2
  25504854.456     6904047.840 2   5379780.099 1
 91  5 13 20 40 45.0050000  0  6 16 18 02 19 06 11
  25816687.177     6436882.512 2   5015749.029 1
  26373371.494    30606807.120 2  23849420.903 1
  22354662.588    -9469682.785 4  -7378943.235 3
  23472662.118    14165814.264 2  11038291.679 1
  23456754.229    -6334901.159 3  -4936255.301 2
  25515052.799     6957629.904 2   5421532.344 1
 91  5 13 20 41  0.0050000  0  6 16 18 02 19 06 11
  25825341.891     6482385.780 2   5051206.139 1
  26387341.824    30680227.581 2  23906631.900 1
  22356022.746    -9462545.772 4  -7373381.909 3
  23481088.679    14210088.516 2  11072791.083 2
  23454917.401    -6344542.633 3  -4943768.108 2
  25525261.333     7011323.989 2   5463371.882 1
 91  5 13 20 41 15.0050000  0  6 16 18 02 19 06 11
  25834014.283     6527968.789 2   5086725.139 1
  26401315.452    30753661.639 2  23963853.079 1
  22357396.994    -9455326.055 4  -7367756.150 3
  23489525.738    14254432.888 2  11107345.117 2
  23453091.061    -6354152.772 3  -4951256.490 2
  25535509.733     7065136.752 2   5505303.907 1
 91  5 13 20 41 30.0050000  0  6 16 18 02 19 06 11
  25842712.466     6573629.720 2   5122305.003 1
  26415288.775    30827107.626 2  24021083.502 1
  22358784.138    -9448025.119 4  -7362067.089 3
  23497981.982    14298845.976 2  11141952.697 2
  23451266.824    -6363732.776 3  -4958721.398 2
  25545770.731     7119066.480 2   5547327.075 1
 91  5 13 20 41 45.0050000  0  5 16 02 19 06 11
  25851402.849     6619366.005 2   5157943.852 1
  22360188.968    -9440645.514 4  -7356316.739 3
  23506441.228    14343325.278 2  11176611.873 2
  23449447.988    -6373285.039 3  -4966164.697 2
  25556053.010     7173110.261 2   5589439.104 1
 91  5 13 20 42  0.0050000  0  5 16 02 19 06 11
  25860136.701     6665174.578 2   5193638.829 1
  22361609.677    -9433189.848 4  -7350507.125 3
  23514918.160    14387868.407 2  11211320.787 2
  23447636.638    -6382811.953 3  -4973588.241 2
  25566363.777     7227265.405 2   5631637.911 1
 91  5 13 20 42 15.0050000  0  5 16 02 19 06 11
  25868855.266     6711054.239 2   5229389.150 1
  22363041.485    -9425658.984 4  -7344638.905 3
  23523408.886    14432474.475 2  11246078.755 2
  23445829.188    -6392314.258 3  -4980992.597 2
  25576685.031     7281530.640 2   5673922.510 1
 91  5 13 20 42 30.0050000  0  5 16 02 19 06 11
  25877597.214     6757007.070 2   5265196.458 1
  22364490.682    -9418050.732 4  -7338710.384 3
  23531904.106    14477146.041 2  11280887.741 2
  23444023.239    -6401789.447 3  -4988375.830 2
  25587031.169     7335908.097 2   5716294.541 1
 91  5 13 20 42 45.0050000  0  5 16 02 19 06 11
  25886367.641     6803033.331 2   5301061.007 1
  22365948.874    -9410364.745 4  -7332721.285 3
  23540421.208    14521883.429 2  11315748.012 2
  23442226.582    -6411237.036 3  -4995737.556 2
  25597405.184     7390397.927 2   5758754.108 1
 91  5 13 20 43  0.0050000  0  5 16 02 19 06 11
  25895128.776     6849125.375 2   5336976.780 1
  22367427.152    -9402607.957 4  -7326677.037 3
  23548949.104    14566679.312 2  11350653.874 1
  23440433.825    -6420664.073 3  -5003083.274 2
  25607791.798     7444992.578 2   5801295.397 1
 91  5 13 20 43 15.0050000  0  5 16 02 19 06 11
  25903923.485     6895284.622 2   5372944.927 1
  22368916.825    -9394778.619 4  -7320576.239 3
  23557481.196    14611535.873 2  11385607.027 2
  23438646.164    -6430068.333 3  -5010411.238 2
  25618204.483     7499693.692 2   5843919.649 1
 91  5 13 20 43 30.0050000  0  5 16 02 19 06 11
  25912716.999     6941512.255 2   5408966.299 1
  22370419.385    -9386875.543 4  -7314417.984 3
  23566024.683    14656454.447 2  11420608.502 2
  23436862.394    -6439448.447 3  -5017720.386 2
  25628627.070     7554502.382 2   5886627.713 1
 91  5 13 20 43 45.0050000  0  5 16 02 19 06 11
  25921523.705     6987802.652 2   5445036.591 1
  22371938.129    -9378903.897 4  -7308206.304 4
  23574587.653    14701429.892 2  11455654.272 2
  23435076.530    -6448809.387 3  -5025014.592 2
  25639073.940     7609413.122 2   5929415.305 1
 91  5 13 20 44  0.0050000  0  5 16 02 19 06 11
  25930340.602     7034159.923 2   5481158.990 1
  22373469.168    -9370859.244 4  -7301937.729 3
  23583158.720    14746466.767 2  11490747.912 2
  23433299.661    -6458146.637 3  -5032290.331 2
  25649545.693     7664430.138 2   5972285.689 1
 91  5 13 20 44 15.0050000  0  5 16 02 19 06 11
  25939181.781     7080585.463 2   5517334.653 1
  22375012.500    -9362740.431 4  -7295611.367 3
  23591744.777    14791566.403 2  11525890.469 2
  23431531.789    -6467458.716 3  -5039546.465 2
  25660040.228     7719554.303 2   6015239.568 1
 91  5 13 20 44 30.0050000  0  5 16 02 19 06 11
  25948025.656     7127081.806 2   5553565.450 1
  22376572.619    -9354544.276 4  -7289224.740 3
  23600341.024    14836731.943 2  11561084.377 2
  23429763.008    -6476742.360 3  -5046780.441 2
  25670545.852     7774788.505 2   6058279.146 1
 91  5 13 20 44 45.0050000  0  5 16 02 19 06 11
  25956889.922     7173640.161 2   5589844.587 1
  22378146.228    -9346279.135 4  -7282784.364 3
  23608935.771    14881954.987 2  11596323.097 2
  23428003.232    -6486005.805 3  -5053998.675 2
  25681078.760     7830124.209 2   6101397.860 1
 91  5 13 20 45  0.0050000  0  5 16 02 19 06 11
  25965751.186     7220262.063 2   5626173.198 1
  22379733.037    -9337943.184 4  -7276288.800 3
  23617559.608    14927237.521 2  11631608.156 2
  23426239.853    -6495247.031 3  -5061199.586 2
  25691624.555     7885562.818 2   6144596.746 1
 91  5 13 20 45 15.0050000  0  5 16 02 19 06 11
  25974640.327     7266950.590 2   5662553.777 1
  22381331.529    -9329533.325 4  -7269735.651 3
  23626186.734    14972582.965 2  11666942.250 2
  23424487.869    -6504462.668 3  -5068380.565 2
  25702201.237     7941107.366 2   6187878.235 1
 91  5 13 20 45 30.0050000  0  5 16 02 19 06 11
  25983536.072     7313697.430 2   5698979.796 1
  22382944.706    -9321057.154 4  -7263130.837 3
  23634829.452    15017983.598 2  11702319.346 2
  23422737.978    -6513660.297 3  -5075547.512 2
  25712789.008     7996749.842 2   6231235.980 1
 91  5 13 20 45 45.0050000  0  5 16 02 19 06 11
  25992446.799     7360507.800 2   5735455.220 1
  22384572.881    -9312509.303 4  -7256470.159 3
  23643479.062    15063444.864 2  11737743.695 2
  23420989.885    -6522834.207 3  -5082695.969 2
  25723383.375     8052495.347 2   6274674.014 1
 91  5 13 20 46  0.0050000  0  5 16 02 19 06 11
  26001370.727     7407382.993 2   5771981.188 1
  22386211.849    -9303888.229 4  -7249752.434 3
  23652135.269    15108968.297 2  11773216.474 2
  23419249.592    -6531982.657 3  -5089824.612 2
  25734026.001     8108345.207 2   6318193.373 1
 91  5 13 20 46 15.0050000  0  5 16 02 19 06 11
  26010304.541     7454320.431 2   5808555.621 1
  22387864.899    -9295196.188 4  -7242979.409 4
  23660814.859    15154551.791 2  11808736.066 2
  23417513.496    -6541107.783 3  -5096935.055 2
  25744669.840     8164296.933 2   6361792.112 1
 91  5 13 20 46 30.0050000  0  5 16 02 19 06 11
  26019246.748     7501319.980 2   5845178.564 1
  22389534.152    -9286433.409 4  -7236151.264 3
  23669497.450    15200195.387 2  11844302.486 2
  23415783.691    -6550209.445 3  -5104027.231 2
  25755331.356     8220350.154 2   6405469.939 1
 91  5 13 20 46 45.0050000  0  5 16 02 19 06 11
  26028186.259     7548381.516 2   5881849.760 1
  22391215.088    -9277599.536 4  -7229267.718 3
  23678201.322    15245899.377 2  11879915.968 2
  23414055.387    -6559287.230 3  -5111100.805 2
  25766028.846     8276504.771 2   6449226.778 1
 91  5 13 20 47  0.0050000  0  5 16 02 19 06 11
  26037171.943     7595504.326 2   5918568.713 1
  22392909.208    -9268694.664 4  -7222328.843 3
  23686902.201    15291663.743 2  11915576.478 2
  23412330.084    -6568341.060 3  -5118155.705 2
  25776725.445     8332760.529 2   6493062.418 1
 91  5 13 20 47 15.0050000  0  5 16 02 19 06 11
  26046140.831     7642692.184 2   5955338.260 1
  22394618.326    -9259715.323 4  -7215331.953 3
  23695628.558    15337492.196 2  11951286.935 2
  23410612.869    -6577367.137 3  -5125188.971 2
  25787463.707     8389120.824 2   6536979.538 1
 91  5 13 20 47 30.0050000  0  5 16 02 19 06 11
  26055137.902     7689942.093 2   5992156.207 1
  22396338.237    -9250663.787 4  -7208278.799 3
  23704359.713    15383382.481 2  11987045.577 2
  23408902.556    -6586367.500 3  -5132202.207 2
  25798193.881     8445582.987 2   6580975.997 1
 91  5 13 20 47 45.0050000  0  5 16 02 19 06 11
  26064142.171     7737256.063 2   6029024.133 1
  22398077.631    -9241537.898 4  -7201167.705 3
  23713106.460    15429336.556 2  12022853.930 2
  23407191.038    -6595340.024 3  -5139193.749 2
  25808966.624     8502148.732 2   6625053.147 1
 91  5 13 20 48  0.0050000  0  5 16 02 19 06 11
  26073154.528     7784634.579 2   6065942.306 1
  22399829.022    -9232336.899 4  -7193998.088 3
  23721861.601    15475355.375 2  12058712.726 2
  23405490.916    -6604283.698 3  -5146162.797 2
  25819750.458     8558818.674 2   6669211.567 1
 91  5 13 20 48 15.0050000  0  5 16 02 19 06 11
  26082182.485     7832081.010 2   6102913.466 1
  22401592.698    -9223056.979 4  -7186766.979 4
  23730634.428    15521442.808 2  12094624.995 2
  23403795.592    -6613194.494 3  -5153106.235 2
  25830553.783     8615596.338 2   6713453.884 1
 91  5 13 20 48 30.0050000  0  5 16 02 19 06 11
  26091225.423     7879593.218 2   6139935.760 1
  22403372.271    -9213700.078 4  -7179475.881 3
  23739411.145    15567597.097 2  12130589.339 2
  23402106.560    -6622074.277 3  -5160025.525 2
  25841383.781     8672479.484 2   6757778.406 1
 91  5 13 20 48 45.0050000  0  5 16 02 19 06 11
  26100284.852     7927177.438 2   6177014.231 1
  22405171.022    -9204259.569 4  -7172119.634 3
  23748211.255    15613824.851 2  12166610.952 2
  23400427.718    -6630916.039 3  -5166915.176 2
  25852223.681     8729474.481 2   6802190.127 1
 91  5 13 20 49  0.0050000  0  5 16 02 19 06 11
  26109340.381     7974827.271 2   6214143.844 1
  22406982.067    -9194741.641 4  -7164703.060 3
  23757016.461    15660120.094 2  12202685.131 2
  23398749.487    -6639725.731 3  -5173779.820 2
  25863087.253     8786575.030 2   6846684.062 1
 91  5 13 20 49 15.0050000  0  5 16 02 19 06 11
  26118426.788     8022545.916 2   6251327.023 1
  22408808.703    -9185142.935 4  -7157223.543 3
  23765845.948    15706486.322 2  12238814.641 2
  23397079.641    -6648499.864 3  -5180616.772 2
  25873975.718     8843784.102 2   6891262.526 1
 91  5 13 20 49 30.0050000  0  5 16 02 19 06 11
  26127517.697     8070329.598 2   6288560.924 1
  22410649.134    -9175466.704 4  -7149683.616 3
  23774670.942    15752920.104 2  12274996.773 2
  23395412.490    -6657241.651 3  -5187428.519 2
  25884889.965     8901098.091 2   6935922.767 1
 91  5 13 20 49 45.0050000  0  5 16 02 19 06 11
  26136625.393     8118174.239 2   6325842.313 1
  22412505.445    -9165716.700 4  -7142086.202 3
  23783531.308    15799418.064 2  12311228.926 2
  23393759.135    -6665954.380 3  -5194217.610 2
  25895800.609     8958513.182 2   6980661.753 1
 91  5 13 20 50  0.0050000  0  5 16 02 19 06 11
  26145736.684     8166078.938 2   6363170.478 1
  22414374.947    -9155893.744 4  -7134431.947 3
  23792387.476    15845979.324 2  12347510.406 2
  23392103.685    -6674638.844 3  -5200984.704 2
  25906757.121     9016028.173 2   7025478.559 1
 91  5 13 20 50 15.0050000  0  5 16 02 19 06 11
  26154874.360     8214047.726 2   6400548.611 1
  22416257.651    -9145993.482 4  -7126717.455 3
  23801263.730    15892608.224 2  12383844.587 1
  23390455.721    -6683290.460 3  -5207726.189 2
  25917717.533     9073647.060 2   7070376.419 1
 91  5 13 20 50 30.0050000  0  5 16 02 19 06 11
  26164008.432     8262072.149 2   6437970.081 1
  22418156.235    -9136024.001 4  -7118949.021 3
  23810148.081    15939296.851 2  12420225.314 1
  23388814.964    -6691917.196 3  -5214448.275 2
  25928702.532     9131361.553 2   7115348.706 1
 91  5 13 20 50 45.0050000  0  5 16 02 19 06 11
  26173154.798     8310151.748 2   6475434.513 1
  22420066.214    -9125985.418 4  -7111126.739 3
  23819041.724    15986045.111 2  12456652.511 1
  23387176.895    -6700518.745 3  -5221150.751 2
  25939696.519     9189171.384 2   7160395.333 1
 91  5 13 20 51  0.0050000  0  5 16 02 19 06 11
  26182317.061     8358287.166 2   6512942.522 1
  22421988.783    -9115876.838 4  -7103249.922 3
  23827948.254    16032854.086 2  12493127.009 1
  23385547.821    -6709094.015 3  -5227832.748 2
  25950717.195     9247077.156 2   7205516.703 1
 91  5 13 20 51 15.0050000  0  5 16 02 19 06 11
  26191488.607     8406476.123 2   6550492.175 1
  22423926.935    -9105700.428 4  -7095320.245 3
  23836872.775    16079721.747 2  12529647.245 1
  23383918.451    -6717645.087 3  -5234495.883 2
  25961755.252     9305076.476 2   7250710.997 1
 91  5 13 20 51 30.0050000  0  5 16 02 19 06 11
  26200670.057     8454718.740 2   6588083.625 1
  22425877.389    -9095455.522 4  -7087337.194 3
  23845799.993    16126648.595 2  12566213.601 1
  23382296.872    -6726171.186 3  -5241139.557 2
  25972801.405     9363169.549 2   7295978.305 1
 91  5 13 20 51 45.0050000  0  5 16 02 19 06 11
  26209857.797     8503011.725 2   6625714.393 1
  22427838.933    -9085145.142 4  -7079303.104 3
  23854740.708    16173631.737 2  12602823.827 2
  23380677.090    -6734674.946 3  -5247765.839 2
  25983875.741     9421353.238 2   7341316.207 1
 91  5 13 20 52  0.0050000  0  5 16 02 19 06 11
  26219065.623     8551361.289 2   6663389.200 1
  22429813.967    -9074763.030 4  -7071213.165 3
  23863691.308    16220677.476 2  12639482.822 2
  23379068.407    -6743150.067 3  -5254369.794 2
  25994968.059     9479633.458 2   7386729.358 1
 91  5 13 20 52 15.0050000  0  5 16 02 19 06 11
  26228266.852     8599766.359 2   6701107.267 1
  22431803.989    -9064309.841 4  -7063067.821 3
  23872654.203    16267785.346 2  12676190.233 2
  23377458.825    -6751596.775 3  -5260951.613 2
  26006074.765     9538009.371 2   7432217.083 1
 91  5 13 20 52 30.0050000  0  5 16 02 19 06 11
  26237490.862     8648222.558 2   6738865.131 1
  22433805.704    -9053789.614 4  -7054870.238 3
  23881630.289    16314951.310 2  12712942.901 1
  23375854.330    -6760018.980 3  -5267514.326 2
  26017192.875     9596476.663 2   7477775.985 1
 91  5 13 20 52 45.0050000  0  5 16 02 19 06 11
  26246725.666     8696726.338 2   6776660.109 1
  22435817.609    -9043205.415 4  -7046622.804 4
  23890616.270    16362172.415 2  12749738.560 2
  23374260.034    -6768419.595 3  -5274060.225 2
  26028343.049     9655031.999 2   7523403.490 1
 91  5 13 20 53  0.0050000  0  5 16 02 19 06 11
  26255954.179     8745277.811 2   6814492.266 1
  22437844.801    -9032556.826 4  -7038325.194 3
  23899613.341    16409448.984 2  12786577.405 2
  23372662.746    -6776798.141 3  -5280588.925 2
  26039502.228     9713675.250 2   7569099.505 1
 91  5 13 20 53 15.0050000  0  5 16 02 19 06 11
  26265206.677     8793872.147 2   6852357.742 1
  22439881.294    -9021848.724 4  -7029981.213 3
  23908621.806    16456776.380 2  12823455.863 1
  23371071.740    -6785159.098 3  -5287103.922 2
  26050682.390     9772401.426 2   7614860.164 1
 91  5 13 20 53 30.0050000  0  5 16 02 19 06 11
  26274460.972     8842509.493 2   6890256.809 1
  22441929.775    -9011080.470 4  -7021590.357 3
  23917636.868    16504155.284 2  12860374.460 2
  23369484.643    -6793501.714 3  -5293604.632 2
  26061872.744     9831210.848 2   7660685.651 1
 91  5 13 20 53 45.0050000  0  5 16 02 19 06 11
  26283730.249     8891190.952 2   6928190.248 1
  22443993.542    -9000250.752 4  -7013151.607 3
  23926659.721    16551587.188 2  12897334.393 2
  23367899.639    -6801824.368 3  -5300089.783 2
  26073076.281     9890104.716 2   7706576.964 1
 91  5 13 20 54  0.0050000  0  5 16 02 19 06 11
  26293006.732     8939921.706 2   6966162.101 1
  22446064.813    -8989354.224 4  -7004660.802 3
  23935699.065    16599077.340 2  12934339.676 2
  23366323.928    -6810121.494 3  -5306555.040 2
  26084309.213     9949088.176 2   7752538.043 1
 91  5 13 20 54 15.0050000  0  6 16 02 19 15 06 11
  26302279.909     8988700.657 2   7004171.467 1
  22448153.465    -8978391.410 4  -6996118.342 3
  23944745.301    16646625.472 2  12971390.133 2
  26503464.036           0.975 2         0.256 1
  23364743.427    -6818393.417 3  -5313000.680 2
  26095555.320    10008160.381 2   7798568.342 1
 91  5 13 20 54 30.0050000  0  6 16 02 19 15 06 11
  26311568.084     9037536.528 2   7042225.623 1
  22450252.011    -8967353.509 4  -6987517.373 3
  23953809.520    16694240.440 2  13008492.689 1
  26500859.137      -13838.071 2    -10783.353 1
  23363179.111    -6826631.174 3  -5319419.673 2
  26106810.728    10067329.707 2   7844674.297 1
 91  5 13 20 54 45.0050000  0  6 16 02 19 15 06 11
  26320886.230     9086425.958 2   7080321.154 1
  22452367.649    -8956243.359 4  -6978860.108 3
  23962879.742    16741919.461 2  13045645.160 2
  26498227.261      -27615.282 2    -21518.835 1
  23361614.786    -6834837.326 3  -5325814.044 2
  26118079.031    10126593.137 2   7890853.561 1
 91  5 13 20 55  0.0050000  0  6 16 02 19 15 06 11
  26330196.287     9135372.623 2   7118461.200 1
  22454494.979    -8945057.020 4  -6970143.474 3
  23971964.055    16789666.386 2  13082850.527 2
  26495620.268      -41326.502 2    -32202.844 1
  23360061.569    -6843007.851 3  -5332180.660 2
  26129379.103    10185954.264 2   7937108.959 1
 91  5 13 20 55 15.0050000  0  6 16 02 19 15 06 11
  26339528.227     9184375.777 2   7156645.319 1
  22456640.291    -8933795.319 4  -6961368.116 3
  23981067.851    16837480.607 2  13120108.335 2
  26493031.554      -54971.921 2    -42835.558 1
  23358515.837    -6851143.085 3  -5338519.773 2
  26140677.089    10245412.127 2   7983439.737 1
 91  5 13 20 55 30.0050000  0  5 02 19 15 06 11
  22458795.498    -8922459.729 4  -6952535.178 3
  23990178.845    16885360.762 2  13157417.534 1
  26490456.338      -68552.593 2    -53417.859 1
  23356972.802    -6859244.415 3  -5344832.469 2
  26152017.933    10304964.911 2   8029844.472 1
 91  5 13 20 55 45.0050000  0  5 02 19 15 06 11
  22460966.296    -8911047.715 4  -6943642.697 3
  23999300.929    16933309.370 2  13194780.072 1
  26487886.515      -82065.632 2    -63947.501 1
  23355440.262    -6867309.201 3  -5351116.688 2
  26163375.268    10364614.867 2   8076324.939 1
 91  5 13 20 56  0.0050000  0  5 02 19 15 06 11
  22463154.483    -8899559.307 4  -6934690.685 3
  24008436.205    16981326.554 2  13232196.049 1
  26485293.011      -95510.507 1    -74424.000 1
  23353907.723    -6875337.083 3  -5357372.152 2
  26174741.607    10424361.752 2   8122880.900 1
 91  5 13 20 56 15.0060000  0  5 02 19 15 06 11
  22465355.256    -8887994.336 4  -6925679.010 3
  24017583.770    17029414.984 2  13269667.527 1
  26482764.565     -108888.553 1    -84848.391 1
  23352387.481    -6883328.955 3  -5363599.566 2
  26186128.322    10484208.672 2   8169514.860 1
 91  5 13 20 56 30.0060000  0  4 02 19 06 11
  22467569.523    -8876348.922 4  -6916604.657 4
  24026758.623    17077573.641 2  13307193.735 2
  23350878.020    -6891278.283 3  -5369793.828 2
  26197549.516    10544152.762 2   8216224.586 1
 91  5 13 20 56 45.0060000  0  4 02 19 06 11
  22469800.280    -8864626.489 4  -6907470.286 4
  24035932.272    17125801.680 2  13344773.981 1
  23349370.068    -6899189.456 3  -5375958.350 2
  26208962.316    10604193.612 2   8263009.626 1
 91  5 13 20 57  0.0060000  0  4 02 19 06 11
  22472045.730    -8852827.903 4  -6898276.578 3
  24045124.506    17174098.423 2  13382407.789 2
  23347871.103    -6907063.113 3  -5382093.658 2
  26220410.784    10664330.060 2   8309869.149 1
 91  5 13 20 57 15.0060000  0  4 02 19 06 11
  22474305.865    -8840957.052 4  -6889026.560 3
  24054320.640    17222459.813 2  13420091.979 2
  23346380.235    -6914902.971 3  -5388202.611 2
  26231867.655    10724557.831 2   8356799.876 1
 91  5 13 20 57 30.0060000  0  4 02 19 06 11
  22476577.988    -8829013.379 4  -6879719.792 4
  24063540.157    17270886.558 2  13457827.065 1
  23344894.462    -6922708.340 3  -5394284.697 2
  26243356.599    10784877.190 2   8403801.926 1
 91  5 13 20 57 45.0060000  0  5 16 02 19 06 11
  26433362.667      166982.20712    130104.930 1
  22478865.110    -8816994.598 4  -6870354.505 4
  24072767.771    17319381.085 2  13495614.972 1
  23343419.491    -6930476.539 3  -5400337.821 2
  26254841.050    10845290.250 2   8450877.016 1
 91  5 13 20 58  0.0060000  0  4 02 19 06 11
  22481166.610    -8804898.489 4  -6860928.956 3
  24082008.569    17367945.563 2  13533457.373 2
  23341947.208    -6938205.290 3  -5406360.199 2
  26266352.784    10905798.961 2   8498026.628 1
 91  5 13 20 58 15.0060000  0  4 02 19 06 11
  22483482.210    -8792722.329 4  -6851441.035 3
  24091267.061    17416582.716 2  13571356.437 1
  23340486.616    -6945891.567 3  -5412349.482 2
  26277898.389    10966405.734 2   8545252.687 1
 91  5 13 20 58 30.0060000  0  4 02 19 06 11
  22485815.191    -8780469.361 4  -6841893.259 4
  24100532.751    17465289.561 2  13609309.822 2
  23339027.524    -6953538.400 3  -5418308.035 2
  26289445.495    11027107.021 2   8592552.381 1
 91  5 13 20 58 45.0060000  0  5 16 02 19 06 11
  26471180.282      198535.118 2    154691.562 1
  22488161.373    -8768142.885 4  -6832288.207 3
  24109813.423    17514062.974 2  13647315.040 1
  23337580.430    -6961148.691 3  -5424238.100 2
  26301021.079    11087899.315 2   8639922.965 1
 91  5 13 20 59  0.0060000  0  5 02 19 15 06 11
  22490521.035    -8755738.590 4  -6822622.515 4
  24119110.288    17562907.169 2  13685375.440 1
  26455649.239       99626.91412     77630.960 1
  23336141.424    -6968718.070 3  -5430136.310 2
  26312609.560    11148786.464 2   8687367.506 1
 91  5 13 20 59 15.0060000  0  5 02 19 15 06 11
  22492897.187    -8743255.262 4  -6812895.241 4
  24128417.048    17611823.463 2  13723492.006 1
  26453285.371       87109.030 2     67876.841 1
  23334706.920    -6976245.041 3  -5436001.462 2
  26324194.140    11209769.535 2   8734886.711 1
 91  5 13 20 59 30.0060000  0  5 02 19 15 06 11
  22495285.634    -8730691.030 4  -6803104.932 3
  24137740.586    17660813.743 2  13761666.216 1
  26450873.245       74669.937 2     58184.016 1
  23333283.201    -6983727.563 3  -5441831.969 2
  26335821.586    11270850.063 2   8782481.883 1
 91  5 13 20 59 45.0060000  0  5 02 19 15 06 11
  22497693.868    -8718049.304 4  -6793254.218 3
  24147073.730    17709874.540 2  13799895.383 1
  26448538.458       62306.881 2     48550.558 1
  23331867.883    -6991168.736 3  -5447630.270 2
  26347454.137    11332024.393 2   8830150.167 1
 91  5 13 21  0  0.0060000  0  5 02 19 15 06 11
  22500113.193    -8705330.413 4  -6783343.384 4
  24156429.952    17759005.599 2  13838179.296 1
  26446197.974       50019.711 2     38976.146 1
  23330460.654    -6998568.827 3  -5453396.554 2
  26359128.359    11393291.851 2   8877890.993 1
 91  5 13 21  0 15.0060000  0  5 02 19 15 06 11
  22502546.914    -8692532.323 4  -6773370.843 4
  24165790.074    17808209.312 2  13876519.830 1
  26443894.973       37811.157 2     29463.084 1
  23329060.327    -7005925.371 3  -5459128.906 2
  26370788.786    11454654.384 2   8925705.928 1
 91  5 13 21  0 30.0060000  0  5 02 19 15 06 11
  22504998.617    -8679658.464 4  -6763339.258 4
  24175164.279    17857482.150 2  13914914.241 2
  26441578.177       25678.007 2     20008.726 1
  23327668.995    -7013241.533 3  -5464829.786 2
  26382510.071    11516108.383 2   8973592.097 1
 91  5 13 21  0 45.0060000  0  5 02 19 15 06 11
  22507462.012    -8666711.483 4  -6753250.696 3
  24184551.083    17906821.413 2  13953360.375 2
  26439283.561       13617.997 2     10611.312 1
  23326282.147    -7020519.816 3  -5470501.153 2
  26394212.467    11577650.806 2   9021547.219 1
 91  5 13 21  1  0.0060000  0  5 02 19 15 06 11
  22509938.294    -8653689.420 4  -6743103.624 3
  24193959.167    17956229.368 2  13991860.052 2
  26437002.442        1633.635 2      1272.882 1
  23324906.704    -7027758.112 3  -5476141.357 2
  26405931.658    11639283.140 2   9069572.360 1
 91  5 13 21  1 15.0060000  0  5 02 19 15 06 11
  22512432.567    -8640595.599 4  -6732900.648 4
  24203371.457    18005702.780 2  14030410.740 2
  26434736.017      -10277.877 2     -8008.778 1
  23323534.855    -7034959.404 3  -5481752.732 2
  26417674.223    11701001.968 2   9117664.946 1
 91  5 13 21  1 30.0060000  0  5 02 19 15 06 11
  22514935.233    -8627431.753 4  -6722643.099 3
  24212796.031    18055240.090 2  14069011.193 1
  26432499.265      -22117.752 2    -17234.595 1
  23322172.298    -7042125.105 3  -5487336.371 2
  26429460.868    11762805.400 2   9165823.371 1
 91  5 13 21  1 45.0060000  0  5 02 19 15 06 11
  22517454.992    -8614197.197 4  -6712330.453 3
  24222234.095    18104841.847 2  14107661.893 2
  26430233.127      -33884.974 2    -26404.099 1
  23320816.338    -7049254.445 3  -5492891.672 2
  26441188.749    11824693.562 2   9214047.892 1
 91  5 13 21  2  0.0060000  0  5 02 19 15 06 11
  22519989.732    -8600888.117 4  -6701959.731 4
  24231689.251    18154512.013 2  14146365.908 2
  26428009.874      -45575.265 2    -35513.546
  23319465.769    -7056343.264 3  -5498415.409 2
  26453037.142    11886670.174 2   9262341.363 1
 91  5 13 21  2 15.0060000  0  5 02 19 15 06 11
  22522535.876    -8587504.525 4  -6691530.955 3
  24241153.403    18204250.243 2  14185122.921 1
  26425810.588      -57188.230 2    -44562.732 1
  23318123.603    -7063391.458 3  -5503907.485 2
  26464790.509    11948734.778 2   9310703.371 1
 91  5 13 21  2 30.0060000  0  5 02 19 15 06 11
  22525096.704    -8574041.483 4  -6681040.265 3
  24250633.138    18254061.627 2  14223936.945 1
  26423625.105      -68718.720 2    -53547.540 1
  23316791.925    -7070394.036 3  -5509364.013 2
  26476669.483    12010892.091 2   9359137.654 1
 91  5 13 21  2 45.0060000  0  5 02 19 15 06 11
  22527672.514    -8560503.114 4  -6670490.884 4
  24260126.361    18303942.339 2  14262805.006 1
  26421430.321      -80170.095 2    -62470.644 1
  23315466.843    -7077354.562 3  -5514787.772 2
  26488499.893    12073137.760 2   9407640.739 1
 91  5 13 21  3  0.0060000  0  5 02 19 15 06 11
  22530266.619    -8546886.127 4  -6659880.239 4
  24269635.177    18353895.614 2  14301729.591 1
  26419263.127      -91538.875 2    -71329.367 1
  23314153.147    -7084269.688 3  -5520176.158 2
  26500347.989    12135474.652 2   9456214.844 1
 91  5 13 21  3 15.0060000  0  5 02 19 15 06 11
  22532871.815    -8533189.297 4  -6649207.381 4
  24279152.988    18403922.882 2  14340711.854 1
  26417117.806     -102823.053 2    -80122.227 1
  23312845.750    -7091137.870 3  -5525527.963 2
  26512237.163    12197903.850 2   9504860.986 1
 91  5 13 21  3 30.0060000  0  5 02 19 15 06 11
  22535492.000    -8519409.337 4  -6638469.747 3
  24288682.491    18454027.514 2  14379754.383 1
  26414982.091     -114018.807 2    -88846.130 1
  23311550.647    -7097955.524 3  -5530840.380 2
  26524140.418    12260428.386 2   9553581.364 1
 91  5 13 21  3 45.0060000  0  5 02 19 15 06 11
  22538132.279    -8505546.800 4  -6627667.763 4
  24298229.985    18504209.014 2  14418856.795 2
  26412886.538     -125126.670 2    -97501.589 1
  23310259.741    -7104722.979 3  -5536113.694 2
  26536051.178    12323047.561 2   9602375.503 1
 91  5 13 21  4  0.0060000  0  5 02 19 15 06 11
  22540785.741    -8491597.140 4  -6616797.896 4
  24307797.861    18554472.192 2  14458022.891 1
  26410773.901     -136141.234 2   -106084.269 1
  23308981.731    -7111435.195 3  -5541343.960 2
  26547988.610    12385765.688 2   9651246.755 1
 91  5 13 21  4 15.0060000  0  5 02 19 15 06 11
  22543457.187    -8477558.076 4  -6605858.359 3
  24317378.929    18604819.069 2  14497254.193 1
  26408720.927     -147060.030 2   -114592.399 1
  23307715.403    -7118089.865 3  -5546529.386 2
  26559934.741    12448584.493 2   9700196.506 1
 91  5 13 21  4 30.0060000  0  5 02 19 15 06 11
  22546143.630    -8463433.084 4  -6594851.868 4
  24326973.486    18655245.948 2  14536547.841 1
  26406653.556     -157886.262 2   -123028.356 1
  23306456.274    -7124690.487 3  -5551672.699 2
  26571900.059    12511500.014 2   9749221.558 1
 91  5 13 21  4 45.0060000  0  5 02 19 15 06 11
  22548849.260    -8449224.124 4  -6583779.946 4
  24336585.433    18705751.056 2  14575902.435 2
  26404576.892     -168621.078 1   -131393.124 1
  23305213.636    -7131238.654 3  -5556775.139 2
  26583899.248    12574510.212 2   9798320.442 1
 91  5 13 21  5  0.0060000  0  5 02 19 15 06 11
  22551566.277    -8434932.169 4  -6572643.352 3
  24346209.970    18756333.726 2  14615317.448 1
  26402575.475     -179265.432 2   -139687.330 1
  23303975.194    -7137735.262 3  -5561837.397 2
  26595895.443    12637613.711 2   9847491.956 1
 91  5 13 21  5 15.0060000  0  5 02 19 15 06 11
  22554303.980    -8420551.664 4  -6561437.761 3
  24355852.497    18806999.650 2  14654797.365 2
  26400557.872     -189813.362 2   -147906.407 1
  23302751.445    -7144174.189 3  -5566854.705 2
  26607962.094    12700816.063 2   9896740.523 1
 91  5 13 21  5 30.0060000  0  5 02 19 15 06 11
  22557056.377    -8406088.737 4  -6550167.946 3
  24365512.406    18857742.761 2  14694337.403 1
  26398601.729     -200270.142 2   -156054.526 1
  23301536.081    -7150561.232 3  -5571831.595 2
  26619990.364    12764110.849 2   9946061.109 1
 91  5 13 21  5 45.0060000  0  5 02 19 15 06 11
  22559824.959    -8391545.253 4  -6538835.354 4
  24375175.019    18908561.164 2  14733936.125 1
  26396603.015     -210637.492 2   -164132.942 1
  23300328.517    -7156898.179 3  -5576769.444 2
  26632028.833    12827495.830 2   9995451.970 1
 91  5 13 21  6  0.0060000  0  5 02 19 15 06 11
  22562606.733    -8376920.402 4  -6527439.358 3
  24384865.212    18959455.794 2  14773594.242 1
  26394666.050     -220914.172 2   -172140.704 1
  23299134.442    -7163183.940 3  -5581667.406 2
  26644138.350    12890971.613 2  10044913.570 1
 91  5 13 21  6 15.0060000  0  5 02 19 15 06 11
  22565406.498    -8362211.535 4  -6515977.899 3
  24394566.189    19010429.247 2  14813313.792 1
  26392749.179     -231097.025 2   -180075.304 1
  23297947.862    -7169415.679 3  -5586523.278 2
  26656236.769    12954540.619 2  10094447.812 1
 91  5 13 21  6 30.0060000  0  5 02 19 15 06 11
  22568221.846    -8347423.321 4  -6504454.605 4
  24404275.569    19061476.973 2  14853091.209 1
  26390808.025     -241190.082 2   -187940.036 1
  23296771.779    -7175597.685 3  -5591340.394 2
  26668337.893    13018197.860 2  10144050.819 1
 91  5 13 21  6 45.0060000  0  5 02 19 15 06 11
  22571049.488    -8332557.076 4  -6492870.516 4
  24414005.933    19112597.765 2  14892925.552 2
  26388891.450     -251194.099 2   -195735.307 1
  23295604.385    -7181731.067 3  -5596119.634 2
  26680471.693    13081941.839 2  10193721.386 1
 91  5 13 21  7  0.0060000  0  5 02 19 15 06 11
  22573891.823    -8317615.035 4  -6481227.357 3
  24423747.089    19163789.414 2  14932815.128 2
  26386988.068     -261111.160 2   -203462.854 1
  23294447.794    -7187817.873 3  -5600862.558 2
  26692620.787    13145769.851 2  10243457.494 1
 91  5 13 21  7 15.0060000  0  5 02 19 15 06 11
  22576749.139    -8302600.475 4  -6469527.690 3
  24433502.642    19215048.549 2  14972757.252 1
  26385140.151     -270944.163 2   -211124.911 1
  23293297.484    -7193861.146 3  -5605571.572 2
  26704761.776    13209678.299 2  10293256.257 1
 91  5 13 21  7 30.0060000  0  5 02 19 15 06 11
  22579619.953    -8287512.071 4  -6457770.485 4
  24443268.674    19266376.586 2  15012753.081 2
  26383270.046     -280691.166 1   -218719.879 1
  23292151.676    -7199859.382 3  -5610245.498 2
  26716965.429    13273668.220 2  10343118.472 1
 91  5 13 21  7 45.0060000  0  5 02 19 15 06 11
  22582504.562    -8272352.391 4  -6445957.742 4
  24453048.203    19317771.065 2  15052800.693 1
  26381429.920     -290354.576 2   -226249.838 1
  23291020.265    -7205814.877 3  -5614886.107 2
  26729161.290    13337736.712 2  10393041.982 1
 91  5 13 21  8  0.0060000  0  5 02 19 15 06 11
  22585402.947    -8257124.662 4  -6434091.974 4
  24462845.724    19369228.925 2  15092897.703 1
  26379595.187     -299937.153 2   -233716.720 1
  23289895.442    -7211730.460 3  -5619495.633 2
  26741351.445    13401880.458 2  10443024.075 1
 91  5 13 21  8 15.0060000  0  5 02 19 15 06 11
  22588313.634    -8241832.973 4  -6422176.362 4
  24472647.442    19420745.898 2  15133040.744 1
  26377797.928     -309442.325 2   -241123.320 1
  23288777.816    -7217610.003 3  -5624077.067 2
  26753564.696    13466095.089 2  10493061.364 1
 91  5 13 21  8 30.0060000  0  5 02 19 15 06 11
  22591236.310    -8226477.034 4  -6410210.684 4
  24482461.148    19472322.364 2  15173230.143 2
  26375995.582     -318869.532 2   -248469.128 1
  23287667.084    -7223453.026 3  -5628630.050 2
  26765788.434    13530380.474 2  10543153.857 1
 91  5 13 21  8 45.0060000  0  5 02 19 15 06 11
  22594172.178    -8211054.087 4  -6398192.793 4
  24492289.843    19523961.154 2  15213468.151 1
  26374257.383     -328215.405 2   -255751.584 1
  23286561.150    -7229256.540 3  -5633152.230 2
  26778042.448    13594738.972 2  10593303.315 1
 91  5 13 21  9  0.0060000  0  5 02 19 15 06 11
  22597119.442    -8195561.308 4  -6386120.490 3
  24502130.230    19575665.338 2  15253757.089 1
  26372453.834     -337477.049 2   -262968.389 1
  23285465.407    -7235017.588 3  -5637641.343 3
  26790325.246    13659173.060 2  10643511.697 1
 91  5 13 21  9 15.0060000  0  5 02 19 15 06 11
  22600080.787    -8179998.229 4  -6373993.396 4
  24511977.510    19627435.387 2  15294097.338 1
  26370737.517     -346653.067 2   -270118.539 1
  23284375.659    -7240735.214 3  -5642096.603 2
  26802569.069    13723683.137 2  10693779.234 1
 91  5 13 21  9 30.0060000  0  5 02 19 15 06 11
  22603055.029    -8164366.003 4  -6361812.446 4
  24521849.980    19679270.050 2  15334487.944 1
  26368992.129     -355744.439 2   -277202.646 1
  23283297.610    -7246410.285 3  -5646518.708 2
  26814863.253    13788267.808 2  10744104.907 1
 91  5 13 21  9 45.0060000  0  5 02 19 15 06 11
  22606043.064    -8148665.849 4  -6349578.549 4
  24531716.743    19731168.317 2  15374928.116 1
  26367268.022     -364751.852 2   -284221.395 1
  23282225.548    -7252043.877 3  -5650908.494 2
  26827165.544    13852925.549 2  10794487.514 1
 91  5 13 21 10  0.0060000  0  5 02 19 15 06 11
  22609045.182    -8132893.845 4  -6337288.665 3
  24541605.101    19783134.025 2  15415420.854 1
  26365568.196     -373671.095 2   -291171.469 1
  23281160.988    -7257631.792 3  -5655262.692 2
  26839522.086    13917660.072 2  10844929.973 1
 91  5 13 21 10 15.0060000  0  5 02 19 15 06 11
  22612060.196    -8117050.340 4  -6324943.067 4
  24551509.042    19835166.898 2  15455965.896 1
  26363888.464     -382502.105 2   -298052.676 1
  23280104.221    -7263174.091 3  -5659581.343 2
  26851833.363    13982470.679 2  10895431.732 1
 91  5 13 21 10 30.0060000  0  5 02 19 15 06 11
  22615089.301    -8101138.257 4  -6312544.031 3
  24561421.681    19887264.040 2  15496561.030 1
  26362253.091     -391247.145 2   -304867.015 1
  23279059.441    -7268673.535 3  -5663866.593 2
  26864167.422    14047354.208 2  10945990.267 1
 91  5 13 21 10 45.0060000  0  5 02 19 15 06 11
  22618128.596    -8085155.846 4  -6300090.194 4
  24571344.809    19939427.204 2  15537207.608 1
  26360615.327     -399904.226 2   -311612.702 1
  23278022.759    -7274128.016 3  -5668116.814 3
  26876552.452    14112312.084 2  10996606.719 1
 91  5 13 21 11  0.0060000  0  5 02 19 15 06 11
  22621184.077    -8069104.551 4  -6287582.686 4
  24581287.725    19991655.315 2  15577904.811 1
  26358954.773     -408474.278 2   -318290.724 1
  23276992.672    -7279538.818 3  -5672332.992 3
  26888932.378    14177342.543 2  11047279.750 1
 91  5 13 21 11 15.0060000  0  5 02 19 15 06 11
  22624249.156    -8052985.979 4  -6275022.749 3
  24591240.840    20043946.678 2  15618651.306 1
  26357358.078     -416958.612 2   -324901.825 1
  23275971.276    -7284907.112 3  -5676516.046 3
  26901305.717    14242443.791 2  11098007.976 1
 91  5 13 21 11 30.0060000  0  5 02 19 15 06 11
  22627331.021    -8036798.969 4  -6262409.480 3
  24601196.050    20096302.311 2  15659447.876 1
  26355764.681     -425355.548 2   -331444.950 1
  23274957.986    -7290231.730 3  -5680665.069 2
  26913720.718    14307616.608 2  11148791.931 1
 91  5 13 21 11 45.0060000  0  5 02 19 15 06 11
  22630423.985    -8020545.659 4  -6249744.555 4
  24611179.136    20148720.298 2  15700292.997 1
  26354169.792     -433666.722 2   -337921.111 1
  23273952.181    -7295514.302 3  -5684781.343 2
  26926131.827    14372858.766 2  11199629.906 1
 91  5 13 21 12  0.0060000  0  5 02 19 15 06 11
  22633530.132    -8004220.618 4  -6237023.731 3
  24621159.230    20201206.167 2  15741191.055 2
  26352601.576     -441886.544 2   -344326.078 1
  23272956.864    -7300749.324 3  -5688860.552 3
  26938544.734    14438175.183 2  11250525.799 1
 91  5 13 21 12 15.0060000  0  5 02 19 15 06 11
  22636648.870    -7987828.729 4  -6224250.817 4
  24631165.700    20253755.157 2  15782138.331 1
  26351066.341     -450019.210 2   -350663.214 1
  23271966.355    -7305941.294 3  -5692906.214 2
  26951000.508    14503560.939 2  11301475.672 1
 91  5 13 21 12 30.0060000  0  5 02 19 15 06 11
  22639781.403    -7971367.767 4  -6211424.081 4
  24641170.668    20306369.356 2  15823136.318 1
  26349527.502     -458062.206 2   -356930.432 1
  23270990.530    -7311087.711 3  -5696916.375 3
  26963453.890    14569017.795 2  11352481.002 1
 91  5 13 21 12 45.0060000  0  5 02 19 15 06 11
  22642926.525    -7954837.558 4  -6198543.380 4
  24651199.631    20359048.808 2  15864185.214 1
  26348020.143     -466015.138 2   -363127.469 1
  23270017.698    -7316188.400 3  -5700890.918 2
  26975931.852    14634545.411 2  11403541.400 1
 91  5 13 21 13  0.0060000  0  5 02 19 15 06 11
  22646087.841    -7938240.365 4  -6185610.492 3
  24661238.777    20411791.428 2  15905283.316 1
  26346493.005     -473879.657 2   -369255.620 1
  23269055.066    -7321245.239 3  -5704831.285 2
  26988395.120    14700141.345 2  11454655.056 1
 91  5 13 21 13 15.0060000  0  5 02 19 15 06 11
  22649260.544    -7921569.917 4  -6172620.519 4
  24671283.323    20464603.613 2  15946435.605 1
  26345038.407     -481649.243 2   -375309.843 1
  23268101.725    -7326251.781 3  -5708732.461 2
  27000908.157    14765811.590 2  11505826.633 1
 91  5 13 21 13 30.0060000  0  5 02 19 15 06 11
  22652445.235    -7904827.079 4  -6159574.139 4
  24681346.462    20517484.527 2  15987641.495 1
  26343566.132     -489324.179 2   -381290.310 1
  23267158.279    -7331208.389 3  -5712594.724 3
  27013422.999    14831554.989 2  11557055.218 1
 91  5 13 21 13 45.0060000  0  5 02 19 15 06 11
  22655644.628    -7888008.837 4  -6146469.005 4
  24691419.783    20570437.269 2  16028903.323 1
  26342122.328     -496900.767 2   -387194.144 1
  23266225.024    -7336111.951 3  -5716415.660 3
  27025938.731    14897374.440 2  11608343.053 1
 91  5 13 21 14  0.0060000  0  5 02 19 15 06 11
  22658857.195    -7871118.565 4  -6133307.743 3
  24701513.495    20623458.536 2  16070218.565 1
  26340706.705     -504382.214 2   -393023.762 1
  23265302.867    -7340965.535 3  -5720197.646 3
  27038470.658    14963266.216 2  11659687.312 1
 91  5 13 21 14 15.0060000  0  5 02 19 15 06 11
  22662087.161    -7854151.315 4  -6120086.493 4
  24711619.204    20676553.424 2  16111591.181 1
  26339304.580     -511762.955 2   -398774.924 1
  23264391.198    -7345763.751 3  -5723936.489 2
  27051022.669    15029235.221 2  11711091.687 1
 91  5 13 21 14 30.0060000  0  5 02 19 15 06 11
  22665329.123    -7837115.066 4  -6106811.483 3
  24721735.401    20729713.554 2  16153014.626 1
  26337910.543     -519050.772 2   -404453.720 1
  23263487.024    -7350514.456 3  -5727638.312 3
  27063593.562    15095272.921 2  11762549.612 1
 91  5 13 21 14 45.0060000  0  5 02 19 13 15 06
  22668584.863    -7820011.847 4  -6093484.290 4
  24731861.788    20782937.127 2  16194487.493 1
  26001339.547           0.062 2         0.236 1
  26336547.088     -526247.048 2   -410061.209 1
  23262591.540    -7355219.577 3  -5731304.614 2
 91  5 13 21 15  0.0060000  0  5 02 19 13 15 06
  22671852.006    -7802841.554 4  -6080104.825 3
  24742001.368    20836224.440 2  16236010.050 1
  25993260.436      -42520.661 2    -33132.546 1
  26335198.020     -533351.523 2   -415597.094 1
  23261703.559    -7359878.639 3  -5734935.018 2
 91  5 13 21 15 15.0060000  0  5 02 19 13 15 06
  22675130.832    -7785606.497 4  -6066674.900 4
  24752148.146    20889573.129 2  16277580.389 1
  25985163.945      -85014.690 2    -66244.639 1
  26333854.955     -540366.080 2   -421062.993 1
  23260824.566    -7364493.582 3  -5738531.058 2
 91  5 13 21 15 30.0060000  0  5 02 19 13 15 06
  22678423.156    -7768304.894 4  -6053193.118 3
  24762323.403    20942984.941 2  16319199.956 1
  25977082.444     -127479.507 2    -99334.301 1
  26332544.863     -547288.552 2   -426457.042 1
  23259953.966    -7369062.363 3  -5742091.114 3
 91  5 13 21 15 45.0060000  0  5 02 19 13 15 06
  22681725.967    -7750938.673 4  -6039660.987 4
  24772498.058    20996458.159 2  16360867.327 1
  25969001.833     -169916.699 2   -132402.002 1
  26331226.673     -554120.468 2   -431780.590 1
  23259098.364    -7373586.758 3  -5745616.587 2
 91  5 13 21 16  0.0060000  0  5 02 19 13 15 06
  22685042.573    -7733509.123 4  -6026079.502 4
  24782679.012    21049991.440 2  16402581.539 1
  25960944.012     -212327.112 2   -165448.899 1
  26329964.246     -560862.407 2   -437034.052 1
  23258241.855    -7378067.752 3  -5749108.239 3
 91  5 13 21 16 15.0060000  0  5 02 19 13 15 06
  22688373.567    -7716013.344 4  -6012446.412 3
  24792883.943    21103588.013 2  16444345.017 1
  25952865.503     -254707.094 2   -198472.509 1
  26328684.430     -567511.122 2   -442214.816 1
  23257399.140    -7382501.973 3  -5752563.455 3
 91  5 13 21 16 30.0060000  0  5 02 19 13 15 06
  22691715.955    -7698446.890 4  -5998758.256 4
  24803094.275    21157252.089 2  16486161.161 1
  25944807.987     -297051.966 2   -231468.296 1
  26327433.999     -574061.724 2   -447319.228 1
  23256566.015    -7386884.834 3  -5755978.646 3
 91  5 13 21 16 45.0060000  0  5 02 19 13 15 06
  22695073.927    -7680809.488 4  -5985014.814 4
  24813318.096    21210983.928 2  16528030.085 1
  25936769.047     -339360.808 2   -264436.007 1
  26326209.047     -580513.680 2   -452346.673 1
  23255741.588    -7391215.764 3  -5759353.362 3
 91  5 13 21 17  0.0060000  0  5 02 19 13 15 06
  22698442.395    -7663105.942 4  -5971219.831 4
  24823553.312    21264778.727 2  16569948.086 1
  25928720.824     -381638.423 2   -297379.375 1
  26325014.675     -586871.404 2   -457300.693 1
  23254924.952    -7395499.436 3  -5762691.263 3
 91  5 13 21 17 15.0060000  0  5 02 19 13 15 06
  22701823.453    -7645335.928 4  -5957373.054 3
  24833806.815    21318636.756 2  16611915.378 1
  25920673.490     -423883.811 2   -330297.629 1
  26323820.295     -593134.163 2   -462180.725 1
  23254119.712    -7399735.322 3  -5765991.931 3
 91  5 13 21 17 30.0060000  0  5 02 19 13 15 06
  22705215.610    -7627503.376 4  -5943477.546 4
  24844061.811    21372554.389 2  16653929.091 1
  25912647.149     -466100.379 2   -363193.523 1
  26322648.111     -599305.336 2   -466989.427 1
  23253320.763    -7403926.906 3  -5769258.080 3
 91  5 13 21 17 45.0060000  0  5 02 19 13 15 06
  22708622.450    -7609605.017 4  -5929530.763 3
  24854335.705    21426534.993 2  16695991.899 1
  25904622.003     -508284.535 2   -396064.052 1
  26321489.408     -605381.335 2   -471723.949 1
  23252531.411    -7408070.750 3  -5772487.024 2
 91  5 13 21 18  0.0060000  0  5 02 19 13 15 06
  22712042.178    -7591642.580 4  -5915534.051 3
  24864625.479    21480576.781 2  16738102.342 1
  25896594.763     -550437.433 2   -428910.316 1
  26320339.404     -611363.241 2   -476385.123 1
  23251753.148    -7412168.121 3  -5775679.757 3
 91  5 13 21 18 15.0060000  0  5 02 19 13 15 06
  22715470.605    -7573615.820 4  -5901487.211 4
  24874913.752    21534679.865 2  16780260.553 1
  25888576.214     -592558.397 2   -461732.002 1
  26319241.567     -617250.862 2   -480972.828 1
  23250983.280    -7416218.775 3  -5778836.088 3
 91  5 13 21 18 30.0060000  0  5 02 19 13 15 06
  22718913.123    -7555523.523 4  -5887389.305 3
  24885221.823    21588845.746 2  16822467.704 1
  25880566.660     -634645.844 2   -494527.301 1
  26318129.037     -623042.460 2   -485485.722 1
  23250219.405    -7420221.150 3  -5781954.799 3
 91  5 13 21 18 45.0070000  0  5 02 19 13 15 06
  22722369.430    -7537368.976 4  -5873242.893 4
  24895540.977    21643073.635 2  16864723.164 1
  25872572.090     -676706.419 2   -527301.595 1
  26317038.393     -628742.313 2   -489927.116 1
  23249467.828    -7424179.625 3  -5785039.294 3
 91  5 13 21 19  0.0070000  0  5 02 19 13 15 06
  22725835.628    -7519154.623 4  -5859049.877 4
  24905872.719    21697356.295 2  16907021.316 1
  25864572.134     -718734.031 2   -560050.174 1
  26315966.636     -634349.325 2   -494296.178 1
  23248724.640    -7428093.443 3  -5788089.006 3
 91  5 13 21 19 15.0070000  0  5 02 19 13 15 06
  22729314.424    -7500879.263 4  -5844809.327 4
  24916211.362    21751697.071 2  16949364.746 1
  25856575.161     -760731.290 2   -592775.204
  26314923.060     -639863.733 2   -498593.078 1
  23247984.751    -7431962.751 3  -5791104.015 3
 91  5 13 21 19 30.0070000  0  5 02 19 13 15 06
  22732802.208    -7482540.662 4  -5830519.500 4
  24926564.402    21806098.387 2  16991755.345 1
  25848596.485     -802695.233 2   -625474.597 1
  26313895.068     -645282.863 2   -502815.773 1
  23247260.759    -7435784.899 3  -5794082.284 2
 91  5 13 21 19 45.0070000  0  5 02 19 13 15 06
  22736303.481    -7464139.282 4  -5816180.750 3
  24936925.827    21860559.799 2  17034192.790 2
  25840607.915     -844625.991 2   -658147.782 1
  26312874.579     -650606.729 2   -506964.207 1
  23246542.150    -7439560.146 3  -5797024.002 3
 91  5 13 21 20  0.0070000  0  5 02 19 13 15 06
  22739818.548    -7445680.024 4  -5801796.899 4
  24947304.937    21915076.424 2  17076673.249 1
  25832636.734     -886528.020 2   -690798.465 1
  26311880.161     -655839.636 2   -511041.815 1
  23245829.248    -7443293.105 3  -5799932.784 2
 91  5 13 21 20 15.0070000  0  5 02 19 13 15 06
  22743341.110    -7427160.396 4  -5787366.004 3
  24957693.348    21969650.955 2  17119198.853 1
  25824670.954     -928398.267 2   -723424.453 1
  26310901.946     -660978.693 2   -515046.182 1
  23245128.334    -7446980.931 3  -5802806.376 3
 91  5 13 21 20 30.0070000  0  5 02 19 13 15 06
  22746877.161    -7408579.861 4  -5772887.659 3
  24968087.457    22024283.807 2  17161769.843 1
  25816709.362     -970235.624 2   -756024.777 1
  26309932.411     -666022.780 2   -518976.595 1
  23244436.712    -7450622.657 3  -5805644.055 3
 91  5 13 21 20 45.0070000  0  5 02 19 13 15 06
  22750424.311    -7389941.747 4  -5758364.447 4
  24978487.255    22078971.592 2  17204383.634 1
  25808758.869    -1012043.027 2   -788601.741 1
  26309012.052     -670975.192 2   -522835.599 1
  23243748.388    -7454221.606 3  -5808448.402 3
 91  5 13 21 21  0.0070000  0  5 02 19 13 15 06
  22753982.550    -7371243.779 4  -5743794.591 4
  24988905.637    22133716.746 2  17247042.191 1
  25800807.773    -1053817.957 2   -821153.462 1
  26308084.189     -675833.232 2   -526621.069 1
  23243074.452    -7457775.163 3  -5811217.374 3
 91  5 13 21 21 15.0070000  0  5 02 19 13 15 06
  22757551.276    -7352489.965 4  -5729181.225 4
  24999337.220    22188515.452 2  17289742.513 1
  25792856.380    -1095563.839 2   -853682.583 1
  26307172.520     -680600.275 2   -530335.603 1
  23242406.815    -7461286.994 3  -5813953.826 3
 91  5 13 21 21 30.0070000  0  5 02 19 13 15 06
  22761131.101    -7333681.739 4  -5714525.448 3
  25009778.688    22243366.034 2  17332483.213 1
  25784920.868    -1137281.438 2   -886189.617 1
  26306283.937     -685277.507 2   -533980.181 1
  23241745.775    -7464758.221 3  -5816658.655 3
 91  5 13 21 21 45.0070000  0  5 02 19 13 15 06
  22764718.116    -7314824.254 4  -5699831.294 3
  25020219.564    22298263.573 2  17375260.437 1
  25776984.762    -1178975.461 2   -918678.709 1
  26305402.248     -689869.568 2   -537558.356 1
  23241091.330    -7468193.751 3  -5819335.664 3
 91  5 13 21 22  0.0070000  0  5 02 19 13 15 06
  22768317.118    -7295914.465 4  -5685096.385 4
  25030683.517    22353211.009 2  17418076.586 1
  25769058.253    -1220642.423 2   -951146.329 1
  26304544.840     -694372.990 2   -541067.496 1
  23240445.576    -7471590.263 3  -5821982.262 3
 91  5 13 21 22 15.0070000  0  5 02 19 13 15 06
  22771926.024    -7276950.904 4  -5670319.574 3
  25041137.881    22408209.728 2  17460932.696 1
  25761136.535    -1262280.655 2   -983591.944 1
  26303716.513     -698786.233 2   -544506.330 1
  23239804.621    -7474946.176 3  -5824597.225 3
 91  5 13 21 22 30.0070000  0  5 02 19 13 15 06
  22775544.519    -7257935.447 4  -5655502.326 3
  25051618.927    22463258.063 2  17503827.431 1
  25753222.914    -1303891.266 2  -1016015.623 1
  26302894.189     -703110.762 2   -547876.079 1
  23239175.052    -7478262.986 3  -5827181.728 3
 91  5 13 21 22 45.0070000  0  5 02 19 13 15 06
  22779173.204    -7238868.445 4  -5640644.910 4
  25062102.067    22518355.495 2  17546760.474 1
  25745303.002    -1345474.337 2  -1048417.863 1
  26302087.143     -707346.474 2   -551176.573 1
  23238550.587    -7481540.815 3  -5829735.842 3
 91  5 13 21 23  0.0070000  0  5 02 19 13 15 06
  22782809.690    -7219748.478 4  -5625746.227 3
  25072595.101    22573503.424 2  17589732.825 1
  25737397.172    -1387027.826 2  -1080796.972 1
  26301302.886     -711491.600 2   -554406.512 1
  23237936.008    -7484777.978 3  -5832258.278 3
 91  5 13 21 23 15.0070000  0  5 02 19 13 15 06
  22786457.867    -7200575.975 4  -5610806.605 3
  25083101.327    22628701.676 2  17632744.421 1
  25729492.240    -1428551.607 2  -1113153.016 1
  26300498.545     -715545.959 2   -557565.765 1
  23237328.636    -7487974.562 3  -5834749.095 3
 91  5 13 21 23 30.0070000  0  5 02 19 13 15 06
  22790116.532    -7181343.008 4  -5595819.873 3
  25093617.753    22683958.185 2  17675801.389 1
  25721601.409    -1470037.363 2  -1145479.409 1
  26299776.943     -719501.233 2   -560647.716 1
  23236728.444    -7491122.299 3  -5837201.854 3
 91  5 13 21 23 45.0070000  0  5 02 19 13 15 06
  22793788.686    -7162054.755 4  -5580790.054 4
  25104142.861    22739267.818 2  17718899.745 1
  25713710.866    -1511489.959 2  -1177780.005 1
  26299045.447     -723362.260 2   -563656.259 1
  23236136.655    -7494226.086 3  -5839620.353 3
 91  5 13 21 24  0.0070000  0  5 02 19 13 15 06
  22797470.438    -7142710.471 4  -5565716.571 4
  25114672.174    22794631.321 2  17762040.084 1
  25705830.827    -1552908.206 2  -1210054.199 1
  26298316.351     -727128.137 2   -566590.734 1
  23235557.456    -7497284.916 3  -5842003.823 3
 91  5 13 21 24 15.0070000  0  5 02 19 13 15 06
  22801162.380    -7123311.016 4  -5550600.110 3
  25125220.674    22850047.900 2  17805221.811 1
  25697959.776    -1594292.493 2  -1242301.482 1
  26297609.740     -730799.366 2   -569451.395 1
  23234982.760    -7500299.360 3  -5844352.721 3
 91  5 13 21 24 30.0070000  0  5 02 19 13 15 06
  22804864.217    -7103855.275 4  -5535439.786 4
  25135783.255    22905518.503 2  17848445.605 1
  25690084.824    -1635641.290 2  -1274521.116 1
  26296942.705     -734374.440 2   -572237.130 1
  23234418.245    -7503268.203 3  -5846666.071 3
 91  5 13 21 24 45.0070000  0  5 02 19 13 15 06
  22808575.355    -7084344.946 4  -5520236.923 3
  25146344.049    22961041.747 2  17891710.471 1
  25682218.274    -1676955.670 2  -1306714.071 1
  26296292.754     -737854.295 2   -574948.711 1
  23233863.328    -7506192.657 3  -5848944.829 3
 91  5 13 21 25  0.0070000  0  5 02 19 13 15 06
  22812299.075    -7064781.592 4  -5504992.742 4
  25156917.432    23016615.983 2  17935015.017 1
  25674367.605    -1718236.614 2  -1338880.839 1
  26295639.209     -741240.090 2   -577586.916 1
  23233315.007    -7509073.978 3  -5851189.994 3
 91  5 13 21 25 15.0070000  0  5 02 19 13 15 06
  22816030.891    -7045163.995 4  -5489706.295 4
  25167500.405    23072242.125 2  17978360.024 1
  25666516.342    -1759482.725 2  -1371020.465
  26295006.045     -744530.576 2   -580150.880 1
  23232770.587    -7511910.867 3  -5853400.535 3
 91  5 13 21 25 30.0070000  0  5 02 19 13 15 06
  22819775.298    -7025491.728 4  -5474377.241 3
  25178101.063    23127920.947 2  18021746.053 1
  25658675.872    -1800692.880 2  -1403132.040 1
  26294393.874     -747724.687 2   -582639.795 1
  23232242.055    -7514702.451 3  -5855575.772 3
 91  5 13 21 25 45.0070000  0  5 02 19 13 15 06
  22823530.497    -7005762.378 4  -5459003.717 3
  25188707.724    23183654.846 2  18065175.023 1
  25650844.388    -1841864.351 2  -1435213.567 1
  26293817.668     -750819.680 2   -585051.432 1
  23231719.220    -7517446.070 3  -5857713.625 3
 91  5 13 21 26  0.0070000  0  5 02 19 13 15 06
  22827294.692    -6985977.324 4  -5443586.785 4
  25199327.866    23239442.433 2  18108645.810 1
  25643016.212    -1882998.136 2  -1467265.638 1
  26293246.862     -753816.563 2   -587386.625 1
  23231206.567    -7520142.784 3  -5859814.933 3
 91  5 13 21 26 15.0070000  0  5 02 19 13 15 06
  22831070.283    -6966136.644 4  -5428126.512 3
  25209948.914    23295283.754 2  18152158.529 1
  25635191.927    -1924093.985 2  -1499288.272 1
  26292670.063     -756715.128 2   -589645.199 1
  23230701.418    -7522792.533 3  -5861879.647 2
 91  5 13 21 26 30.0070000  0  5 02 19 13 15 06
  22834855.758    -6946238.976 4  -5412621.820 3
  25220582.554    23351180.052 2  18195714.042 1
  25627380.834    -1965149.819 2  -1531279.746 1
  26292163.710     -759513.750 2   -591825.904 1
  23230207.664    -7525393.741 3  -5863906.529 3
 91  5 13 21 26 45.0070000  0  5 02 19 13 15 06
  22838652.926    -6926284.274 4  -5397072.686 4
  25231227.588    23407131.410 2  18239312.476 1
  25619575.134    -2006164.825 2  -1563239.727 1
  26291636.076     -762211.717 2   -593928.185 1
  23229721.100    -7527945.877 3  -5865895.186 3
 91  5 13 21 27  0.0070000  0  5 02 19 13 15 06
  22842462.090    -6906272.473 4  -5381479.071 3
  25241887.306    23463137.980 2  18282953.893 1
  25611780.837    -2047138.743 2  -1595167.296 1
  26291167.503     -764808.527 2   -595951.649 1
  23229243.226    -7530448.428 3  -5867845.201 3
 91  5 13 21 27 15.0070000  0  5 02 19 13 15 06
  22846281.149    -6886206.415 4  -5365843.165 3
  25252556.919    23519197.005 2  18326636.247 1
  25603990.423    -2088073.987 2  -1627064.752 1
  26290675.547     -767306.837 2   -597898.392 1
  23228778.849    -7532904.059 3  -5869758.657 3
 91  5 13 21 27 30.0070000  0  5 02 19 13 15 06
  22850111.899    -6866079.711 4  -5350160.011 3
  25263232.229    23575314.637 2  18370364.275 1
  25596207.216    -2128963.898 2  -1658926.788 1
  26290211.467     -769700.177 2   -599763.154 1
  23228318.068    -7535306.322 3  -5871630.524 3
 91  5 13 21 27 45.0070000  0  5 02 19 13 15 06
  22853951.942    -6845894.442 4  -5334431.225 4
  25273919.833    23631488.643 2  18414136.211 1
  25588432.097    -2169809.715 2  -1690754.931 1
  26289795.951     -771990.169 2   -601547.592 1
  23227874.073    -7537657.016 3  -5873462.228 3
 91  5 13 21 28  0.0070000  0  5 02 19 13 15 06
  22857805.473    -6825645.779 4  -5318653.029 3
  25284627.819    23687724.251 2  18457956.119 1
  25580669.568    -2210606.460 2  -1722544.568 1
  26289364.555     -774171.228 2   -603247.072 1
  23227435.183    -7539950.852 3  -5875249.606 3
 91  5 13 21 28 15.0070000  0  5 02 19 13 15 06
  22861670.993    -6805332.936 4  -5302824.826 3
  25295339.697    23744022.178 2  18501824.567 1
  25572918.434    -2251352.774 2  -1754294.793 1
  26288970.922     -776242.470 2   -604861.033 1
  23227012.774    -7542186.796 3  -5876991.874 3
 91  5 13 21 28 30.0070000  0  5 02 19 13 15 06
  22865548.510    -6784953.411 4  -5286944.671 4
  25306067.174    23800384.788 2  18545743.397 1
  25565170.302    -2292045.739 2  -1786003.414 1
  26288597.679     -778200.996 2   -606387.120 1
  23226598.759    -7544362.122 3  -5878686.913 3
 91  5 13 21 28 45.0070000  0  5 02 19 13 15 06
  22869438.015    -6764506.992 4  -5271012.389 4
  25316799.442    23856812.433 2  18589712.981 1
  25557438.957    -2332684.663 2  -1817669.908 1
  26288242.131     -780046.102 2   -607824.766 1
  23226191.942    -7546476.302 3  -5880334.310 3
 91  5 13 21 29  0.0070000  0  5 02 19 13 15 06
  22873342.815    -6743996.760 4  -5255030.377 3
  25327554.797    23913302.068 2  18633730.844 1
  25549718.701    -2373272.064 2  -1849296.272 1
  26287928.847     -781780.704 2   -609176.414 1
  23225801.912    -7548532.116 3  -5881936.215 3
 91  5 13 21 29 15.0070000  0  5 02 19 13 15 06
  22877256.908    -6723418.612 4  -5238995.449 4
  25338310.456    23969857.966 2  18677800.398 1
  25541999.641    -2413803.100 2  -1880878.731 1
  26287602.973     -783400.123 2   -610438.251 1
  23225426.872    -7550525.152 3  -5883489.203 3
 91  5 13 21 29 30.0070000  0  5 02 19 13 15 06
  22881185.685    -6702777.869 4  -5222911.743 3
  25349087.091    24026474.840 2  18721917.444 1
  25534299.174    -2454283.028 2  -1912421.459 1
  26287319.966     -784909.327 2   -611614.251 1
  23225055.427    -7552460.350 3  -5884997.128 3
 91  5 13 21 29 45.0070000  0  5 02 19 13 15 06
  22885125.560    -6682078.860 4  -5206782.631 4
  25359876.622    24083147.970 2  18766078.276 1
  25526611.891    -2494715.808 2  -1943927.325 1
  26287052.253     -786312.186 2   -612707.340 1
  23224697.776    -7554341.831 3  -5886463.202 3
 91  5 13 21 30  0.0070000  0  5 02 19 13 15 06
  22889073.227    -6661316.632 4  -5190604.260 3
  25370667.348    24139882.604 2  18810287.054 1
  25518922.819    -2535096.137 2  -1975392.362 1
  26286814.817     -787604.113 2   -613713.979 1
  23224350.019    -7556164.439 3  -5887883.386 3
 91  5 13 21 30 15.0070000  0  5 02 19 13 15 06
  22893037.384    -6640493.116 4  -5174378.134 3
  25381471.275    24196676.744 2  18854542.226 1
  25511250.831    -2575425.089 2  -2006817.361 1
  26286578.584     -788785.916 2   -614634.873 1
  23224015.446    -7557929.803 3  -5889258.966 3
 91  5 13 21 30 30.0070000  0  5 02 19 13 15 06
  22897012.631    -6619607.978 4  -5158103.994 3
  25392301.875    24253530.549 2  18898843.860 1
  25503582.734    -2615701.991 2  -2038201.852 1
  26286381.318     -789857.230 2   -615469.583 1
  23223688.979    -7559637.372 3  -5890589.519 3
 91  5 13 21 30 45.0070000  0  5 02 19 13 15 06
  22900999.570    -6598657.617 4  -5141779.024 4
  25403127.685    24310447.773 2  18943194.887 1
  25495931.433    -2655922.762 2  -2069542.548 1
  26286221.527     -790814.224 2   -616215.287 1
  23223377.187    -7561283.128 3  -5891871.903 3
 91  5 13 21 31  0.0070000  0  5 02 19 13 15 06
  22904997.598    -6577643.551 4  -5125404.419 4
  25413971.774    24367427.018 2  18987594.287 1
  25488287.923    -2696088.677 2  -2100840.449 1
  26286040.149     -791657.681 2   -616872.461 1
  23223075.603    -7562868.369 3  -5893107.137 3
 91  5 13 21 31 15.0070000  0  5 02 19 13 15 06
  22909009.124    -6556566.304 4  -5108980.584 4
  25424818.262    24424467.710 2  19032041.525 1
  25480651.909    -2736199.653 2  -2132095.585 1
  26285892.957     -792387.799 2   -617441.354 1
  23222786.602    -7564393.212 3  -5894295.297 3
 91  5 13 21 31 30.0070000  0  5 02 19 13 15 06
  22913029.942    -6535427.629 4  -5092508.881 3
  25435692.033    24481568.079 2  19076535.294 1
  25473029.392    -2776256.890 2  -2163308.892 1
  26285793.124     -793006.082 2   -617923.014 1
  23222507.189    -7565859.136 3  -5895437.553 3
 91  5 13 21 31 45.0070000  0  5 02 19 13 15 06
  22917066.648    -6514222.836 4  -5075985.653 4
  25446562.812    24538732.786 2  19121079.197 1
  25465416.455    -2816255.233 2  -2194476.327 1
  26285685.500     -793507.514 2   -618313.828 1
  23222242.172    -7567261.206 3  -5896530.059 3
 91  5 13 21 32  0.0070000  0  5 02 19 13 15 06
  22921115.343    -6492953.183 4  -5059411.891 4
  25457462.367    24595960.432 2  19165672.077 1
  25457818.822    -2856195.539 2  -2225598.478 1
  26285609.652     -793893.039 2   -618614.176 1
  23221985.855    -7568600.491 3  -5897573.635 3
 91  5 13 21 32 15.0070000  0  5 02 19 13 15 06
  22925174.831    -6471614.424 4  -5042784.272 4
  25468364.914    24653255.566 2  19210317.645 1
  25450230.176    -2896073.101 2  -2256671.729 1
  26285555.085     -794158.058 2   -618820.643 1
  23221742.424    -7569872.448 3  -5898564.736 3
 91  5 13 21 32 30.0070000  0  5 02 19 13 15 06
  22929247.816    -6450205.315 4  -5026101.844 3
  25479273.167    24710619.479 2  19255016.764 1
  25442652.620    -2935886.254 2  -2287694.884 1
  26285533.203     -794300.816 2   -618931.796 1
  23221514.280    -7571075.420 3  -5899502.100 3
 91  5 13 21 32 45.0070000  0  5 02 19 13 15 06
  22933336.682    -6428726.612 4  -5009365.185 3
  25490211.391    24768051.273 2  19299768.785 1
  25435093.351    -2975635.358 2  -2318668.051 1
  26285549.397     -794321.765 2   -618948.095 1
  23221298.726    -7572209.882 3  -5900386.070 3
 91  5 13 21 33  0.0070000  0  5 02 19 13 15 06
  22937437.238    -6407180.726 4  -4992576.169 3
  25501153.515    24825548.575 2  19344571.840 1
  25427537.983    -3015322.175 2  -2349592.691 1
  26285552.093     -794222.924 2   -618870.996 1
  23221095.170    -7573277.949 3  -5901218.306 3
 91  5 13 21 33 15.0070000  0  5 02 19 13 15 06
  22941548.300    -6385570.558 4  -4975737.066 4
  25512100.141    24883108.477 2  19389423.656 1
  25420000.300    -3054949.296 2  -2380470.809 1
  26285592.560     -794006.862 2   -618702.688 1
  23220902.999    -7574282.168 3  -5902000.789 3
 91  5 13 21 33 30.0070000  0  5 02 19 13 15 06
  22945673.445    -6363893.737 4  -4958846.024 4
  25523066.251    24940733.329 2  19434326.075 1
  25412469.510    -3094513.965 2  -2411300.252 1
  26285671.705     -793671.044 2   -618440.945 1
  23220725.827    -7575220.156 3  -5902731.674 3
 91  5 13 21 33 45.0070000  0  5 02 19 13 15 06
  22949809.678    -6342152.164 4  -4941904.524 3
  25534047.647    24998420.911 2  19479277.388 1
  25404951.014    -3134017.565 2  -2442082.168 1
  26285734.369     -793217.169 2   -618087.234 1
  23220558.846    -7576093.348 3  -5903412.045 3
 91  5 13 21 34  0.0070000  0  5 02 19 13 15 06
  22953960.300    -6320343.870 4  -4924911.036 3
  25545039.836    25056173.319 2  19524279.229 1
  25397439.420    -3173457.553 2  -2472814.489 1
  26285855.482     -792642.720 2   -617639.537 1
  23220406.846    -7576899.539 3  -5904040.222 3
 91  5 13 21 34 15.0070000  0  5 02 19 13 15 06
  22958125.318    -6298468.039 4  -4907864.928 4
  25556033.228    25113991.553 2  19569332.370 1
  25389957.499    -3212832.800 2  -2503496.369 1
  26285999.682     -791946.384 2   -617096.917 1
  23220263.248    -7577637.585 3  -5904615.299 3
 91  5 13 21 34 30.0070000  0  5 02 19 13 15 06
  22962296.932    -6276531.346 4  -4890771.391 4
  25567065.291    25171868.990 2  19614431.632 1
  25382468.381    -3252149.386 2  -2534132.493 1
  26286145.679     -791134.523 2   -616464.193 1
  23220136.132    -7578313.750 3  -5905142.158 3
 91  5 13 21 34 45.0070000  0  5 02 19 13 15 06
  22966483.536    -6254534.690 4  -4873631.121 3
  25578067.069    25229804.683 2  19659576.314 1
  25374999.051    -3291407.944 2  -2564723.438 1
  26286308.167     -790207.734 2   -615742.042 1
  23220019.817    -7578928.779 3  -5905621.376 3
 91  5 13 21 35  0.0070000  0  5 02 19 13 15 06
  22970682.128    -6232477.377 4  -4856443.593 4
  25589112.926    25287799.255 2  19704766.802 1
  25367540.513    -3330607.339 2  -2595268.275 1
  26286512.928     -789165.326 2   -614929.773 1
  23219914.584    -7579481.674 3  -5906052.185 3
 91  5 13 21 35 15.0070000  0  5 02 19 13 15 06
  22974890.013    -6210360.664 4  -4839209.782 3
  25600164.777    25345851.692 2  19750002.512 1
  25360090.073    -3369748.153 2  -2625767.432 1
  26286732.077     -788007.971 2   -614027.903 1
  23219820.449    -7579973.349 3  -5906435.297 3
 91  5 13 21 35 30.0070000  0  5 02 19 13 15 06
  22979108.690    -6188189.856 4  -4821933.807 3
  25611218.425    25403956.513 2  19795278.935 1
  25352657.921    -3408835.291 2  -2656224.819 1
  26286962.018     -786740.400 2   -613040.089 1
  23219739.506    -7580408.811 3  -5906774.595 3
 91  5 13 21 35 45.0070000  0  5 02 19 13 15 06
  22983338.169    -6165964.844 4  -4804615.606 4
  25622277.169    25462113.752 2  19840596.255 1
  25345226.964    -3447868.418 2  -2686640.123 1
  26287237.522     -785362.367 2   -611966.340 1
  23219668.161    -7580787.780 3  -5907069.868 3
 91  5 13 21 36  0.0070000  0  5 02 19 13 15 06
  22987579.331    -6143687.376 4  -4787256.530 3
  25633360.797    25520321.669 2  19885953.010 1
  25337808.004    -3486848.720 2  -2717014.304 1
  26287504.039     -783875.371 2   -610807.585 1
  23219604.301    -7581111.651 3  -5907322.220 3
 91  5 13 21 36 15.0070000  0  5 02 19 13 15 06
  22991828.590    -6121355.318 4  -4769854.911 3
  25644446.519    25578582.369 2  19931350.932 1
  25330402.524    -3525773.577 2  -2747345.138 1
  26287832.915     -782276.804 2   -609561.919 1
  23219553.041    -7581378.002 3  -5907529.751 3
 91  5 13 21 36 30.0070000  0  5 02 19 13 15 06
  22996087.141    -6098972.302 4  -4752413.589 4
  25655535.242    25636892.291 2  19976787.189 1
  25323005.446    -3564646.207 2  -2777635.294 1
  26288136.304     -780570.243 2   -608232.068 1
  23219512.862    -7581590.141 3  -5907695.030 3
 91  5 13 21 36 45.0070000  0  5 02 19 13 15 06
  23000357.087    -6076536.188 4  -4734930.892 4
  25666645.255    25695253.561 2  20022263.428 1
  25315616.160    -3603463.787 2  -2807882.667 1
  26288496.049     -778753.009 2   -606815.958 1
  23219483.188    -7581745.704 3  -5907816.220 3
 91  5 13 21 37  0.0070000  0  5 02 19 13 15 06
  23004634.519    -6054054.718 4  -4717412.848 4
  25677756.463    25753658.221 2  20067773.484 1
  25308238.269    -3642233.725 2  -2838092.896 1
  26288852.208     -776832.644 2   -605319.486 1
  23219464.002    -7581852.151 3  -5907899.154 3
 91  5 13 21 37 15.0070000  0  5 02 19 13 15 06
  23008923.355    -6031520.652 4  -4699853.825 4
  25688888.655    25812113.888 2  20113323.367 1
  25300873.867    -3680948.313 2  -2868259.940 1
  26289245.833     -774801.420 2   -603736.701 1
  23219453.505    -7581901.821 3  -5907937.837 3
 91  5 13 21 37 30.0070000  0  5 02 19 13 15 06
  23013220.280    -6008941.309 4  -4682259.522 4
  25700016.048    25870612.883 2  20158906.970 1
  25293513.069    -3719614.434 2  -2898389.245 1
  26289661.942     -772666.338 2   -602072.957 1
  23219451.106    -7581901.800 3  -5907937.800 3
 91  5 13 21 37 45.0070000  0  5 02 19 13 15 06
  23017523.198    -5986318.049 4  -4664630.993 3
  25711157.838    25929153.788 2  20204523.193 1
  25286169.651    -3758233.024 2  -2928481.488 1
  26290078.060     -770428.212 2   -600328.944 1
  23219463.103    -7581853.133 3  -5907899.853 3
 91  5 13 21 38  0.0070000  0  5 02 19 13 15 06
  23021837.817    -5963649.066 4  -4646966.831 4
  25722303.519    25987738.701 2  20250173.708 1
  25278830.133    -3796801.903 2  -2958535.047 1
  26290529.549     -768085.002 2   -598502.980
  23219483.485    -7581753.703 3  -5907822.355 3
 91  5 13 21 38 15.0070000  0  5 02 19 13 15 06
  23026159.921    -5940934.841 4  -4629267.429 4
  25733463.596    26046367.213 2  20295858.256 1
  25271493.608    -3835321.012 2  -2988549.764 1
  26290985.829     -765636.933 2   -596595.365 1
  23219509.870    -7581603.727 3  -5907705.468 3
 91  5 13 21 38 30.0070000  0  5 02 19 13 15 06
  23030490.123    -5918172.127 4  -4611530.235 3
  25744625.471    26105042.257 2  20341579.035 1
  25264174.175    -3873786.733 2  -3018522.940 1
  26291479.888     -763080.694 2   -594603.456 1
  23219548.243    -7581399.754 3  -5907546.505 3
 91  5 13 21 38 45.0070000  0  5 02 19 13 15 06
  23034831.118    -5895364.241 4  -4593757.840 3
  25755802.928    26163760.437 2  20387333.410 1
  25256866.137    -3912202.094 2  -3048456.789 1
  26291978.441     -760419.395 2   -592529.726 1
  23219595.009    -7581144.847 3  -5907347.848 3
 91  5 13 21 39  0.0070000  0  5 02 19 13 15 06
  23039182.303    -5872512.067 4  -4575950.943 4
  25766985.787    26222520.939 2  20433120.787 1
  25249562.593    -3950567.484 2  -3078351.823 1
  26292507.872     -757653.451 2   -590374.403 1
  23219656.469    -7580839.678 3  -5907110.028 3
 91  5 13 21 39 15.0070000  0  5 02 19 13 15 06
  23043539.492    -5849615.528 4  -4558109.469 4
  25778175.844    26281324.006 2  20478941.338 1
  25242275.233    -3988882.309 2  -3108207.430 1
  26293052.301     -754782.476 2   -588137.206 1
  23219724.219    -7580483.644 3  -5906832.585 3
 91  5 13 21 39 30.0070000  0  5 02 19 13 15 06
  23047902.971    -5826674.781 4  -4540233.551 4
  25789366.494    26340169.555 2  20524795.037 1
  25234994.174    -4027146.162 2  -3138023.283 1
  26293629.703     -751806.141 2   -585818.026 1
  23219800.363    -7580076.613 3  -5906515.384 3
 91  5 13 21 39 45.0070000  0  5 02 19 13 15 06
  23052277.243    -5803691.567 4  -4522324.537 3
  25800571.837    26399055.449 2  20570680.125 1
  25227722.712    -4065360.468 2  -3167800.467 1
  26294200.805     -748725.986 2   -583417.764 1
  23219885.808    -7579620.100 3  -5906159.637 3
 91  5 13 21 40  0.0070000  0  5 02 19 13 15 06
  23056658.112    -5780669.115 4  -4504384.955 3
  25811786.473    26457978.677 2  20616594.240 1
  25220454.539    -4103527.651 2  -3197540.988 1
  26294816.274     -745544.812 2   -580938.925 1
  23219984.437    -7579116.934 3  -5905767.541 3
 91  5 13 21 40 15.0070000  0  5 02 19 13 15 06
  23061048.273    -5757602.664 4  -4486411.080 4
  25823008.900    26516944.021 2  20662541.211 1
  25213201.068    -4141642.644 2  -3227240.888 1
  26295441.646     -742257.476 2   -578377.324 1
  23220090.569    -7578561.917 3  -5905335.028 3
 91  5 13 21 40 30.0070000  0  5 02 19 13 15 06
  23065442.927    -5734495.823 4  -4468405.737 4
  25834248.122    26575947.797 2  20708518.164 1
  25205958.678    -4179708.979 2  -3256902.795 1
  26296080.498     -738867.502 2   -575735.730 1
  23220199.991    -7577958.784 3  -5904865.025 3
 91  5 13 21 40 45.0080000  0  5 02 19 13 15 06
  23069849.276    -5711346.075 4  -4450366.962 4
  25845480.447    26634994.660 2  20754528.660 1
  25198721.989    -4217728.004 2  -3286527.868 1
  26296749.342     -735373.494 2   -573013.075 1
  23220326.203    -7577306.195 3  -5904356.491 3
 91  5 13 21 41  0.0080000  0  5 02 19 13 15 06
  23074263.422    -5688158.156 4  -4432298.440 3
  25856717.270    26694075.266 2  20800565.400 1
  25191499.989    -4255695.335 2  -3316112.673 1
  26297432.562     -731777.136 2   -570210.682 1
  23220460.814    -7576605.523 3  -5903810.482 3
 91  5 13 21 41 15.0080000  0  5 02 19 13 15 06
  23078682.960    -5664932.800 4  -4414200.748 3
  25867964.878    26753191.553 2  20846630.045 1
  25184285.179    -4293615.150 2  -3345660.479 1
  26298138.580     -728079.906 2   -567329.683 1
  23220606.209    -7575858.499 3  -5903228.359 3
 91  5 13 21 41 30.0080000  0  5 02 19 13 15 06
  23083107.593    -5641669.898 4  -4396073.805 4
  25879221.490    26812343.435 2  20892722.432 1
  25177079.068    -4331486.949 2  -3375170.848 1
  26298850.584     -724281.492 2   -564369.817 1
  23220754.309    -7575064.697 3  -5902609.787 3
 91  5 13 21 41 45.0080000  0  5 02 19 13 15 06
  23087542.427    -5618367.688 4  -4377916.220 4
  25890488.886    26871532.516 2  20938843.773 1
  25169877.459    -4369308.802 2  -3404642.289 1
  26299596.171     -720379.846 2   -561329.559 1
  23220914.694    -7574222.228 3  -5901953.290 3
 91  5 13 21 42  0.0080000  0  5 02 19 13 15 06
  23091984.755    -5595027.674 4  -4359729.180 4
  25901755.087    26930757.242 2  20984992.866 1
  25162692.629    -4407081.763 2  -3434075.608 1
  26300358.239     -716376.159 2   -558209.808 1
  23221084.973    -7573332.351 3  -5901259.854 3
 91  5 13 21 42 15.0080000  0  5 02 19 13 15 06
  23096432.170    -5571650.991 4  -4341513.569 4
  25913036.574    26990016.495 2  21031168.896 1
  25155514.098    -4444806.521 2  -3463471.369 1
  26301154.493     -712271.532 2   -555011.290 1
  23221261.255    -7572395.810 3  -5900530.071 3
 91  5 13 21 42 30.0080000  0  5 02 19 13 15 06
  23100887.987    -5548234.086 4  -4323266.622 3
  25924318.969    27049313.654 2  21077374.407 1
  25148342.163    -4482479.105 2  -3492826.555 1
  26301931.254     -708061.860 2   -551731.075 1
  23221450.128    -7571408.908 3  -5899761.028 3
 91  5 13 21 42 45.0080000  0  5 02 19 13 15 06
  23105353.393    -5524777.386 4  -4304988.652 4
  25935610.350    27108648.501 2  21123609.326 1
  25141181.623    -4520099.396 2  -3522140.918 1
  26302774.571     -703747.383 2   -548369.118 1
  23221647.088    -7570371.628 3  -5898952.736 3
 91  5 13 21 43  0.0080000  0  5 02 19 13 15 06
  23109822.402    -5501280.262 4  -4286679.200 3
  25946917.926    27168021.707 2  21169874.127 1
  25134036.972    -4557666.410 2  -3551413.826 1
  26303625.382     -699327.127 2   -544924.741 1
  23221857.843    -7569282.914 3  -5898104.355 3
 91  5 13 21 43 15.0080000  0  5 02 19 13 15 06
  23114302.798    -5477744.234 4  -4268339.428 3
  25958213.504    27227431.634 2  21216167.569 1
  25126896.814    -4595181.160 2  -3580645.972 1
  26304480.984     -694802.273 2   -541398.845 1
  23222072.193    -7568144.071 3  -5897216.913 3
 91  5 13 21 43 30.0080000  0  5 02 19 13 15 06
  23118788.298    -5454170.872 4  -4249970.558 4
  25969531.864    27286876.498 2  21262488.188 1
  25119770.442    -4632644.660 2  -3609838.187 1
  26305350.389     -690174.309 2   -537792.599 1
  23222296.742    -7566956.637 3  -5896291.611 3
 91  5 13 21 43 45.0080000  0  5 02 19 13 15 06
  23123280.682    -5430561.750 4  -4231573.828 3
  25980840.634    27346354.859 2  21308834.952 1
  25112648.275    -4670058.131 2  -3638991.375 1
  26306256.657     -685444.469 2   -534106.965 1
  23222531.474    -7565721.731 3  -5895329.317 3
 91  5 13 21 44  0.0080000  0  5 02 19 13 15 06
  23127778.476    -5406917.428 4  -4213149.668 3
  25992167.998    27405866.186 2  21355207.380 1
  25105533.298    -4707421.804 2  -3668105.776 1
  26307176.118     -680613.070 2   -530342.211 1
  23222777.304    -7564439.698 3  -5894330.308 3
 91  5 13 21 44 15.0080000  0  5 02 19 13 15 06
  23132287.647    -5383236.822 4  -4194697.232 3
  26003501.653    27465411.564 2  21401606.382 1
  25098435.413    -4744734.186 2  -3697180.272 1
  26308126.465     -675678.589 2   -526497.074 1
  23223027.933    -7563108.980 3  -5893293.360 3
 91  5 13 21 44 30.0080000  0  5 02 19 13 15 06
  23136798.031    -5359517.393 4  -4176214.548 4
  26014842.200    27524993.463 2  21448033.854 1
  25091346.218    -4781992.077 2  -3726212.293 1
  26309060.916     -670638.134 2   -522569.442 1
  23223293.246    -7561726.774 3  -5892216.285 3
 91  5 13 21 44 45.0080000  0  5 02 19 13 15 06
  23141322.794    -5335759.473 4  -4157701.872 3
  26026180.052    27584611.366 2  21494489.388 1
  25084269.623    -4819195.543 2  -3755201.871 1
  26310055.927     -665491.667 2   -518559.185 1
  23223564.562    -7560293.242 3  -5891099.215 3
 91  5 13 21 45  0.0080000  0  5 02 19 13 15 06
  23145849.066    -5311963.749 4  -4139159.738 3
  26037535.886    27644264.641 2  21540972.379 1
  25077199.920    -4856344.674 2  -3784149.146 1
  26311037.144     -660239.734 2   -514466.745 1
  23223849.367    -7558808.649 3  -5889942.360 3
 91  5 13 21 45 15.0080000  0  5 02 19 13 15 06
  23150386.419    -5288128.324 4  -4120586.672 3
  26048894.128    27703955.182 2  21587484.470 1
  25070140.705    -4893437.212 2  -3813052.295 1
  26312067.536     -654879.984 2   -510290.283 1
  23224141.361    -7557270.846 3  -5888744.051 3
 91  5 13 21 45 30.0080000  0  5 02 19 13 15 06
  23154927.376    -5264255.658 4  -4101984.581 3
  26060257.456    27763680.695 2  21634023.869 1
  25063088.383    -4930475.197 2  -3841912.931 1
  26313108.712     -649414.669 2   -506031.551 1
  23224444.454    -7555681.933 3  -5887505.902 3
 91  5 13 21 45 45.0080000  0  5 02 19 13 15 06
  23159476.726    -5240343.067 4  -4083351.376 3
  26071633.384    27823443.597 2  21680592.358 1
  25056058.850    -4967455.616 2  -3870728.741 1
  26314167.583     -643840.975 2   -501688.457 1
  23224754.134    -7554039.038 3  -5886225.697 3
 91  5 13 21 46  0.0080000  0  5 02 19 13 15 06
  23164034.174    -5216394.574 4  -4064690.204 3
  26083010.211    27883239.801 2  21727186.778 1
  25049030.819    -5004382.055 2  -3899502.486 1
  26315248.632     -638162.674 2   -497263.723 1
  23225078.516    -7552345.964 3  -5884906.398 3
 91  5 13 21 46 15.0080000  0  5 02 19 13 15 06
  23168600.311    -5192406.916 4  -4045998.512 3
  26094391.225    27943072.672 2  21773809.750 1
  25042016.573    -5041250.505 2  -3928231.005 1
  26316348.572     -632375.942 2   -492754.508 1
  23225409.486    -7550598.902 3  -5883545.019 3
 91  5 13 21 46 30.0080000  0  5 02 19 13 15 06
  23173170.950    -5168383.235 4  -4027278.741 3
  26105792.936    28002938.870 2  21820458.762 1
  25035008.626    -5078063.845 2  -3956916.647 1
  26317453.904     -626484.169 2   -488163.454 1
  23225751.851    -7548800.917 3  -5882143.967 3
 91  5 13 21 46 45.0080000  0  5 02 19 13 15 06
  23177748.483    -5144320.577 4  -4008528.609 4
  26117190.450    28062841.253 2  21867135.950 1
  25028015.966    -5114819.096 2  -3985556.955 1
  26318608.410     -620484.143 2   -483488.143 1
  23226103.507    -7546948.974 3  -5880700.874 3
 91  5 13 21 47  0.0080000  0  5 02 19 13 15 06
  23182337.402    -5120220.586 4  -3989749.386 3
  26128591.549    28122778.257 2  21913840.125 1
  25021031.403    -5151517.133 2  -4014152.703 1
  26319781.195     -614376.595 2   -478728.954 1
  23226466.254    -7545044.034 3  -5879216.481 3
 91  5 13 21 47 15.0080000  0  5 02 19 13 15 06
  23186927.524    -5096083.251 4  -3970941.060 3
  26140003.756    28182749.967 2  21960571.338 1
  25014057.930    -5188157.711 2  -4042703.687 1
  26320948.283     -608161.470 2   -473885.943 1
  23226840.395    -7543085.964 3  -5877690.681 3
 91  5 13 21 47 30.0080000  0  5 02 19 13 15 06
  23191532.035    -5071906.658 4  -3952102.139 4
  26151423.144    28242758.216 2  22007330.947 1
  25007097.047    -5224738.438 2  -4071208.072 1
  26322151.650     -601836.856 2   -468957.650 1
  23227223.227    -7541072.606 3  -5876121.813 3
 91  5 13 21 47 45.0080000  0  5 02 19 13 15 06
  23196136.545    -5047696.674 4  -3933237.199 4
  26162844.337    28302797.228 2  22054114.554 1
  25000143.659    -5261264.387 2  -4099669.738 1
  26323395.197     -595408.116 2   -463948.210 1
  23227614.757    -7539009.190 3  -5874513.932 3
 91  5 13 21 48  0.0080000  0  5 02 19 13 15 06
  23200751.857    -5023448.553 4  -3914342.555 3
  26174280.826    28362871.299 2  22100925.552 1
  24993207.965    -5297730.664 2  -4128084.952 1
  26324616.843     -588870.486 2   -458853.934 1
  23228020.972    -7536891.049 3  -5872863.407 3
 91  5 13 21 48 15.0080000  0  5 02 19 13 15 06
  23205373.757    -4999166.096 4  -3895421.143 4
  26185726.599    28422976.938 2  22147761.157 1
  24986277.061    -5334140.547 2  -4156456.181 1
  26325902.653     -582227.159 2   -453677.298 1
  23228430.791    -7534721.569 3  -5871172.877 3
 91  5 13 21 48 30.0080000  0  5 02 19 13 15 06
  23209999.853    -4974847.431 4  -3876471.524 4
  26197170.573    28483115.714 2  22194622.438 1
  24979362.648    -5370491.836 2  -4184781.721 1
  26327171.380     -575476.160 2   -448416.724 1
  23228857.693    -7532498.655 3  -5869440.718 3
 91  5 13 21 48 45.0080000  0  5 02 19 13 15 06
  23214634.945    -4950493.292 4  -3857494.261 3
  26208612.751    28543286.953 2  22241509.111 1
  24972453.330    -5406785.007 2  -4213062.010 1
  26328473.376     -568618.170 2   -443072.818 1
  23229286.698    -7530222.680 3  -5867667.205 3
 91  5 13 21 49  0.0080000  0  5 02 19 13 15 06
  23219273.928    -4926107.345 4  -3838492.218 3
  26220070.826    28603486.916 2  22288418.220 1
  24965557.807    -5443023.168 2  -4241299.438 1
  26329811.354     -561656.640 2   -437648.205 1
  23229730.989    -7527897.166 3  -5865855.094 3
 91  5 13 21 49 15.0080000  0  5 02 19 13 15 06
  23223921.314    -4901688.717 4  -3819464.705 3
  26231527.391    28663716.548 2  22335350.397 1
  24958671.872    -5479204.690 2  -4269492.749 1
  26331138.233     -554590.033 2   -432141.706 1
  23230183.377    -7525520.738 3  -5864003.299 3
 91  5 13 21 49 30.0080000  0  5 02 19 13 15 06
  23228574.092    -4877237.696 4  -3800411.956 3
  26242995.648    28723975.347 2  22382305.285 1
  24951798.528    -5515329.973 2  -4297642.193 1
  26332514.881     -547418.565 2   -426553.530 1
  23230644.159    -7523093.715 3  -5862112.081 3
 91  5 13 21 49 45.0080000  0  5 02 19 13 15 06
  23233234.670    -4852756.340 4  -3781335.558 3
  26254464.516    28784261.467 2  22429281.448 1
  24944935.384    -5551400.340 2  -4325748.889 1
  26333898.422     -540143.846 2   -420884.917 1
  23231113.631    -7520617.510 3  -5860182.554 3
 91  5 13 21 50  0.0080000  0  5 02 19 13 15 06
  23237899.732    -4828238.387 4  -3762230.651 3
  26265940.267    28844581.018 2  22476283.727 1
  24938079.429    -5587409.247 2  -4353807.651 1
  26335307.745     -532759.625 2   -415130.920 1
  23231596.897    -7518085.695 3  -5858209.690 3
 91  5 13 21 50 15.0080000  0  5 02 19 13 15 06
  23242571.103    -4803685.779 4  -3743098.738 4
  26277443.608    28904932.244 2  22523310.628 1
  24931239.659    -5623357.940 2  -4381819.524 1
  26336737.755     -525267.586 2   -409292.932 1
  23232090.660    -7515499.741 3  -5856194.635 3
 91  5 13 21 50 30.0080000  0  5 02 19 13 15 06
  23247249.367    -4779099.095 4  -3723940.265 3
  26288918.758    28965314.182 2  22570361.454 1
  24924408.588    -5659246.706 2  -4409784.715 1
  26338183.951     -517667.873 2   -403371.040 1
  23232590.713    -7512860.086 3  -5854137.743 3
 91  5 13 21 50 45.0080000  0  5 02 19 13 15 06
  23251935.719    -4754477.647 4  -3704754.716 3
  26300413.705    29025727.540 2  22617436.774 1
  24917590.413    -5695074.501 2  -4437702.369 1
  26339640.948     -509959.784 2   -397364.745 1
  23233103.060    -7510165.731 3  -5852038.224 3
 91  5 13 21 51  0.0080000  0  5 02 19 13 15 06
  23256627.472    -4729820.496 4  -3685541.351 4
  26311926.032    29086173.329 2  22664537.412 1
  24910788.117    -5730839.758 2  -4465571.309 1
  26341141.108     -502141.898 2   -391272.846 1
  23233626.794    -7507415.399 3  -5849895.085 3
 91  5 13 21 51 15.0080000  0  5 02 19 13 15 06
  23261325.219    -4705126.799 4  -3666299.498 3
  26323427.872    29146652.354 2  22711663.917 1
  24903993.029    -5766541.384 2  -4493390.675 1
  26342643.668     -494213.117 2   -385094.536 1
  23234160.421    -7504607.988 3  -5847707.471 3
 91  5 13 21 51 30.0080000  0  5 02 19 13 15 06
  23266032.563    -4680397.207 4  -3647029.677 4
  26334939.301    29207163.751 2  22758815.612 1
  24897208.724    -5802179.607 2  -4521160.507 1
  26344160.615     -486174.141 2   -378830.362 1
  23234706.945    -7501744.067 3  -5845475.831 3
 91  5 13 21 51 45.0080000  0  5 02 19 13 15 06
  23270745.902    -4655630.667 4  -3627731.063 4
  26346461.226    29267708.572 2  22805993.427 1
  24890444.208    -5837752.836 2  -4548879.886 1
  26345707.848     -478023.747 2   -372479.389 1
  23235261.259    -7498822.172 3  -5843199.000 3
 91  5 13 21 52  0.0080000  0  5 02 19 13 15 06
  23275464.930    -4630832.881 4  -3608408.102 3
  26357994.241    29328281.069 2  22853192.738 1
  24883683.287    -5873266.463 2  -4576552.723 1
  26347291.350     -469767.081 2   -366045.600 1
  23235827.275    -7495847.681 3  -5840881.191 3
 91  5 13 21 52 15.0080000  0  4 02 13 15 06
  23280189.960    -4606003.416 4  -3589060.458 3
  24876935.559    -5908719.643 2  -4604178.494 1
  26348880.254     -461403.383 2   -359528.385 1
  23236404.371    -7492819.883 3  -5838521.843 3
 91  5 13 21 52 30.0080000  0  4 02 13 15 06
  23284919.484    -4581141.729 4  -3569687.710 3
  24870203.413    -5944111.595 2  -4631756.556 1
  26350495.228     -452932.057 2   -352927.318 1
  23236991.065    -7489738.041 3  -5836120.377 3
 91  5 13 21 52 45.0080000  0  4 02 13 15 06
  23289657.410    -4556246.516 4  -3550288.832 4
  24863479.373    -5979440.501 2  -4659285.475 1
  26352120.105     -444351.706 2   -346241.308 1
  23237588.551    -7486600.401 3  -5833675.446 3
 91  5 13 21 53  0.0080000  0  4 02 13 15 06
  23294400.423    -4531316.987 4  -3530863.214 3
  24856767.016    -6014705.175 2  -4686764.320 1
  26353789.654     -435661.146 2   -339469.392 1
  23238198.332    -7483406.047 3  -5831186.323 3
 91  5 13 21 53 15.0080000  0  4 02 13 15 06
  23299151.532    -4506354.686 4  -3511412.055 3
  24850068.758    -6049906.743 2  -4714194.051 1
  26355452.302     -426861.549 2   -332612.518 1
  23238815.904    -7480156.080 3  -5828653.861 3
 91  5 13 21 53 30.0080000  0  4 02 13 15 06
  23303908.942    -4481362.454 4  -3491937.587 3
  24843383.379    -6085047.342 2  -4741576.215 1
  26357151.526     -417955.819 2   -325672.959 1
  23239444.269    -7476852.937 3  -5826079.964 3
 91  5 13 21 53 45.0080000  0  4 02 13 15 06
  23308669.047    -4456340.858 4  -3472440.232 3
  24836704.012    -6120127.303 2  -4768911.185 1
  26358870.529     -408944.150 2   -318650.875 1
  23240080.425    -7473497.043 3  -5823464.963 3
 91  5 13 21 54  0.0080000  0  4 02 13 15 06
  23313437.546    -4431287.660 4  -3452918.250 3
  24830039.625    -6155144.450 2  -4796197.154 1
  26360603.336     -399824.270 2   -311544.426 1
  23240731.580    -7470086.016 3  -5820807.006 3
 91  5 13 21 54 15.0080000  0  4 02 13 15 06
  23318209.936    -4406205.792 4  -3433373.929 3
  24823395.621    -6190100.894 2  -4823435.833 1
  26362361.917     -390598.547 2   -304355.556 1
  23241389.322    -7466622.382 3  -5818108.044 3
 91  5 13 21 54 30.0080000  0  4 02 13 15 06
  23322988.032    -4381094.585 4  -3413806.744 3
  24816749.225    -6224995.530 2  -4850626.410 1
  26364134.292     -381265.951 2   -297083.368 1
  23242060.859    -7463105.165 3  -5815367.335 3
 91  5 13 21 54 45.0080000  0  4 02 13 15 06
  23327772.716    -4355957.966 4  -3394219.763 3
  24810119.015    -6259832.053 2  -4877771.642 1
  26365926.752     -371830.339 2   -289730.905 1
  23242735.685    -7459538.090 3  -5812587.775 3
 91  5 13 21 55  0.0080000  0  4 02 13 15 06
  23332561.606    -4330790.953 4  -3374609.092 3
  24803500.793    -6294605.044 2  -4904867.387 1
  26367759.976     -362286.610 2   -282294.194 1
  23243426.714    -7455915.692 3  -5809765.109 3
 91  5 13 21 55 15.0080000  0  4 02 13 15 06
  23337356.481    -4305595.426 4  -3354976.208 3
  24796898.163    -6329315.729 2  -4931914.591 1
  26369592.310     -352636.657 2   -274774.735 1
  23244126.424    -7452239.673 3  -5806900.660 3
 91  5 13 21 55 30.0080000  0  4 02 13 15 06
  23342152.865    -4280374.546 4  -3335323.565 3
  24790303.926    -6363967.046 2  -4958915.514 1
  26371448.027     -342883.128 2   -267174.581 1
  23244835.732    -7448512.867 3  -5803996.641 3
 91  5 13 21 55 45.0080000  0  4 02 13 15 06
  23346957.337    -4255132.303 4  -3315654.274 4
  24783721.687    -6398562.544 2  -4985872.963 1
  26373326.229     -333029.859 2   -259496.671 1
  23245553.442    -7444738.978 3  -5801055.935 3
 91  5 13 21 56  0.0080000  0  4 02 13 15 06
  23351765.413    -4229865.922 4  -3295966.178 3
  24777149.036    -6433099.248 2  -5012784.581 1
  26375211.917     -323074.143 2   -251738.917 1
  23246282.232    -7440915.081 3  -5798076.252 3
 91  5 13 21 56 15.0080000  0  4 02 13 15 06
  23356576.482    -4204577.785 4  -3276261.134 4
  24770586.280    -6467578.718 2  -5039651.627 1
  26377119.496     -313017.938 2   -243902.869 1
  23247017.323    -7437043.206 3  -5795059.192 3
 91  5 13 21 56 30.0080000  0  4 02 13 15 06
  23361395.342    -4179262.989 4  -3256535.303 3
  24764038.513    -6501996.063 2  -5066470.234 1
  26379056.156     -302856.041 2   -235984.512 1
  23247764.707    -7433118.192 3  -5792000.718 3
 91  5 13 21 56 45.0080000  0  4 02 13 15 06
  23366218.102    -4153920.123 4  -3236787.607 3
  24757501.539    -6536349.228 2  -5093238.837 1
  26381007.806     -292586.632 2   -227982.318 1
  23248523.181    -7429138.158 3  -5788899.374 3
 91  5 13 21 57  0.0080000  0  4 02 13 15 06
  23371046.560    -4128550.822 4  -3217019.314 3
  24750976.859    -6570639.485 2  -5119958.418 1
  26382981.940     -282211.474 2   -219897.763 1
  23249290.947    -7425104.563 3  -5785756.292 3
 91  5 13 21 57 15.0080000  0  4 02 13 15 06
  23375879.215    -4103155.845 4  -3197231.008 3
  24744463.862    -6604867.177 2  -5146629.281 1
  26384984.553     -271731.271 2   -211731.365 1
  23250066.513    -7421018.036 3  -5782571.964 3
 91  5 13 21 57 30.0080000  0  4 02 13 15 06
  23380716.965    -4077731.072 4  -3177419.492 4
  24737964.659    -6639027.847 2  -5173247.880 1
  26386986.573     -261141.526 2   -203479.564 1
  23250855.568    -7416874.194 3  -5779342.974 3
 91  5 13 21 57 45.0080000  0  4 02 13 15 06
  23385557.716    -4052279.693 4  -3157587.239 3
  24731474.452    -6673123.985 2  -5199816.258 1
  26389024.855     -250445.209 2   -195144.749 1
  23251657.816    -7412675.593 3  -5776071.323 3
 91  5 13 21 58  0.0080000  0  4 02 13 15 06
  23390405.657    -4026802.429 4  -3137734.819 3
  24724998.040    -6707156.186 2  -5226334.741 1
  26391077.541     -239642.712 2   -186727.181 1
  23252465.752    -7408422.971 3  -5772757.568 3
 91  5 13 21 58 15.0080000  0  4 02 13 15 06
  23395261.102    -4001295.644 4  -3117859.392 3
  24718532.114    -6741120.656 2  -5252800.497 1
  26393160.199     -228730.561 2   -178224.202 1
  23253284.787    -7404112.379 3  -5769398.646 3
 91  5 13 21 58 30.0080000  0  4 02 13 15 06
  23400120.734    -3975758.090 4  -3097959.992 3
  24712079.984    -6775015.497 2  -5279211.977 1
  26395256.947     -217707.048 2   -169634.429 1
  23254115.513    -7399742.114 3  -5765993.220 3
 91  5 13 21 58 45.0080000  0  4 02 13 15 06
  23404986.065    -3950189.386 4  -3078036.308 3
  24705645.242    -6808840.022 2  -5305568.667 1
  26397374.077     -206571.551 2   -160957.395 1
  23254958.228    -7395311.589 3  -5762540.848 3
 91  5 13 21 59  0.0080000  0  4 02 13 15 06
  23409857.991    -3924588.817 4  -3058087.802 3
  24699219.784    -6842593.049 2  -5331869.673 1
  26399511.895     -195323.117 2   -152192.344 1
  23255814.135    -7390819.907 3  -5759040.809 3
 91  5 13 21 59 15.0080000  0  4 02 13 15 06
  23414734.419    -3898960.094 4  -3038117.357 3
  24692811.724    -6876277.780 2  -5358117.417 1
  26401675.800     -183965.009 2   -143341.856 1
  23256677.537    -7386270.164 3  -5755495.540 3
 91  5 13 21 59 30.0080000  0  4 02 13 15 06
  23419619.233    -3873298.395 4  -3018121.216 3
  24686416.847    -6909889.237 2  -5384308.093 1
  26403865.488     -172492.853 2   -134402.462 1
  23257556.530    -7381657.724 3  -5751901.413 3
 91  5 13 21 59 45.0080000  0  4 02 13 15 06
  23424507.955    -3847604.302 4  -2998099.827 3
  24680034.570    -6943427.780 2  -5410441.934 1
  26406059.365     -160906.998 2   -125374.525 1
  23258446.910    -7376982.711 3  -5748258.518 3
 91  5 13 22  0  0.0080000  0  4 02 13 15 06
  23429405.062    -3821877.337 4  -2978052.833 4
  24673666.976    -6976892.258 2  -5436518.063 1
  26408287.121     -149206.320 2   -116257.074 1
  23259347.490    -7372244.373 3  -5744566.284 3
 91  5 13 22  0 15.0080000  0  4 02 13 15 06
  23434304.271    -3796113.718 4  -2957977.272 3
  24667313.178    -7010278.530 2  -5462533.267 1
  26410534.368     -137387.160 2   -107047.301 1
  23260263.059    -7367438.704 3  -5740821.589 3
 91  5 13 22  0 30.0080000  0  4 02 13 15 06
  23439215.766    -3770319.249 4  -2937877.670 3
  24660973.461    -7043591.834 2  -5488491.609 1
  26412804.694     -125454.966 2    -97749.492 1
  23261190.311    -7362571.060 3  -5737028.591 3
 91  5 13 22  0 45.0080000  0  4 02 13 15 06
  23444127.566    -3744491.971 4  -2917752.510 3
  24654650.244    -7076829.824 2  -5514391.262 1
  26415115.199     -113407.650 2    -88361.933 1
  23262127.161    -7357639.229 3  -5733185.583 3
 91  5 13 22  1  0.0080000  0  4 02 13 15 06
  23449049.557    -3718631.713 4  -2897601.638 3
  24648343.203    -7109991.835 2  -5540231.702 1
  26417411.909     -101244.772 2    -78884.322 1
  23263081.705    -7352642.731 3  -5729292.193 3
 91  5 13 22  1 15.0080000  0  4 02 13 15 06
  23453977.848    -3692740.143 4  -2877426.379 3
  24642044.870    -7143079.323 2  -5566014.079 1
  26419757.184      -88967.799 2    -69317.866 1
  23264041.040    -7347582.845 3  -5725349.402 3
 91  5 13 22  1 30.0080000  0  4 02 13 15 06
  23458908.537    -3666817.406 4  -2857226.834 3
  24635758.516    -7176092.326 2  -5591738.426 1
  26422122.849      -76576.964 2    -59662.652 1
  23265017.467    -7342459.598 3  -5721357.235 3
 91  5 13 22  1 45.0080000  0  4 02 13 15 06
  23463850.317    -3640861.106 4  -2837001.130 3
  24629494.952    -7209028.081 2  -5617402.573 1
  26424502.299      -64069.985 2    -49916.931 1
  23266003.177    -7337270.629 3  -5717313.868 3
 91  5 13 22  2  0.0080000  0  4 02 13 15 06
  23468794.191    -3614875.767 4  -2816752.806 3
  24623237.985    -7241890.528 2  -5643009.590 1
  26426890.143      -51450.866 2    -40083.787 1
  23267003.886    -7332019.772 3  -5713222.267 3
 91  5 13 22  2 15.0080000  0  4 02 13 15 06
  23473745.262    -3588860.226 4  -2796480.951 3
  24617002.900    -7274678.293 2  -5668558.436 1
  26429312.164      -38718.215 2    -30162.201 1
  23268012.090    -7326705.757 3  -5709081.457 3
 91  5 13 22  2 30.0080000  0  4 02 13 15 06
  23478701.133    -3562817.050 4  -2776187.553 3
  24610776.514    -7307393.178 2  -5694050.466 1
  26431762.672      -25874.299 2    -20153.975 1
  23269034.978    -7321330.840 3  -5704893.196 3
 91  5 13 22  2 45.0080000  0  4 02 13 15 06
  23483662.998    -3536741.372 4  -2755868.825 3
  24604563.617    -7340030.179 2  -5719481.827 1
  26434221.870      -12914.232 2    -10055.137 1
  23270073.161    -7315889.856 3  -5700653.454 3
 91  5 13 22  3  0.0080000  0  4 02 13 15 06
  23488630.856    -3510631.438 4  -2735523.421 3
  24598365.710    -7372587.082 2  -5744850.745 1
  26436705.952         163.966 2       135.698 1
  23271120.340    -7310380.737 3  -5696360.604 3
 91  5 13 22  3 15.0080000  0  4 02 13 15 06
  23493605.913    -3484488.606 4  -2715152.372 3
  24592189.083    -7405065.012 2  -5770158.176 1
  26439227.805       13359.040 2     10417.575 1
  23272181.907    -7304804.660 3  -5692015.595 3
 91  5 13 22  3 30.0080000  0  4 02 13 15 06
  23498585.769    -3458316.732 4  -2694758.695 3
  24586022.647    -7437467.349 2  -5795406.651 1
  26441764.944       26667.319 2     20787.675 1
  23273255.165    -7299165.123 3  -5687621.129 3
 91  5 13 22  3 45.0080000  0  4 02 13 15 06
  23503573.111    -3432112.068 4  -2674339.466 3
  24579871.812    -7469789.906 2  -5820592.991 1
  26444314.386       40092.642 2     31248.967 1
  23274341.310    -7293458.053 3  -5683174.037 3
 91  5 13 22  4  0.0080000  0  4 02 13 15 06
  23508564.659    -3405878.217 4  -2653897.500 3
  24573737.153    -7502036.013 2  -5845719.783 1
  26446885.406       53631.621 2     41798.914 1
  23275438.545    -7287686.964 3  -5678677.069 3
 91  5 13 22  4 15.0080000  0  4 02 13 15 06
  23513563.099    -3379612.819 4  -2633430.938 3
  24567612.999    -7534203.151 2  -5870784.986 1
  26449490.295       67286.917 2     52439.402 1
  23276552.881    -7281848.982 3  -5674127.972 3
 91  5 13 22  4 30.0090000  0  4 02 13 15 06
  23518565.138    -3353317.862 4  -2612941.349 3
  24561507.424    -7566296.640 2  -5895792.833 1
  26452111.688       81055.708 2     63168.366 1
  23277674.401    -7275947.360 3  -5669529.284 3
 91  5 13 22  4 45.0090000  0  4 02 13 15 06
  23523573.167    -3327001.102 4  -2592434.781 3
  24555414.139    -7598315.900 2  -5920742.847 1
  26454747.761       94932.223 2     73981.240 1
  23278805.515    -7269986.771 3  -5664884.646 3
 91  5 13 22  5  0.0090000  0  4 02 13 15 06
  23528588.098    -3300659.472 4  -2571908.822 3
  24549332.852    -7630261.595 2  -5945635.507 1
  26457413.518      108918.715 2     84879.840 1
  23279953.120    -7263965.211 3  -5660192.504 3
 91  5 13 22  5 15.0090000  0  4 02 13 15 06
  23533602.427    -3274292.914 4  -2551363.440 4
  24543267.453    -7662133.117 2  -5970470.407 1
  26460097.553      123015.326 2     95864.254 1
  23281110.026    -7257882.661 3  -5655452.833 3
 91  5 13 22  5 30.0090000  0  4 02 13 15 06
  23538624.250    -3247903.006 4  -2530799.871 3
  24537217.637    -7693931.982 2  -5995248.664 1
  26462804.082      137220.419 2    106933.197 1
  23282278.911    -7251740.187 3  -5650666.477 3
 91  5 13 22  5 45.0090000  0  4 02 13 15 06
  23543651.169    -3221491.062 4  -2510219.132 3
  24531183.718    -7725658.916 3  -6019970.903 1
  26465518.106      151533.027 2    118085.910 1
  23283460.692    -7245538.907 3  -5645834.292 3
 91  5 13 22  6  0.0090000  0  4 02 13 15 06
  23548682.887    -3195052.797 4  -2489617.872 3
  24525158.786    -7757309.105 3  -6044633.323 1
  26468258.802      165957.697 2    129325.928 1
  23284651.774    -7239273.970 3  -5640952.506 3
 91  5 13 22  6 15.0090000  0  4 02 13 15 06
  23553718.802    -3168588.667 4  -2468996.467 3
  24519147.945    -7788882.988 2  -6069236.270 2
  26471029.190      180494.054 2    140652.974 1
  23285856.040    -7232945.762 3  -5636021.413 3
 91  5 13 22  6 30.0090000  0  4 02 13 15 06
  23558761.609    -3142098.428 4  -2448354.712 3
  24513156.291    -7820379.791 3  -6093779.185 1
  26473820.553      195142.442 2    152067.329 1
  23287072.294    -7226553.856 3  -5631040.691 3
 91  5 13 22  6 45.0090000  0  4 02 13 15 06
  23563807.113    -3115579.461 4  -2427690.570 3
  24507178.134    -7851796.435 3  -6118259.618 1
  26476614.917      209905.578 2    163571.134 1
  23288299.646    -7220095.234 3  -5626007.972 3
 91  5 13 22  7  0.0090000  0  4 02 13 15 06
  23568858.916    -3089033.848 4  -2407005.669 3
  24501212.568    -7883134.528 3  -6142678.840 1
  26479446.163      224781.576 2    175162.834 1
  23289541.989    -7213571.597 3  -5620924.608 3
 91  5 13 22  7 15.0090000  0  4 02 13 15 06
  23573917.019    -3062453.948 4  -2386294.050 3
  24495266.476    -7914386.246 3  -6167030.783 1
  26482313.975      239778.303 2    186848.636 1
  23290798.413    -7206975.156 3  -5615784.500 3
 91  5 13 22  7 30.0090000  0  4 02 13 15 06
  23578979.615    -3035840.852 4  -2365556.563 3
  24489338.384    -7945552.647 3  -6191316.236 2
  26485188.986      254894.626 2    198627.595 1
  23292064.444    -7200307.030 3  -5610588.541 3
 91  5 13 22  7 45.0090000  0  4 02 13 15 06
  23584050.901    -3009192.146 4  -2344791.328 3
  24483420.177    -7976630.909 3  -6215532.964 2
  26488088.278      270133.142 2    210501.801 1
  23293349.050    -7193564.267 3  -5605334.419 3
 91  5 13 22  8  0.0090000  0  4 02 13 15 06
  23589129.089    -2982509.570 4  -2323999.711 3
  24477525.660    -8007622.141 3  -6239681.937 1
  26491010.657      285492.461 2    222470.142 1
  23294646.849    -7186748.217 3  -5600023.197 3
 91  5 13 22  8 15.0090000  0  4 02 13 15 06
  23594213.568    -2955784.885 4  -2303175.271 3
  24471643.436    -8038517.831 3  -6263756.424 1
  26493969.604      300980.912 2    234539.111 1
  23295958.748    -7179850.516 3  -5594648.348 3
 91  5 13 22  8 30.0090000  0  4 02 13 15 06
  23599307.042    -2929019.225 4  -2282318.905 3
  24465784.289    -8069318.655 3  -6287757.016 1
  26496930.356      316597.317 2    246707.745 1
  23297286.526    -7172872.013 3  -5589210.534 3
 91  5 13 22  8 45.0090000  0  4 02 13 15 06
  23604409.809    -2902209.330 4  -2261428.074 3
  24459939.836    -8100020.984 3  -6311680.824 1
  26499926.183      332345.032 2    258978.689 1
  23298630.489    -7165809.038 3  -5583706.900 3
 91  5 13 22  9  0.0090000  0  4 02 13 15 06
  23609520.367    -2875353.618 4  -2240501.537 3
  24454116.664    -8130622.938 3  -6335526.460 1
  26502951.388      348225.900 2    271353.428 1
  23299991.249    -7158660.023 3  -5578136.222 3
 91  5 13 22  9 15.0090000  0  4 02 13 15 06
  23614639.327    -2848448.657 4  -2219536.617 3
  24448316.883    -8161120.630 3  -6359290.828 1
  26505993.982      364243.573 2    283834.789 1
  23301369.100    -7151421.043 3  -5572495.439 3
 91  5 13 22  9 30.0090000  0  4 02 13 15 06
  23619768.478    -2821487.903 4  -2198528.228 3
  24442532.686    -8191507.422 3  -6382968.779 1
  26509063.257      380404.347 2    296427.601 1
  23302767.927    -7144085.269 3  -5566779.236 3
 91  5 13 22  9 45.0090000  0  4 02 13 15 06
  23624911.712    -2794471.662 4  -2177476.607 3
  24436770.074    -8221783.280 3  -6406560.316 1
  26512200.588      396708.216 2    309131.913 1
  23304178.149    -7136652.917 3  -5560987.783 3
 91  5 13 22 10  0.0090000  0  4 02 13 15 06
  23630064.246    -2767399.595 4  -2156381.478 3
  24431030.846    -8251947.335 3  -6430064.728 1
  26515314.832      413155.706 2    321948.170 1
  23305611.458    -7129123.438 3  -5555120.640 3
 91  5 13 22 10 15.0090000  0  4 02 13 15 06
  23635224.572    -2740273.546 4  -2135244.288 3
  24425309.312    -8282001.238 3  -6453483.246 1
  26518456.351      429744.849 2    334874.805 1
  23307063.360    -7121498.247 3  -5549178.913 3
 91  5 13 22 10 30.0090000  0  4 02 13 15 06
  23640396.590    -2713091.855 4  -2114063.750 3
  24419611.153    -8311942.937 3  -6476814.400 1
  26521649.444      446477.572 2    347913.280 1
  23308532.642    -7113775.523 3  -5543161.192 3
 91  5 13 22 10 45.0090000  0  4 02 13 15 06
  23645579.706    -2685854.134 4  -2092839.542 3
  24413939.980    -8341771.736 3  -6500057.549 1
  26524861.122      463354.328 2    361064.030 1
  23310020.212    -7105954.614 3  -5537066.960 3
 91  5 13 22 11  0.0090000  0  4 02 13 15 06
  23650772.708    -2658561.254 4  -2071572.354 3
  24408282.297    -8371488.022 3  -6523213.045 1
  26528094.979      480374.467 2    374326.536 1
  23311527.867    -7098036.133 3  -5530896.706 3
 91  5 13 22 11 15.0090000  0  4 02 13 15 06
  23655980.106    -2631211.245 4  -2050260.657 3
  24402648.599    -8401089.364 3  -6546278.977 1
  26531362.122      497539.744 2    387702.080 1
  23313054.709    -7090017.932 3  -5524648.743 3
 91  5 13 22 11 30.0090000  0  4 02 13 15 06
  23661194.998    -2603804.363 4  -2028904.641 3
  24397037.385    -8430575.799 3  -6569255.356 1
  26534652.640      514850.387 2    401190.898 1
  23314599.838    -7081899.710 3  -5518322.844 3
 91  5 13 22 11 45.0090000  0  4 02 13 15 06
  23666421.574    -2576338.053 4  -2007502.310 3
  24391449.250    -8459944.720 3  -6592140.178 1
  26537967.745      532308.934 2    414795.024 1
  23316160.254    -7073678.811 3  -5511916.931 3
 91  5 13 22 12  0.0090000  0  4 02 13 15 06
  23671658.350    -2548813.660 4  -1986054.734 3
  24385882.709    -8489196.922 3  -6614934.054 1
  26541335.314      549914.286 2    428513.488 1
  23317747.657    -7065356.343 3  -5505431.884 3
 91  5 13 22 12 15.0090000  0  4 02 13 15 06
  23676907.715    -2521228.798 4  -1964560.030 3
  24380339.839    -8518329.745 3  -6637634.904 1
  26544710.082      567668.643 2    442348.057 1
  23319351.550    -7056929.727 3  -5498865.681 3
 91  5 13 22 12 30.0090000  0  4 02 13 15 06
  23682167.874    -2493581.330 4  -1943016.535 3
  24374814.969    -8547340.598 3  -6660240.711 2
  26548123.519      585574.445 2    456300.636 1
  23320973.722    -7048396.549 3  -5492216.436 3
 91  5 13 22 12 45.0090000  0  4 02 13 15 06
  23687442.124    -2465872.035 4  -1921424.874 3
  24369320.367    -8576230.109 3  -6682751.957 2
  26551558.542      603631.018 2    470370.749 1
  23322616.590    -7039757.175 3  -5485484.442 3
 91  5 13 22 13  0.0090000  0  4 02 13 15 06
  23692726.870    -2438096.949 4  -1899781.951 3
  24363851.259    -8604993.688 3  -6705165.080 2
  26555027.139      621842.394 2    484561.431 1
  23324277.441    -7031007.314 3  -5478666.353 3
 91  5 13 22 13 15.0090000  0  4 02 13 15 06
  23698023.901    -2410256.840 4  -1878088.344 3
  24358397.735    -8633631.957 3  -6727480.545 2
  26558502.629      640207.762 2    498872.167 1
  23325969.466    -7022147.853 3  -5471762.867 3
 91  5 13 22 13 30.0090000  0  4 02 13 15 06
  23703335.625    -2382350.103 4  -1856342.831 3
  24352972.087    -8662142.859 3  -6749696.781 1
  26562047.676      658728.849 2    513304.187 1
  23327675.888    -7013176.740 3  -5464772.381 3
 91  5 13 22 13 45.0090000  0  4 02 13 15 06
  23708659.940    -2354378.713 4  -1834546.942 3
  24347568.034    -8690527.940 3  -6771814.966 1
  26565576.834      677403.879 2    527856.177 1
  23329401.488    -7004095.583 3  -5457696.137 3
 91  5 13 22 14  0.0090000  0  4 02 13 15 06
  23713993.843    -2326342.205 4  -1812700.309 3
  24342192.450    -8718786.746 3  -6793834.767 1
  26569171.649      696233.271 2    542528.429 1
  23331151.980    -6994903.931 3  -5450533.794 3
 91  5 13 22 14 15.0090000  0  4 02 13 15 06
  23719338.845    -2298242.753 4  -1790804.625 3
  24336838.759    -8746921.109 3  -6815757.586 1
  26572790.440      715214.992 2    557319.438 1
  23332921.956    -6985603.506 3  -5443286.704 3
 91  5 13 22 14 30.0090000  0  4 02 13 15 06
  23724700.328    -2270079.574 4  -1768859.291 3
  24331510.247    -8774929.703 3  -6837582.422 1
  26576413.733      734349.943 2    572229.805 1
  23334714.713    -6976193.335 3  -5435954.094 3
 91  5 13 22 14 45.0090000  0  4 02 13 15 06
  23730070.816    -2241853.128 4  -1746864.659 3
  24326204.517    -8802812.595 3  -6859309.296 1
  26580090.686      753637.743 2    587259.279 1
  23336524.562    -6966673.363 3  -5428535.920 3
 91  5 13 22 15  0.0090000  0  4 02 13 15 06
  23735453.885    -2213562.313 4  -1724819.866 3
  24320920.373    -8830568.469 3  -6880937.194 1
  26583816.203      773079.451 2    602408.619 1
  23338358.990    -6957042.480 3  -5421031.326 3
 91  5 13 22 15 15.0090000  0  4 02 13 15 06
  23740851.054    -2185209.839 4  -1702727.020 3
  24315663.513    -8858199.734 3  -6902468.010 1
  26587514.750      792672.720 2    617676.157 1
  23340210.511    -6947303.172 3  -5413442.241 3
 91  5 13 22 15 30.0090000  0  4 02 13 15 06
  23746257.507    -2156792.455 4  -1680583.602 3
  24310431.239    -8885702.891 3  -6923898.982 1
  26591275.342      812420.580 2    633064.124 1
  23342086.610    -6937451.981 3  -5405765.976 3
 91  5 13 22 15 45.0090000  0  4 02 13 15 06
  23751677.754    -2128317.548 4  -1658395.363 3
  24305219.645    -8913085.022 3  -6945235.663 1
  26595048.829      832315.595 2    648566.719 1
  23343979.496    -6927495.905 3  -5398007.991 3
 91  5 13 22 16  0.0090000  0  4 02 13 15 06
  23757106.700    -2099775.192 4  -1636154.560 3
  24300032.340    -8940335.976 3  -6966470.095 1
  26598867.888      852368.123 2    664192.112 1
  23345896.071    -6917424.869 3  -5390160.420 3
 91  5 13 22 16 15.0090000  0  4 02 13 15 06
  23762550.932    -2071169.400 4  -1613864.324 3
  24294869.310    -8967459.376 3  -6987605.171 1
  26602734.307      872574.065 2    679937.013 1
  23347833.935    -6907242.544 3  -5382226.130 3
 91  5 13 22 16 30.0090000  0  4 02 13 15 06
  23768007.450    -2042497.966 4  -1591522.951 3
  24289734.164    -8994452.498 3  -7008638.733 1
  26606605.227      892935.947 2    695803.399 1
  23349791.579    -6896946.674 3  -5374203.343 3
 91  5 13 22 16 45.0090000  0  4 02 13 15 06
  23773477.168    -2013761.855 4  -1569131.174 3
  24284622.106    -9021316.157 3  -7029571.388 1
  26610502.236      913452.643 2    711790.484 1
  23351774.700    -6886537.926 3  -5366092.644 3
 91  5 13 22 17  0.0090000  0  4 02 13 15 06
  23778954.975    -1984959.902 4  -1546688.087 3
  24279539.128    -9048048.944 3  -7050402.074 2
  26614428.012      934125.255 2    727899.005 1
  23353777.313    -6876014.699 3  -5357892.715 3
 91  5 13 22 17 15.0090000  0  4 02 13 15 06
  23784448.966    -1956093.750 4  -1524194.981 3
  24274469.935    -9074652.047 3  -7071131.722 1
  26618404.463      954952.329 2    744127.926 1
  23355801.818    -6865378.380 3  -5349604.662 3
 91  5 13 22 17 30.0090000  0  4 02 13 15 06
  23789954.955    -1927163.006 4  -1501651.544 3
  24269438.217    -9101124.648 3  -7091759.679 1
  26622397.997      975934.440 2    760477.590 1
  23357845.203    -6854628.584 3  -5341228.192 3
 91  5 13 22 17 45.0090000  0  4 02 13 15 06
  23795472.339    -1898170.867 4  -1479060.263 3
  24264425.686    -9127469.666 3  -7112288.208 1
  26626423.012      997068.300 2    776945.564 1
  23359911.370    -6843767.991 3  -5332765.386 3
 91  5 13 22 18  0.0090000  0  4 02 13 15 06
  23801001.711    -1869115.242 4  -1456419.520 3
  24259434.147    -9153684.882 3  -7132715.592 1
  26630466.612     1018355.838 2    793533.264 1
  23362002.124    -6832794.374 3  -5324214.502 3
 91  5 13 22 18 15.0090000  0  4 02 13 15 06
  23806541.273    -1839996.084 4  -1433729.262 3
  24254469.883    -9179769.856 3  -7153041.493 1
  26634556.681     1039797.352 2    810240.933 1
  23364111.760    -6821707.599 3  -5315575.447 3
 91  5 13 22 18 30.0090000  0  4 02 13 15 06
  23812095.233    -1810812.781 4  -1410989.022 3
  24249530.503    -9205723.773 3  -7173265.276 1
  26638654.847     1061393.573 2    827069.207 1
  23366241.786    -6810506.588 3  -5306847.385 3
 91  5 13 22 18 45.0090000  0  4 02 13 15 06
  23817660.578    -1781567.778 4  -1388200.704 3
  24244616.897    -9231548.693 3  -7193388.544 1
  26642801.874     1083142.046 2    844016.045 1
  23368393.397    -6799193.653 3  -5298032.102 3
 91  5 13 22 19  0.0090000  0  4 02 13 15 06
  23823237.014    -1752258.410 4  -1365362.246 3
  24239728.785    -9257241.699 3  -7213409.031 1
  26646976.184     1105045.407 2    861083.591 1
  23370569.588    -6787765.900 3  -5289127.346 3
 91  5 13 22 19 15.0090000  0  4 02 13 15 06
  23828828.142    -1722885.186 4  -1342474.024 3
  24234864.956    -9282802.824 3  -7233326.735 1
  26651164.882     1127103.640 2    878271.856 1
  23372765.567    -6776223.488 3  -5280133.255 3
 91  5 13 22 19 30.0090000  0  4 02 13 15 06
  23834427.070    -1693451.133 4  -1319538.395 3
  24230024.205    -9308234.794 3  -7253143.819 1
  26655395.556     1149313.396 2    895578.182 1
  23374986.430    -6764569.141 3  -5271051.941 3
 91  5 13 22 19 45.0090000  0  4 02 13 15 06
  23840042.184    -1663956.418 4  -1296555.496 3
  24225208.939    -9333537.629 3  -7272860.249 2
  26659644.815     1171674.624 2    913002.505 1
  23377221.384    -6752803.061 3  -5261883.554 3
 91  5 13 22 20  0.0090000  0  4 02 13 15 06
  23845664.190    -1634403.354 4  -1273527.138 3
  24220419.753    -9358713.453 3  -7292477.736 1
  26663918.051     1194185.051 2    930543.127 1
  23379483.918    -6740927.084 3  -5252629.535 3
 91  5 13 22 20 15.0090000  0  4 02 13 15 06
  23851299.686    -1604791.229 4  -1250452.753 3
  24215651.551    -9383760.913 3  -7311995.192 2
  26668239.562     1216845.363 2    948200.493 1
  23381761.748    -6728940.195 3  -5243289.100 3
 91  5 13 22 20 30.0090000  0  4 02 13 15 06
  23856946.280    -1575122.354 4  -1227334.144 3
  24210908.538    -9408682.018 3  -7331414.186 2
  26672584.754     1239653.274 2    965972.889 1
  23384065.944    -6716844.829 3  -5233864.129 3
 91  5 13 22 20 45.0090000  0  4 02 13 15 06
  23862601.267    -1545397.263 4  -1204171.738 3
  24206193.699    -9433477.377 3  -7350735.201 2
  26676941.340     1262608.250 2    983859.921 1
  23386385.741    -6704641.054 3  -5224354.686 3
 91  5 13 22 21  0.0090000  0  4 02 13 15 06
  23868269.438    -1515613.987 4  -1180963.988 3
  24201497.156    -9458144.729 3  -7369956.466 1
  26681350.687     1285712.290 2   1001863.047 1
  23388729.820    -6692326.790 3  -5214759.148 3
